<?xml version="1.0" encoding="UTF-8" standalone="no" ?><gpx xmlns="http://www.topografix.com/GPX/1/1" xmlns:gpxx="http://www.garmin.com/xmlschemas/GpxExtensions/v3" xmlns:wptx1="http://www.garmin.com/xmlschemas/WaypointExtension/v1" xmlns:gpxtpx="http://www.garmin.com/xmlschemas/TrackPointExtension/v1" creator="GuideVTT.com" version="1.1" xmlns:xsi="http://www.w3.org/2001/XMLSchema-instance" xsi:schemaLocation="http://www.topografix.com/GPX/1/1 http://www.topografix.com/GPX/1/1/gpx.xsd http://www.garmin.com/xmlschemas/GpxExtensions/v3 http://www8.garmin.com/xmlschemas/GpxExtensionsv3.xsd http://www.garmin.com/xmlschemas/WaypointExtension/v1 http://www8.garmin.com/xmlschemas/WaypointExtensionv1.xsd http://www.garmin.com/xmlschemas/TrackPointExtension/v1 http://www.garmin.com/xmlschemas/TrackPointExtensionv1.xsd">
<metadata><link href="http://www.garmin.com"><text>Garmin International</text></link><time>2013-06-22T15:13:50Z</time></metadata>
<trk><name>2024rp09.gpx</name><extensions><gpxx:TrackExtension><gpxx:DisplayColor>Cyan</gpxx:DisplayColor></gpxx:TrackExtension></extensions><trkseg>
<trkpt lat="46.48912" lon="6.72301"><ele>414.4</ele><time>2024-06-12T15:11:59Z</time></trkpt>
<trkpt lat="46.48913" lon="6.72299"><ele>414.4</ele><time>2024-06-12T15:12:00Z</time></trkpt>
<trkpt lat="46.48909" lon="6.72296"><ele>414.4</ele><time>2024-06-12T15:12:01Z</time></trkpt>
<trkpt lat="46.48909" lon="6.72282"><ele>414.2</ele><time>2024-06-12T15:12:06Z</time></trkpt>
<trkpt lat="46.48909" lon="6.72262"><ele>414</ele><time>2024-06-12T15:12:12Z</time></trkpt>
<trkpt lat="46.4891" lon="6.72256"><ele>414</ele><time>2024-06-12T15:12:14Z</time></trkpt>
<trkpt lat="46.48912" lon="6.72253"><ele>414</ele><time>2024-06-12T15:12:16Z</time></trkpt>
<trkpt lat="46.4892" lon="6.72252"><ele>414.6</ele><time>2024-06-12T15:12:22Z</time></trkpt>
<trkpt lat="46.48922" lon="6.72268"><ele>414.6</ele><time>2024-06-12T15:12:27Z</time></trkpt>
<trkpt lat="46.48922" lon="6.72279"><ele>414.2</ele><time>2024-06-12T15:12:29Z</time></trkpt>
<trkpt lat="46.48923" lon="6.72298"><ele>413.8</ele><time>2024-06-12T15:12:32Z</time></trkpt>
<trkpt lat="46.48924" lon="6.72305"><ele>413.2</ele><time>2024-06-12T15:12:33Z</time></trkpt>
<trkpt lat="46.48927" lon="6.72322"><ele>412.2</ele><time>2024-06-12T15:12:35Z</time></trkpt>
<trkpt lat="46.48929" lon="6.72339"><ele>411.2</ele><time>2024-06-12T15:12:37Z</time></trkpt>
<trkpt lat="46.48933" lon="6.7236"><ele>409.4</ele><time>2024-06-12T15:12:40Z</time></trkpt>
<trkpt lat="46.48935" lon="6.72374"><ele>408.6</ele><time>2024-06-12T15:12:42Z</time></trkpt>
<trkpt lat="46.48936" lon="6.72381"><ele>408.4</ele><time>2024-06-12T15:12:43Z</time></trkpt>
<trkpt lat="46.48936" lon="6.724"><ele>407.8</ele><time>2024-06-12T15:12:45Z</time></trkpt>
<trkpt lat="46.48932" lon="6.72421"><ele>405.8</ele><time>2024-06-12T15:12:47Z</time></trkpt>
<trkpt lat="46.48926" lon="6.72442"><ele>404.2</ele><time>2024-06-12T15:12:49Z</time></trkpt>
<trkpt lat="46.48918" lon="6.72462"><ele>403.4</ele><time>2024-06-12T15:12:51Z</time></trkpt>
<trkpt lat="46.48914" lon="6.72472"><ele>402.6</ele><time>2024-06-12T15:12:52Z</time></trkpt>
<trkpt lat="46.48907" lon="6.72491"><ele>401.6</ele><time>2024-06-12T15:12:54Z</time></trkpt>
<trkpt lat="46.48901" lon="6.7251"><ele>400.2</ele><time>2024-06-12T15:12:56Z</time></trkpt>
<trkpt lat="46.489" lon="6.7252"><ele>399.6</ele><time>2024-06-12T15:12:57Z</time></trkpt>
<trkpt lat="46.489" lon="6.7253"><ele>399</ele><time>2024-06-12T15:12:58Z</time></trkpt>
<trkpt lat="46.48902" lon="6.72551"><ele>396.8</ele><time>2024-06-12T15:13:00Z</time></trkpt>
<trkpt lat="46.48904" lon="6.7256"><ele>395.2</ele><time>2024-06-12T15:13:01Z</time></trkpt>
<trkpt lat="46.48908" lon="6.7258"><ele>394</ele><time>2024-06-12T15:13:03Z</time></trkpt>
<trkpt lat="46.4891" lon="6.72611"><ele>393</ele><time>2024-06-12T15:13:06Z</time></trkpt>
<trkpt lat="46.48909" lon="6.7262"><ele>392.8</ele><time>2024-06-12T15:13:07Z</time></trkpt>
<trkpt lat="46.48908" lon="6.72654"><ele>391.6</ele><time>2024-06-12T15:13:11Z</time></trkpt>
<trkpt lat="46.48908" lon="6.72661"><ele>391</ele><time>2024-06-12T15:13:12Z</time></trkpt>
<trkpt lat="46.48907" lon="6.72675"><ele>390.6</ele><time>2024-06-12T15:13:14Z</time></trkpt>
<trkpt lat="46.48904" lon="6.72689"><ele>390.8</ele><time>2024-06-12T15:13:16Z</time></trkpt>
<trkpt lat="46.48905" lon="6.72697"><ele>391</ele><time>2024-06-12T15:13:17Z</time></trkpt>
<trkpt lat="46.48906" lon="6.72716"><ele>391.2</ele><time>2024-06-12T15:13:19Z</time></trkpt>
<trkpt lat="46.48905" lon="6.72733"><ele>391.2</ele><time>2024-06-12T15:13:21Z</time></trkpt>
<trkpt lat="46.48901" lon="6.72751"><ele>390.4</ele><time>2024-06-12T15:13:23Z</time></trkpt>
<trkpt lat="46.48898" lon="6.72759"><ele>390.2</ele><time>2024-06-12T15:13:24Z</time></trkpt>
<trkpt lat="46.48896" lon="6.72767"><ele>389.8</ele><time>2024-06-12T15:13:25Z</time></trkpt>
<trkpt lat="46.48896" lon="6.72775"><ele>389.4</ele><time>2024-06-12T15:13:26Z</time></trkpt>
<trkpt lat="46.48898" lon="6.72784"><ele>389</ele><time>2024-06-12T15:13:27Z</time></trkpt>
<trkpt lat="46.48905" lon="6.72816"><ele>388.4</ele><time>2024-06-12T15:13:32Z</time></trkpt>
<trkpt lat="46.48906" lon="6.72822"><ele>388.4</ele><time>2024-06-12T15:13:33Z</time></trkpt>
<trkpt lat="46.4891" lon="6.72842"><ele>389</ele><time>2024-06-12T15:13:37Z</time></trkpt>
<trkpt lat="46.48915" lon="6.72856"><ele>390</ele><time>2024-06-12T15:13:41Z</time></trkpt>
<trkpt lat="46.48916" lon="6.72861"><ele>390.4</ele><time>2024-06-12T15:13:43Z</time></trkpt>
<trkpt lat="46.4892" lon="6.72875"><ele>391.4</ele><time>2024-06-12T15:13:49Z</time></trkpt>
<trkpt lat="46.48921" lon="6.72878"><ele>391.4</ele><time>2024-06-12T15:13:50Z</time></trkpt>
<trkpt lat="46.48927" lon="6.72898"><ele>392.2</ele><time>2024-06-12T15:13:57Z</time></trkpt>
<trkpt lat="46.48928" lon="6.72901"><ele>392.6</ele><time>2024-06-12T15:13:58Z</time></trkpt>
<trkpt lat="46.48932" lon="6.72911"><ele>392.8</ele><time>2024-06-12T15:14:02Z</time></trkpt>
<trkpt lat="46.48934" lon="6.72917"><ele>393</ele><time>2024-06-12T15:14:04Z</time></trkpt>
<trkpt lat="46.48938" lon="6.72929"><ele>393.2</ele><time>2024-06-12T15:14:08Z</time></trkpt>
<trkpt lat="46.48944" lon="6.72946"><ele>393.6</ele><time>2024-06-12T15:14:14Z</time></trkpt>
<trkpt lat="46.48947" lon="6.72953"><ele>393.8</ele><time>2024-06-12T15:14:16Z</time></trkpt>
<trkpt lat="46.48952" lon="6.72967"><ele>393.8</ele><time>2024-06-12T15:14:20Z</time></trkpt>
<trkpt lat="46.48956" lon="6.72976"><ele>393.8</ele><time>2024-06-12T15:14:23Z</time></trkpt>
<trkpt lat="46.4896" lon="6.72988"><ele>393.8</ele><time>2024-06-12T15:14:26Z</time></trkpt>
<trkpt lat="46.48968" lon="6.7301"><ele>394</ele><time>2024-06-12T15:14:31Z</time></trkpt>
<trkpt lat="46.48977" lon="6.73033"><ele>393.8</ele><time>2024-06-12T15:14:36Z</time></trkpt>
<trkpt lat="46.48991" lon="6.73069"><ele>393.6</ele><time>2024-06-12T15:14:44Z</time></trkpt>
<trkpt lat="46.48995" lon="6.73083"><ele>394.8</ele><time>2024-06-12T15:14:49Z</time></trkpt>
<trkpt lat="46.49004" lon="6.73104"><ele>395.4</ele><time>2024-06-12T15:14:56Z</time></trkpt>
<trkpt lat="46.49007" lon="6.73113"><ele>395.8</ele><time>2024-06-12T15:14:59Z</time></trkpt>
<trkpt lat="46.49011" lon="6.73124"><ele>396.2</ele><time>2024-06-12T15:15:02Z</time></trkpt>
<trkpt lat="46.49024" lon="6.73151"><ele>396.6</ele><time>2024-06-12T15:15:08Z</time></trkpt>
<trkpt lat="46.49032" lon="6.73183"><ele>395.8</ele><time>2024-06-12T15:15:13Z</time></trkpt>
<trkpt lat="46.49034" lon="6.7319"><ele>395.8</ele><time>2024-06-12T15:15:14Z</time></trkpt>
<trkpt lat="46.49045" lon="6.73233"><ele>394.6</ele><time>2024-06-12T15:15:19Z</time></trkpt>
<trkpt lat="46.49047" lon="6.73242"><ele>394.2</ele><time>2024-06-12T15:15:20Z</time></trkpt>
<trkpt lat="46.49051" lon="6.73261"><ele>393.4</ele><time>2024-06-12T15:15:22Z</time></trkpt>
<trkpt lat="46.49058" lon="6.73297"><ele>392.4</ele><time>2024-06-12T15:15:26Z</time></trkpt>
<trkpt lat="46.49063" lon="6.73323"><ele>392</ele><time>2024-06-12T15:15:29Z</time></trkpt>
<trkpt lat="46.49079" lon="6.73365"><ele>392.2</ele><time>2024-06-12T15:15:35Z</time></trkpt>
<trkpt lat="46.49092" lon="6.73409"><ele>392</ele><time>2024-06-12T15:15:42Z</time></trkpt>
<trkpt lat="46.49103" lon="6.73457"><ele>392.8</ele><time>2024-06-12T15:15:50Z</time></trkpt>
<trkpt lat="46.49104" lon="6.73463"><ele>393</ele><time>2024-06-12T15:15:51Z</time></trkpt>
<trkpt lat="46.49105" lon="6.73475"><ele>393</ele><time>2024-06-12T15:15:53Z</time></trkpt>
<trkpt lat="46.49113" lon="6.73522"><ele>393.4</ele><time>2024-06-12T15:16:01Z</time></trkpt>
<trkpt lat="46.49115" lon="6.73528"><ele>393.4</ele><time>2024-06-12T15:16:02Z</time></trkpt>
<trkpt lat="46.49125" lon="6.73554"><ele>394.4</ele><time>2024-06-12T15:16:08Z</time></trkpt>
<trkpt lat="46.49126" lon="6.73557"><ele>394.6</ele><time>2024-06-12T15:16:09Z</time></trkpt>
<trkpt lat="46.49129" lon="6.73569"><ele>395.6</ele><time>2024-06-12T15:16:13Z</time></trkpt>
<trkpt lat="46.4913" lon="6.73577"><ele>396.2</ele><time>2024-06-12T15:16:16Z</time></trkpt>
<trkpt lat="46.49131" lon="6.73586"><ele>396.6</ele><time>2024-06-12T15:16:19Z</time></trkpt>
<trkpt lat="46.49131" lon="6.73602"><ele>397.6</ele><time>2024-06-12T15:16:24Z</time></trkpt>
<trkpt lat="46.4913" lon="6.73604"><ele>397.6</ele><time>2024-06-12T15:16:25Z</time></trkpt>
<trkpt lat="46.4913" lon="6.73616"><ele>398.4</ele><time>2024-06-12T15:16:29Z</time></trkpt>
<trkpt lat="46.4913" lon="6.73622"><ele>398.8</ele><time>2024-06-12T15:16:31Z</time></trkpt>
<trkpt lat="46.49131" lon="6.73624"><ele>399</ele><time>2024-06-12T15:16:32Z</time></trkpt>
<trkpt lat="46.4913" lon="6.73636"><ele>400</ele><time>2024-06-12T15:16:37Z</time></trkpt>
<trkpt lat="46.4913" lon="6.73641"><ele>400</ele><time>2024-06-12T15:16:39Z</time></trkpt>
<trkpt lat="46.49132" lon="6.73653"><ele>401</ele><time>2024-06-12T15:16:45Z</time></trkpt>
<trkpt lat="46.49134" lon="6.73654"><ele>401.2</ele><time>2024-06-12T15:16:46Z</time></trkpt>
<trkpt lat="46.49136" lon="6.73653"><ele>401.2</ele><time>2024-06-12T15:16:48Z</time></trkpt>
<trkpt lat="46.49136" lon="6.73648"><ele>401.2</ele><time>2024-06-12T15:16:50Z</time></trkpt>
<trkpt lat="46.49133" lon="6.73643"><ele>401.2</ele><time>2024-06-12T15:16:52Z</time></trkpt>
<trkpt lat="46.4913" lon="6.73644"><ele>401</ele><time>2024-06-12T15:16:54Z</time></trkpt>
<trkpt lat="46.4913" lon="6.73653"><ele>400.8</ele><time>2024-06-12T15:16:59Z</time></trkpt>
<trkpt lat="46.49132" lon="6.73672"><ele>401</ele><time>2024-06-12T15:17:04Z</time></trkpt>
<trkpt lat="46.49134" lon="6.737"><ele>400.6</ele><time>2024-06-12T15:17:09Z</time></trkpt>
<trkpt lat="46.49134" lon="6.73713"><ele>400.6</ele><time>2024-06-12T15:17:11Z</time></trkpt>
<trkpt lat="46.49132" lon="6.73754"><ele>400.4</ele><time>2024-06-12T15:17:18Z</time></trkpt>
<trkpt lat="46.49124" lon="6.73806"><ele>401.4</ele><time>2024-06-12T15:17:28Z</time></trkpt>
<trkpt lat="46.49117" lon="6.73858"><ele>401.8</ele><time>2024-06-12T15:17:38Z</time></trkpt>
<trkpt lat="46.49115" lon="6.73868"><ele>402.2</ele><time>2024-06-12T15:17:40Z</time></trkpt>
<trkpt lat="46.49108" lon="6.73894"><ele>402.6</ele><time>2024-06-12T15:17:46Z</time></trkpt>
<trkpt lat="46.49107" lon="6.73907"><ele>403.2</ele><time>2024-06-12T15:17:51Z</time></trkpt>
<trkpt lat="46.49112" lon="6.73919"><ele>404.2</ele><time>2024-06-12T15:17:58Z</time></trkpt>
<trkpt lat="46.49113" lon="6.73921"><ele>404.4</ele><time>2024-06-12T15:17:59Z</time></trkpt>
<trkpt lat="46.49116" lon="6.73927"><ele>405.2</ele><time>2024-06-12T15:18:04Z</time></trkpt>
<trkpt lat="46.49116" lon="6.73929"><ele>405.2</ele><time>2024-06-12T15:18:05Z</time></trkpt>
<trkpt lat="46.49117" lon="6.7393"><ele>405.4</ele><time>2024-06-12T15:18:06Z</time></trkpt>
<trkpt lat="46.49121" lon="6.73936"><ele>406.2</ele><time>2024-06-12T15:18:12Z</time></trkpt>
<trkpt lat="46.49123" lon="6.73939"><ele>406.4</ele><time>2024-06-12T15:18:14Z</time></trkpt>
<trkpt lat="46.49127" lon="6.73945"><ele>407.4</ele><time>2024-06-12T15:18:19Z</time></trkpt>
<trkpt lat="46.49129" lon="6.73948"><ele>407.8</ele><time>2024-06-12T15:18:21Z</time></trkpt>
<trkpt lat="46.49131" lon="6.73949"><ele>408.2</ele><time>2024-06-12T15:18:23Z</time></trkpt>
<trkpt lat="46.49132" lon="6.7395"><ele>408.6</ele><time>2024-06-12T15:18:24Z</time></trkpt>
<trkpt lat="46.49133" lon="6.73951"><ele>408.6</ele><time>2024-06-12T15:18:25Z</time></trkpt>
<trkpt lat="46.49137" lon="6.73955"><ele>409.6</ele><time>2024-06-12T15:18:29Z</time></trkpt>
<trkpt lat="46.49137" lon="6.7396"><ele>410.2</ele><time>2024-06-12T15:18:32Z</time></trkpt>
<trkpt lat="46.49138" lon="6.73962"><ele>410.8</ele><time>2024-06-12T15:18:34Z</time></trkpt>
<trkpt lat="46.49141" lon="6.73969"><ele>411.4</ele><time>2024-06-12T15:18:39Z</time></trkpt>
<trkpt lat="46.49142" lon="6.7397"><ele>411.8</ele><time>2024-06-12T15:18:40Z</time></trkpt>
<trkpt lat="46.49144" lon="6.73974"><ele>412.6</ele><time>2024-06-12T15:18:44Z</time></trkpt>
<trkpt lat="46.49145" lon="6.73976"><ele>412.6</ele><time>2024-06-12T15:18:45Z</time></trkpt>
<trkpt lat="46.49146" lon="6.73977"><ele>412.8</ele><time>2024-06-12T15:18:46Z</time></trkpt>
<trkpt lat="46.49146" lon="6.73983"><ele>413.6</ele><time>2024-06-12T15:18:50Z</time></trkpt>
<trkpt lat="46.49147" lon="6.73984"><ele>413.8</ele><time>2024-06-12T15:18:51Z</time></trkpt>
<trkpt lat="46.49148" lon="6.73985"><ele>414</ele><time>2024-06-12T15:18:52Z</time></trkpt>
<trkpt lat="46.49149" lon="6.73988"><ele>414.8</ele><time>2024-06-12T15:18:55Z</time></trkpt>
<trkpt lat="46.49149" lon="6.7399"><ele>415.2</ele><time>2024-06-12T15:18:57Z</time></trkpt>
<trkpt lat="46.49148" lon="6.73994"><ele>415.6</ele><time>2024-06-12T15:19:00Z</time></trkpt>
<trkpt lat="46.4915" lon="6.73997"><ele>415.8</ele><time>2024-06-12T15:19:03Z</time></trkpt>
<trkpt lat="46.49151" lon="6.73999"><ele>416.2</ele><time>2024-06-12T15:19:05Z</time></trkpt>
<trkpt lat="46.49151" lon="6.74"><ele>416.6</ele><time>2024-06-12T15:19:06Z</time></trkpt>
<trkpt lat="46.4915" lon="6.74003"><ele>416.8</ele><time>2024-06-12T15:19:08Z</time></trkpt>
<trkpt lat="46.4915" lon="6.74006"><ele>417.4</ele><time>2024-06-12T15:19:11Z</time></trkpt>
<trkpt lat="46.4915" lon="6.74007"><ele>417.4</ele><time>2024-06-12T15:19:12Z</time></trkpt>
<trkpt lat="46.49152" lon="6.74007"><ele>417.6</ele><time>2024-06-12T15:19:13Z</time></trkpt>
<trkpt lat="46.49153" lon="6.74009"><ele>417.6</ele><time>2024-06-12T15:19:15Z</time></trkpt>
<trkpt lat="46.49152" lon="6.7401"><ele>418</ele><time>2024-06-12T15:19:16Z</time></trkpt>
<trkpt lat="46.49152" lon="6.74012"><ele>418.4</ele><time>2024-06-12T15:19:18Z</time></trkpt>
<trkpt lat="46.4915" lon="6.74016"><ele>419</ele><time>2024-06-12T15:19:22Z</time></trkpt>
<trkpt lat="46.4915" lon="6.74017"><ele>419</ele><time>2024-06-12T15:19:23Z</time></trkpt>
<trkpt lat="46.49151" lon="6.74018"><ele>419.4</ele><time>2024-06-12T15:19:25Z</time></trkpt>
<trkpt lat="46.49152" lon="6.74019"><ele>419.6</ele><time>2024-06-12T15:19:26Z</time></trkpt>
<trkpt lat="46.49153" lon="6.74021"><ele>419.8</ele><time>2024-06-12T15:19:28Z</time></trkpt>
<trkpt lat="46.49152" lon="6.74023"><ele>420</ele><time>2024-06-12T15:19:29Z</time></trkpt>
<trkpt lat="46.49151" lon="6.74024"><ele>420.2</ele><time>2024-06-12T15:19:30Z</time></trkpt>
<trkpt lat="46.49151" lon="6.74025"><ele>420.4</ele><time>2024-06-12T15:19:31Z</time></trkpt>
<trkpt lat="46.49151" lon="6.74026"><ele>420.6</ele><time>2024-06-12T15:19:32Z</time></trkpt>
<trkpt lat="46.4915" lon="6.74029"><ele>420.8</ele><time>2024-06-12T15:19:35Z</time></trkpt>
<trkpt lat="46.4915" lon="6.74031"><ele>421.4</ele><time>2024-06-12T15:19:37Z</time></trkpt>
<trkpt lat="46.49149" lon="6.74033"><ele>421.6</ele><time>2024-06-12T15:19:38Z</time></trkpt>
<trkpt lat="46.49149" lon="6.74034"><ele>421.8</ele><time>2024-06-12T15:19:39Z</time></trkpt>
<trkpt lat="46.49149" lon="6.74036"><ele>422.2</ele><time>2024-06-12T15:19:41Z</time></trkpt>
<trkpt lat="46.49149" lon="6.74039"><ele>422.6</ele><time>2024-06-12T15:19:44Z</time></trkpt>
<trkpt lat="46.4915" lon="6.74041"><ele>422.8</ele><time>2024-06-12T15:19:46Z</time></trkpt>
<trkpt lat="46.49149" lon="6.74043"><ele>423</ele><time>2024-06-12T15:19:47Z</time></trkpt>
<trkpt lat="46.4915" lon="6.74046"><ele>423.4</ele><time>2024-06-12T15:19:49Z</time></trkpt>
<trkpt lat="46.49152" lon="6.7405"><ele>423.8</ele><time>2024-06-12T15:19:53Z</time></trkpt>
<trkpt lat="46.49151" lon="6.74051"><ele>424</ele><time>2024-06-12T15:19:54Z</time></trkpt>
<trkpt lat="46.4915" lon="6.74055"><ele>424.6</ele><time>2024-06-12T15:19:58Z</time></trkpt>
<trkpt lat="46.49152" lon="6.7406"><ele>425</ele><time>2024-06-12T15:20:02Z</time></trkpt>
<trkpt lat="46.49152" lon="6.74062"><ele>425.2</ele><time>2024-06-12T15:20:03Z</time></trkpt>
<trkpt lat="46.49152" lon="6.74067"><ele>426.2</ele><time>2024-06-12T15:20:07Z</time></trkpt>
<trkpt lat="46.49152" lon="6.74068"><ele>426.2</ele><time>2024-06-12T15:20:08Z</time></trkpt>
<trkpt lat="46.49152" lon="6.7407"><ele>426.4</ele><time>2024-06-12T15:20:09Z</time></trkpt>
<trkpt lat="46.49152" lon="6.74071"><ele>426.6</ele><time>2024-06-12T15:20:10Z</time></trkpt>
<trkpt lat="46.49153" lon="6.74075"><ele>427.2</ele><time>2024-06-12T15:20:14Z</time></trkpt>
<trkpt lat="46.49154" lon="6.74078"><ele>427.8</ele><time>2024-06-12T15:20:17Z</time></trkpt>
<trkpt lat="46.49155" lon="6.7408"><ele>428.2</ele><time>2024-06-12T15:20:20Z</time></trkpt>
<trkpt lat="46.49155" lon="6.74084"><ele>428.6</ele><time>2024-06-12T15:20:23Z</time></trkpt>
<trkpt lat="46.49153" lon="6.74086"><ele>428.8</ele><time>2024-06-12T15:20:25Z</time></trkpt>
<trkpt lat="46.49153" lon="6.74088"><ele>429.4</ele><time>2024-06-12T15:20:27Z</time></trkpt>
<trkpt lat="46.49154" lon="6.74093"><ele>429.6</ele><time>2024-06-12T15:20:31Z</time></trkpt>
<trkpt lat="46.49155" lon="6.74094"><ele>429.8</ele><time>2024-06-12T15:20:32Z</time></trkpt>
<trkpt lat="46.49156" lon="6.74096"><ele>430</ele><time>2024-06-12T15:20:34Z</time></trkpt>
<trkpt lat="46.49158" lon="6.74099"><ele>430.4</ele><time>2024-06-12T15:20:37Z</time></trkpt>
<trkpt lat="46.49159" lon="6.741"><ele>430.6</ele><time>2024-06-12T15:20:38Z</time></trkpt>
<trkpt lat="46.4916" lon="6.74102"><ele>431</ele><time>2024-06-12T15:20:40Z</time></trkpt>
<trkpt lat="46.49159" lon="6.74105"><ele>431.2</ele><time>2024-06-12T15:20:42Z</time></trkpt>
<trkpt lat="46.49159" lon="6.74108"><ele>431.2</ele><time>2024-06-12T15:20:44Z</time></trkpt>
<trkpt lat="46.49159" lon="6.7411"><ele>431.4</ele><time>2024-06-12T15:20:46Z</time></trkpt>
<trkpt lat="46.49163" lon="6.74114"><ele>432</ele><time>2024-06-12T15:20:50Z</time></trkpt>
<trkpt lat="46.49165" lon="6.74117"><ele>432.6</ele><time>2024-06-12T15:20:53Z</time></trkpt>
<trkpt lat="46.49167" lon="6.74121"><ele>433</ele><time>2024-06-12T15:20:57Z</time></trkpt>
<trkpt lat="46.49168" lon="6.74123"><ele>433</ele><time>2024-06-12T15:20:58Z</time></trkpt>
<trkpt lat="46.49167" lon="6.7413"><ele>433.6</ele><time>2024-06-12T15:21:02Z</time></trkpt>
<trkpt lat="46.49167" lon="6.74132"><ele>433.6</ele><time>2024-06-12T15:21:03Z</time></trkpt>
<trkpt lat="46.49169" lon="6.7414"><ele>434.2</ele><time>2024-06-12T15:21:09Z</time></trkpt>
<trkpt lat="46.49171" lon="6.74144"><ele>434.8</ele><time>2024-06-12T15:21:12Z</time></trkpt>
<trkpt lat="46.49171" lon="6.74151"><ele>435.4</ele><time>2024-06-12T15:21:17Z</time></trkpt>
<trkpt lat="46.49172" lon="6.74157"><ele>435.8</ele><time>2024-06-12T15:21:21Z</time></trkpt>
<trkpt lat="46.49173" lon="6.7416"><ele>436.2</ele><time>2024-06-12T15:21:23Z</time></trkpt>
<trkpt lat="46.49172" lon="6.74165"><ele>436.8</ele><time>2024-06-12T15:21:27Z</time></trkpt>
<trkpt lat="46.49173" lon="6.7417"><ele>437.2</ele><time>2024-06-12T15:21:30Z</time></trkpt>
<trkpt lat="46.49175" lon="6.74179"><ele>437.8</ele><time>2024-06-12T15:21:35Z</time></trkpt>
<trkpt lat="46.49176" lon="6.74183"><ele>438.2</ele><time>2024-06-12T15:21:38Z</time></trkpt>
<trkpt lat="46.49176" lon="6.74196"><ele>438.8</ele><time>2024-06-12T15:21:45Z</time></trkpt>
<trkpt lat="46.49176" lon="6.74198"><ele>439</ele><time>2024-06-12T15:21:46Z</time></trkpt>
<trkpt lat="46.4918" lon="6.74214"><ele>440</ele><time>2024-06-12T15:21:56Z</time></trkpt>
<trkpt lat="46.4918" lon="6.74225"><ele>440.6</ele><time>2024-06-12T15:22:02Z</time></trkpt>
<trkpt lat="46.49183" lon="6.74233"><ele>441</ele><time>2024-06-12T15:22:07Z</time></trkpt>
<trkpt lat="46.49184" lon="6.74238"><ele>441.2</ele><time>2024-06-12T15:22:10Z</time></trkpt>
<trkpt lat="46.49185" lon="6.74253"><ele>442.2</ele><time>2024-06-12T15:22:18Z</time></trkpt>
<trkpt lat="46.49188" lon="6.74264"><ele>442.6</ele><time>2024-06-12T15:22:24Z</time></trkpt>
<trkpt lat="46.49189" lon="6.7427"><ele>443.2</ele><time>2024-06-12T15:22:28Z</time></trkpt>
<trkpt lat="46.49189" lon="6.74272"><ele>443.4</ele><time>2024-06-12T15:22:29Z</time></trkpt>
<trkpt lat="46.49189" lon="6.74276"><ele>443.6</ele><time>2024-06-12T15:22:31Z</time></trkpt>
<trkpt lat="46.49191" lon="6.74288"><ele>444.4</ele><time>2024-06-12T15:22:38Z</time></trkpt>
<trkpt lat="46.49192" lon="6.74289"><ele>444.4</ele><time>2024-06-12T15:22:39Z</time></trkpt>
<trkpt lat="46.49193" lon="6.74301"><ele>445.4</ele><time>2024-06-12T15:22:46Z</time></trkpt>
<trkpt lat="46.49193" lon="6.74302"><ele>445.4</ele><time>2024-06-12T15:22:47Z</time></trkpt>
<trkpt lat="46.49195" lon="6.74315"><ele>446.2</ele><time>2024-06-12T15:22:55Z</time></trkpt>
<trkpt lat="46.49195" lon="6.74317"><ele>446.4</ele><time>2024-06-12T15:22:56Z</time></trkpt>
<trkpt lat="46.49195" lon="6.74323"><ele>447</ele><time>2024-06-12T15:23:01Z</time></trkpt>
<trkpt lat="46.49197" lon="6.74327"><ele>447.6</ele><time>2024-06-12T15:23:04Z</time></trkpt>
<trkpt lat="46.49196" lon="6.74331"><ele>448</ele><time>2024-06-12T15:23:07Z</time></trkpt>
<trkpt lat="46.49195" lon="6.74337"><ele>448.6</ele><time>2024-06-12T15:23:11Z</time></trkpt>
<trkpt lat="46.49194" lon="6.74341"><ele>449</ele><time>2024-06-12T15:23:14Z</time></trkpt>
<trkpt lat="46.49194" lon="6.74344"><ele>449.6</ele><time>2024-06-12T15:23:16Z</time></trkpt>
<trkpt lat="46.49194" lon="6.74345"><ele>449.8</ele><time>2024-06-12T15:23:17Z</time></trkpt>
<trkpt lat="46.49194" lon="6.7435"><ele>450.6</ele><time>2024-06-12T15:23:21Z</time></trkpt>
<trkpt lat="46.49194" lon="6.74351"><ele>451</ele><time>2024-06-12T15:23:22Z</time></trkpt>
<trkpt lat="46.49194" lon="6.74359"><ele>452</ele><time>2024-06-12T15:23:27Z</time></trkpt>
<trkpt lat="46.49194" lon="6.74362"><ele>452.4</ele><time>2024-06-12T15:23:29Z</time></trkpt>
<trkpt lat="46.49193" lon="6.74365"><ele>453</ele><time>2024-06-12T15:23:32Z</time></trkpt>
<trkpt lat="46.49194" lon="6.74369"><ele>453.4</ele><time>2024-06-12T15:23:35Z</time></trkpt>
<trkpt lat="46.49197" lon="6.74371"><ele>453.8</ele><time>2024-06-12T15:23:38Z</time></trkpt>
<trkpt lat="46.492" lon="6.74371"><ele>454.2</ele><time>2024-06-12T15:23:40Z</time></trkpt>
<trkpt lat="46.49201" lon="6.74372"><ele>454.4</ele><time>2024-06-12T15:23:41Z</time></trkpt>
<trkpt lat="46.49205" lon="6.74375"><ele>455.2</ele><time>2024-06-12T15:23:45Z</time></trkpt>
<trkpt lat="46.49207" lon="6.74376"><ele>455.6</ele><time>2024-06-12T15:23:47Z</time></trkpt>
<trkpt lat="46.49209" lon="6.74376"><ele>456.2</ele><time>2024-06-12T15:23:49Z</time></trkpt>
<trkpt lat="46.4921" lon="6.74377"><ele>456.4</ele><time>2024-06-12T15:23:50Z</time></trkpt>
<trkpt lat="46.49214" lon="6.74378"><ele>457.4</ele><time>2024-06-12T15:23:55Z</time></trkpt>
<trkpt lat="46.49215" lon="6.74379"><ele>457.8</ele><time>2024-06-12T15:23:56Z</time></trkpt>
<trkpt lat="46.49217" lon="6.74381"><ele>459</ele><time>2024-06-12T15:23:59Z</time></trkpt>
<trkpt lat="46.49219" lon="6.74384"><ele>459.4</ele><time>2024-06-12T15:24:03Z</time></trkpt>
<trkpt lat="46.49224" lon="6.74386"><ele>460</ele><time>2024-06-12T15:24:07Z</time></trkpt>
<trkpt lat="46.49227" lon="6.74387"><ele>460.6</ele><time>2024-06-12T15:24:10Z</time></trkpt>
<trkpt lat="46.49229" lon="6.74388"><ele>461.2</ele><time>2024-06-12T15:24:12Z</time></trkpt>
<trkpt lat="46.4923" lon="6.7439"><ele>461.4</ele><time>2024-06-12T15:24:13Z</time></trkpt>
<trkpt lat="46.4923" lon="6.74395"><ele>461.6</ele><time>2024-06-12T15:24:15Z</time></trkpt>
<trkpt lat="46.4923" lon="6.7442"><ele>461.6</ele><time>2024-06-12T15:24:21Z</time></trkpt>
<trkpt lat="46.49233" lon="6.74432"><ele>461.4</ele><time>2024-06-12T15:24:23Z</time></trkpt>
<trkpt lat="46.49241" lon="6.74446"><ele>460.8</ele><time>2024-06-12T15:24:25Z</time></trkpt>
<trkpt lat="46.49249" lon="6.7446"><ele>460</ele><time>2024-06-12T15:24:27Z</time></trkpt>
<trkpt lat="46.49252" lon="6.74468"><ele>459.8</ele><time>2024-06-12T15:24:28Z</time></trkpt>
<trkpt lat="46.49254" lon="6.74485"><ele>459.6</ele><time>2024-06-12T15:24:30Z</time></trkpt>
<trkpt lat="46.49253" lon="6.74499"><ele>459.6</ele><time>2024-06-12T15:24:32Z</time></trkpt>
<trkpt lat="46.49251" lon="6.74505"><ele>459.6</ele><time>2024-06-12T15:24:33Z</time></trkpt>
<trkpt lat="46.49238" lon="6.74522"><ele>460.8</ele><time>2024-06-12T15:24:38Z</time></trkpt>
<trkpt lat="46.49233" lon="6.74528"><ele>461.6</ele><time>2024-06-12T15:24:40Z</time></trkpt>
<trkpt lat="46.49216" lon="6.74543"><ele>461.4</ele><time>2024-06-12T15:24:45Z</time></trkpt>
<trkpt lat="46.49201" lon="6.74564"><ele>460.6</ele><time>2024-06-12T15:24:49Z</time></trkpt>
<trkpt lat="46.49197" lon="6.74572"><ele>460.4</ele><time>2024-06-12T15:24:50Z</time></trkpt>
<trkpt lat="46.49195" lon="6.74579"><ele>460</ele><time>2024-06-12T15:24:51Z</time></trkpt>
<trkpt lat="46.49192" lon="6.74597"><ele>459.4</ele><time>2024-06-12T15:24:54Z</time></trkpt>
<trkpt lat="46.49192" lon="6.74602"><ele>459.4</ele><time>2024-06-12T15:24:55Z</time></trkpt>
<trkpt lat="46.49189" lon="6.74634"><ele>459.4</ele><time>2024-06-12T15:25:01Z</time></trkpt>
<trkpt lat="46.49187" lon="6.74647"><ele>459.4</ele><time>2024-06-12T15:25:03Z</time></trkpt>
<trkpt lat="46.49184" lon="6.7467"><ele>459</ele><time>2024-06-12T15:25:06Z</time></trkpt>
<trkpt lat="46.49183" lon="6.74677"><ele>459</ele><time>2024-06-12T15:25:07Z</time></trkpt>
<trkpt lat="46.49181" lon="6.74685"><ele>459</ele><time>2024-06-12T15:25:08Z</time></trkpt>
<trkpt lat="46.49174" lon="6.74713"><ele>458.6</ele><time>2024-06-12T15:25:12Z</time></trkpt>
<trkpt lat="46.49172" lon="6.7472"><ele>458.6</ele><time>2024-06-12T15:25:13Z</time></trkpt>
<trkpt lat="46.49168" lon="6.74733"><ele>458.4</ele><time>2024-06-12T15:25:15Z</time></trkpt>
<trkpt lat="46.49163" lon="6.74749"><ele>458.6</ele><time>2024-06-12T15:25:18Z</time></trkpt>
<trkpt lat="46.49152" lon="6.74769"><ele>459</ele><time>2024-06-12T15:25:23Z</time></trkpt>
<trkpt lat="46.49147" lon="6.74776"><ele>459.2</ele><time>2024-06-12T15:25:25Z</time></trkpt>
<trkpt lat="46.49128" lon="6.74795"><ele>459.2</ele><time>2024-06-12T15:25:32Z</time></trkpt>
<trkpt lat="46.4912" lon="6.74815"><ele>460</ele><time>2024-06-12T15:25:37Z</time></trkpt>
<trkpt lat="46.49114" lon="6.74826"><ele>460.4</ele><time>2024-06-12T15:25:40Z</time></trkpt>
<trkpt lat="46.49108" lon="6.74833"><ele>460.8</ele><time>2024-06-12T15:25:43Z</time></trkpt>
<trkpt lat="46.49101" lon="6.74845"><ele>461.4</ele><time>2024-06-12T15:25:47Z</time></trkpt>
<trkpt lat="46.49093" lon="6.74855"><ele>461.8</ele><time>2024-06-12T15:25:51Z</time></trkpt>
<trkpt lat="46.49075" lon="6.7486"><ele>462.2</ele><time>2024-06-12T15:25:57Z</time></trkpt>
<trkpt lat="46.49068" lon="6.74862"><ele>462.6</ele><time>2024-06-12T15:26:00Z</time></trkpt>
<trkpt lat="46.49063" lon="6.74865"><ele>463.6</ele><time>2024-06-12T15:26:03Z</time></trkpt>
<trkpt lat="46.49051" lon="6.74871"><ele>464.8</ele><time>2024-06-12T15:26:09Z</time></trkpt>
<trkpt lat="46.49049" lon="6.74872"><ele>464.8</ele><time>2024-06-12T15:26:10Z</time></trkpt>
<trkpt lat="46.49043" lon="6.74876"><ele>464.8</ele><time>2024-06-12T15:26:13Z</time></trkpt>
<trkpt lat="46.49041" lon="6.74877"><ele>464.8</ele><time>2024-06-12T15:26:14Z</time></trkpt>
<trkpt lat="46.49035" lon="6.74886"><ele>464.8</ele><time>2024-06-12T15:26:18Z</time></trkpt>
<trkpt lat="46.49033" lon="6.74898"><ele>465.2</ele><time>2024-06-12T15:26:24Z</time></trkpt>
<trkpt lat="46.49034" lon="6.749"><ele>465.2</ele><time>2024-06-12T15:26:25Z</time></trkpt>
<trkpt lat="46.49033" lon="6.74901"><ele>465.4</ele><time>2024-06-12T15:26:26Z</time></trkpt>
<trkpt lat="46.49031" lon="6.74907"><ele>465.6</ele><time>2024-06-12T15:26:29Z</time></trkpt>
<trkpt lat="46.49031" lon="6.7492"><ele>465.4</ele><time>2024-06-12T15:26:34Z</time></trkpt>
<trkpt lat="46.49032" lon="6.74921"><ele>465.4</ele><time>2024-06-12T15:26:35Z</time></trkpt>
<trkpt lat="46.49033" lon="6.74925"><ele>465.2</ele><time>2024-06-12T15:26:38Z</time></trkpt>
<trkpt lat="46.49032" lon="6.74931"><ele>465</ele><time>2024-06-12T15:26:40Z</time></trkpt>
<trkpt lat="46.49024" lon="6.74957"><ele>465</ele><time>2024-06-12T15:26:47Z</time></trkpt>
<trkpt lat="46.49019" lon="6.74977"><ele>465.8</ele><time>2024-06-12T15:26:54Z</time></trkpt>
<trkpt lat="46.49018" lon="6.74982"><ele>466</ele><time>2024-06-12T15:26:56Z</time></trkpt>
<trkpt lat="46.49015" lon="6.74993"><ele>466.8</ele><time>2024-06-12T15:27:01Z</time></trkpt>
<trkpt lat="46.49014" lon="6.74997"><ele>467</ele><time>2024-06-12T15:27:03Z</time></trkpt>
<trkpt lat="46.49011" lon="6.75006"><ele>467.8</ele><time>2024-06-12T15:27:08Z</time></trkpt>
<trkpt lat="46.49005" lon="6.75015"><ele>468.2</ele><time>2024-06-12T15:27:12Z</time></trkpt>
<trkpt lat="46.49002" lon="6.75016"><ele>468.2</ele><time>2024-06-12T15:27:14Z</time></trkpt>
<trkpt lat="46.48992" lon="6.75021"><ele>468.4</ele><time>2024-06-12T15:27:20Z</time></trkpt>
<trkpt lat="46.48989" lon="6.75031"><ele>468.4</ele><time>2024-06-12T15:27:25Z</time></trkpt>
<trkpt lat="46.48988" lon="6.75033"><ele>468.4</ele><time>2024-06-12T15:27:26Z</time></trkpt>
<trkpt lat="46.48987" lon="6.75035"><ele>468.4</ele><time>2024-06-12T15:27:27Z</time></trkpt>
<trkpt lat="46.48984" lon="6.75036"><ele>468.4</ele><time>2024-06-12T15:27:29Z</time></trkpt>
<trkpt lat="46.48983" lon="6.75036"><ele>468.4</ele><time>2024-06-12T15:27:30Z</time></trkpt>
<trkpt lat="46.48977" lon="6.75042"><ele>468.4</ele><time>2024-06-12T15:27:34Z</time></trkpt>
<trkpt lat="46.48971" lon="6.75046"><ele>468.6</ele><time>2024-06-12T15:27:37Z</time></trkpt>
<trkpt lat="46.48966" lon="6.7505"><ele>469</ele><time>2024-06-12T15:27:40Z</time></trkpt>
<trkpt lat="46.48963" lon="6.75053"><ele>469.2</ele><time>2024-06-12T15:27:42Z</time></trkpt>
<trkpt lat="46.48953" lon="6.75066"><ele>469.8</ele><time>2024-06-12T15:27:48Z</time></trkpt>
<trkpt lat="46.48944" lon="6.75087"><ele>470.2</ele><time>2024-06-12T15:27:55Z</time></trkpt>
<trkpt lat="46.48943" lon="6.7509"><ele>470.2</ele><time>2024-06-12T15:27:56Z</time></trkpt>
<trkpt lat="46.48941" lon="6.75119"><ele>470.8</ele><time>2024-06-12T15:28:04Z</time></trkpt>
<trkpt lat="46.4894" lon="6.75135"><ele>471.2</ele><time>2024-06-12T15:28:08Z</time></trkpt>
<trkpt lat="46.48938" lon="6.75164"><ele>472</ele><time>2024-06-12T15:28:15Z</time></trkpt>
<trkpt lat="46.48937" lon="6.75171"><ele>472.2</ele><time>2024-06-12T15:28:18Z</time></trkpt>
<trkpt lat="46.4893" lon="6.75189"><ele>472.8</ele><time>2024-06-12T15:28:23Z</time></trkpt>
<trkpt lat="46.48918" lon="6.75203"><ele>473.4</ele><time>2024-06-12T15:28:27Z</time></trkpt>
<trkpt lat="46.4891" lon="6.75211"><ele>473.8</ele><time>2024-06-12T15:28:31Z</time></trkpt>
<trkpt lat="46.48901" lon="6.75219"><ele>474.4</ele><time>2024-06-12T15:28:35Z</time></trkpt>
<trkpt lat="46.48886" lon="6.75231"><ele>475.2</ele><time>2024-06-12T15:28:41Z</time></trkpt>
<trkpt lat="46.48882" lon="6.75234"><ele>475.6</ele><time>2024-06-12T15:28:43Z</time></trkpt>
<trkpt lat="46.48867" lon="6.7525"><ele>476.2</ele><time>2024-06-12T15:28:50Z</time></trkpt>
<trkpt lat="46.48859" lon="6.75261"><ele>476.6</ele><time>2024-06-12T15:28:54Z</time></trkpt>
<trkpt lat="46.48848" lon="6.75279"><ele>477</ele><time>2024-06-12T15:29:00Z</time></trkpt>
<trkpt lat="46.48837" lon="6.75299"><ele>477.6</ele><time>2024-06-12T15:29:06Z</time></trkpt>
<trkpt lat="46.4883" lon="6.75314"><ele>477.8</ele><time>2024-06-12T15:29:11Z</time></trkpt>
<trkpt lat="46.48815" lon="6.75344"><ele>478.6</ele><time>2024-06-12T15:29:20Z</time></trkpt>
<trkpt lat="46.48811" lon="6.75349"><ele>478.8</ele><time>2024-06-12T15:29:22Z</time></trkpt>
<trkpt lat="46.48798" lon="6.75374"><ele>479.6</ele><time>2024-06-12T15:29:29Z</time></trkpt>
<trkpt lat="46.48797" lon="6.75378"><ele>479.8</ele><time>2024-06-12T15:29:30Z</time></trkpt>
<trkpt lat="46.48779" lon="6.7541"><ele>480.4</ele><time>2024-06-12T15:29:39Z</time></trkpt>
<trkpt lat="46.48771" lon="6.75424"><ele>480.8</ele><time>2024-06-12T15:29:43Z</time></trkpt>
<trkpt lat="46.48755" lon="6.75448"><ele>481.6</ele><time>2024-06-12T15:29:50Z</time></trkpt>
<trkpt lat="46.48749" lon="6.75456"><ele>481.8</ele><time>2024-06-12T15:29:53Z</time></trkpt>
<trkpt lat="46.48731" lon="6.75476"><ele>482.4</ele><time>2024-06-12T15:30:00Z</time></trkpt>
<trkpt lat="46.48716" lon="6.75493"><ele>482.8</ele><time>2024-06-12T15:30:06Z</time></trkpt>
<trkpt lat="46.48704" lon="6.75508"><ele>483.6</ele><time>2024-06-12T15:30:11Z</time></trkpt>
<trkpt lat="46.48682" lon="6.75537"><ele>484</ele><time>2024-06-12T15:30:21Z</time></trkpt>
<trkpt lat="46.48675" lon="6.75546"><ele>484.4</ele><time>2024-06-12T15:30:24Z</time></trkpt>
<trkpt lat="46.48665" lon="6.75562"><ele>485</ele><time>2024-06-12T15:30:29Z</time></trkpt>
<trkpt lat="46.48655" lon="6.75577"><ele>485.8</ele><time>2024-06-12T15:30:34Z</time></trkpt>
<trkpt lat="46.48652" lon="6.75583"><ele>486</ele><time>2024-06-12T15:30:36Z</time></trkpt>
<trkpt lat="46.48639" lon="6.75606"><ele>487.2</ele><time>2024-06-12T15:30:44Z</time></trkpt>
<trkpt lat="46.48637" lon="6.75608"><ele>487.2</ele><time>2024-06-12T15:30:45Z</time></trkpt>
<trkpt lat="46.48629" lon="6.75625"><ele>488.2</ele><time>2024-06-12T15:30:51Z</time></trkpt>
<trkpt lat="46.48616" lon="6.75646"><ele>489.4</ele><time>2024-06-12T15:30:59Z</time></trkpt>
<trkpt lat="46.48611" lon="6.75655"><ele>489.8</ele><time>2024-06-12T15:31:02Z</time></trkpt>
<trkpt lat="46.48606" lon="6.75666"><ele>490.6</ele><time>2024-06-12T15:31:06Z</time></trkpt>
<trkpt lat="46.48598" lon="6.75679"><ele>491.4</ele><time>2024-06-12T15:31:11Z</time></trkpt>
<trkpt lat="46.48597" lon="6.75682"><ele>491.6</ele><time>2024-06-12T15:31:12Z</time></trkpt>
<trkpt lat="46.48586" lon="6.757"><ele>492.6</ele><time>2024-06-12T15:31:19Z</time></trkpt>
<trkpt lat="46.48585" lon="6.75702"><ele>492.8</ele><time>2024-06-12T15:31:20Z</time></trkpt>
<trkpt lat="46.48577" lon="6.75715"><ele>493.8</ele><time>2024-06-12T15:31:25Z</time></trkpt>
<trkpt lat="46.48571" lon="6.75724"><ele>494.4</ele><time>2024-06-12T15:31:29Z</time></trkpt>
<trkpt lat="46.48569" lon="6.75727"><ele>494.8</ele><time>2024-06-12T15:31:31Z</time></trkpt>
<trkpt lat="46.48559" lon="6.75744"><ele>496</ele><time>2024-06-12T15:31:38Z</time></trkpt>
<trkpt lat="46.48552" lon="6.75757"><ele>496.8</ele><time>2024-06-12T15:31:42Z</time></trkpt>
<trkpt lat="46.48549" lon="6.75761"><ele>497</ele><time>2024-06-12T15:31:44Z</time></trkpt>
<trkpt lat="46.48537" lon="6.75781"><ele>498.2</ele><time>2024-06-12T15:31:53Z</time></trkpt>
<trkpt lat="46.48535" lon="6.75784"><ele>498.2</ele><time>2024-06-12T15:31:54Z</time></trkpt>
<trkpt lat="46.48525" lon="6.75801"><ele>499.4</ele><time>2024-06-12T15:32:02Z</time></trkpt>
<trkpt lat="46.48522" lon="6.75806"><ele>499.6</ele><time>2024-06-12T15:32:04Z</time></trkpt>
<trkpt lat="46.48515" lon="6.75818"><ele>500.4</ele><time>2024-06-12T15:32:09Z</time></trkpt>
<trkpt lat="46.48507" lon="6.75832"><ele>501.4</ele><time>2024-06-12T15:32:15Z</time></trkpt>
<trkpt lat="46.48503" lon="6.75839"><ele>501.8</ele><time>2024-06-12T15:32:18Z</time></trkpt>
<trkpt lat="46.48497" lon="6.75849"><ele>502.4</ele><time>2024-06-12T15:32:22Z</time></trkpt>
<trkpt lat="46.48487" lon="6.75865"><ele>503.4</ele><time>2024-06-12T15:32:29Z</time></trkpt>
<trkpt lat="46.48486" lon="6.75867"><ele>503.4</ele><time>2024-06-12T15:32:30Z</time></trkpt>
<trkpt lat="46.48471" lon="6.75887"><ele>504.6</ele><time>2024-06-12T15:32:39Z</time></trkpt>
<trkpt lat="46.4846" lon="6.75904"><ele>505.2</ele><time>2024-06-12T15:32:46Z</time></trkpt>
<trkpt lat="46.48451" lon="6.75913"><ele>505.6</ele><time>2024-06-12T15:32:51Z</time></trkpt>
<trkpt lat="46.48444" lon="6.7592"><ele>506.4</ele><time>2024-06-12T15:32:55Z</time></trkpt>
<trkpt lat="46.48442" lon="6.75922"><ele>506.6</ele><time>2024-06-12T15:32:56Z</time></trkpt>
<trkpt lat="46.48426" lon="6.75939"><ele>507.6</ele><time>2024-06-12T15:33:05Z</time></trkpt>
<trkpt lat="46.48412" lon="6.75955"><ele>508.6</ele><time>2024-06-12T15:33:13Z</time></trkpt>
<trkpt lat="46.48407" lon="6.75961"><ele>509</ele><time>2024-06-12T15:33:16Z</time></trkpt>
<trkpt lat="46.48396" lon="6.75976"><ele>509.6</ele><time>2024-06-12T15:33:23Z</time></trkpt>
<trkpt lat="46.4839" lon="6.75985"><ele>510.2</ele><time>2024-06-12T15:33:27Z</time></trkpt>
<trkpt lat="46.48381" lon="6.76"><ele>510.8</ele><time>2024-06-12T15:33:34Z</time></trkpt>
<trkpt lat="46.48379" lon="6.76003"><ele>510.8</ele><time>2024-06-12T15:33:35Z</time></trkpt>
<trkpt lat="46.48362" lon="6.76027"><ele>511.6</ele><time>2024-06-12T15:33:44Z</time></trkpt>
<trkpt lat="46.48359" lon="6.76032"><ele>511.8</ele><time>2024-06-12T15:33:46Z</time></trkpt>
<trkpt lat="46.48349" lon="6.76045"><ele>513.2</ele><time>2024-06-12T15:33:52Z</time></trkpt>
<trkpt lat="46.48345" lon="6.76048"><ele>513.4</ele><time>2024-06-12T15:33:54Z</time></trkpt>
<trkpt lat="46.48335" lon="6.7606"><ele>514</ele><time>2024-06-12T15:34:00Z</time></trkpt>
<trkpt lat="46.48334" lon="6.76062"><ele>514.2</ele><time>2024-06-12T15:34:01Z</time></trkpt>
<trkpt lat="46.48329" lon="6.76069"><ele>514.6</ele><time>2024-06-12T15:34:04Z</time></trkpt>
<trkpt lat="46.48318" lon="6.76086"><ele>515.4</ele><time>2024-06-12T15:34:11Z</time></trkpt>
<trkpt lat="46.48314" lon="6.76094"><ele>515.6</ele><time>2024-06-12T15:34:15Z</time></trkpt>
<trkpt lat="46.48304" lon="6.76109"><ele>516.4</ele><time>2024-06-12T15:34:21Z</time></trkpt>
<trkpt lat="46.48302" lon="6.76114"><ele>516.6</ele><time>2024-06-12T15:34:22Z</time></trkpt>
<trkpt lat="46.48297" lon="6.76125"><ele>516.8</ele><time>2024-06-12T15:34:26Z</time></trkpt>
<trkpt lat="46.48288" lon="6.7614"><ele>517.6</ele><time>2024-06-12T15:34:32Z</time></trkpt>
<trkpt lat="46.48278" lon="6.76158"><ele>518.8</ele><time>2024-06-12T15:34:39Z</time></trkpt>
<trkpt lat="46.48277" lon="6.76161"><ele>518.8</ele><time>2024-06-12T15:34:40Z</time></trkpt>
<trkpt lat="46.48265" lon="6.76179"><ele>519.8</ele><time>2024-06-12T15:34:47Z</time></trkpt>
<trkpt lat="46.48258" lon="6.7619"><ele>520.6</ele><time>2024-06-12T15:34:52Z</time></trkpt>
<trkpt lat="46.48256" lon="6.76192"><ele>520.8</ele><time>2024-06-12T15:34:53Z</time></trkpt>
<trkpt lat="46.48245" lon="6.76207"><ele>522</ele><time>2024-06-12T15:35:00Z</time></trkpt>
<trkpt lat="46.4824" lon="6.76213"><ele>522.4</ele><time>2024-06-12T15:35:03Z</time></trkpt>
<trkpt lat="46.48232" lon="6.76227"><ele>523</ele><time>2024-06-12T15:35:08Z</time></trkpt>
<trkpt lat="46.48225" lon="6.76245"><ele>523.6</ele><time>2024-06-12T15:35:14Z</time></trkpt>
<trkpt lat="46.48217" lon="6.76263"><ele>524.2</ele><time>2024-06-12T15:35:20Z</time></trkpt>
<trkpt lat="46.48214" lon="6.76269"><ele>524.2</ele><time>2024-06-12T15:35:22Z</time></trkpt>
<trkpt lat="46.48207" lon="6.76284"><ele>525.2</ele><time>2024-06-12T15:35:27Z</time></trkpt>
<trkpt lat="46.48201" lon="6.76294"><ele>525.6</ele><time>2024-06-12T15:35:31Z</time></trkpt>
<trkpt lat="46.48196" lon="6.76308"><ele>526.4</ele><time>2024-06-12T15:35:37Z</time></trkpt>
<trkpt lat="46.48186" lon="6.76327"><ele>527.2</ele><time>2024-06-12T15:35:44Z</time></trkpt>
<trkpt lat="46.48182" lon="6.76336"><ele>527.6</ele><time>2024-06-12T15:35:46Z</time></trkpt>
<trkpt lat="46.48171" lon="6.76361"><ele>528.6</ele><time>2024-06-12T15:35:55Z</time></trkpt>
<trkpt lat="46.48168" lon="6.76367"><ele>529</ele><time>2024-06-12T15:35:57Z</time></trkpt>
<trkpt lat="46.48159" lon="6.76387"><ele>529.8</ele><time>2024-06-12T15:36:04Z</time></trkpt>
<trkpt lat="46.48153" lon="6.76398"><ele>530.4</ele><time>2024-06-12T15:36:08Z</time></trkpt>
<trkpt lat="46.48146" lon="6.76414"><ele>531</ele><time>2024-06-12T15:36:14Z</time></trkpt>
<trkpt lat="46.48142" lon="6.76423"><ele>531.2</ele><time>2024-06-12T15:36:18Z</time></trkpt>
<trkpt lat="46.48137" lon="6.76439"><ele>532</ele><time>2024-06-12T15:36:23Z</time></trkpt>
<trkpt lat="46.48131" lon="6.76454"><ele>532.6</ele><time>2024-06-12T15:36:27Z</time></trkpt>
<trkpt lat="46.48126" lon="6.7647"><ele>533</ele><time>2024-06-12T15:36:32Z</time></trkpt>
<trkpt lat="46.48118" lon="6.76492"><ele>534</ele><time>2024-06-12T15:36:39Z</time></trkpt>
<trkpt lat="46.48117" lon="6.76495"><ele>534.4</ele><time>2024-06-12T15:36:40Z</time></trkpt>
<trkpt lat="46.48116" lon="6.76498"><ele>534.4</ele><time>2024-06-12T15:36:41Z</time></trkpt>
<trkpt lat="46.48107" lon="6.76523"><ele>535.4</ele><time>2024-06-12T15:36:49Z</time></trkpt>
<trkpt lat="46.48104" lon="6.76532"><ele>535.8</ele><time>2024-06-12T15:36:52Z</time></trkpt>
<trkpt lat="46.48098" lon="6.76547"><ele>536.4</ele><time>2024-06-12T15:36:57Z</time></trkpt>
<trkpt lat="46.4809" lon="6.76564"><ele>537.4</ele><time>2024-06-12T15:37:03Z</time></trkpt>
<trkpt lat="46.48088" lon="6.76567"><ele>537.6</ele><time>2024-06-12T15:37:04Z</time></trkpt>
<trkpt lat="46.48077" lon="6.76583"><ele>538.6</ele><time>2024-06-12T15:37:11Z</time></trkpt>
<trkpt lat="46.4807" lon="6.76592"><ele>539.4</ele><time>2024-06-12T15:37:15Z</time></trkpt>
<trkpt lat="46.48068" lon="6.76597"><ele>539.6</ele><time>2024-06-12T15:37:17Z</time></trkpt>
<trkpt lat="46.48059" lon="6.76618"><ele>540.8</ele><time>2024-06-12T15:37:24Z</time></trkpt>
<trkpt lat="46.48058" lon="6.76621"><ele>541</ele><time>2024-06-12T15:37:25Z</time></trkpt>
<trkpt lat="46.48053" lon="6.7665"><ele>542</ele><time>2024-06-12T15:37:33Z</time></trkpt>
<trkpt lat="46.4805" lon="6.76659"><ele>542.2</ele><time>2024-06-12T15:37:36Z</time></trkpt>
<trkpt lat="46.48042" lon="6.76683"><ele>543</ele><time>2024-06-12T15:37:44Z</time></trkpt>
<trkpt lat="46.4804" lon="6.76692"><ele>543.6</ele><time>2024-06-12T15:37:47Z</time></trkpt>
<trkpt lat="46.48036" lon="6.76704"><ele>544.2</ele><time>2024-06-12T15:37:51Z</time></trkpt>
<trkpt lat="46.48029" lon="6.7673"><ele>545.4</ele><time>2024-06-12T15:37:59Z</time></trkpt>
<trkpt lat="46.48026" lon="6.7676"><ele>546.4</ele><time>2024-06-12T15:38:08Z</time></trkpt>
<trkpt lat="46.48026" lon="6.76763"><ele>546.6</ele><time>2024-06-12T15:38:09Z</time></trkpt>
<trkpt lat="46.48031" lon="6.76782"><ele>547.4</ele><time>2024-06-12T15:38:15Z</time></trkpt>
<trkpt lat="46.48033" lon="6.76788"><ele>547.6</ele><time>2024-06-12T15:38:17Z</time></trkpt>
<trkpt lat="46.48044" lon="6.76817"><ele>548.6</ele><time>2024-06-12T15:38:26Z</time></trkpt>
<trkpt lat="46.48045" lon="6.7682"><ele>548.6</ele><time>2024-06-12T15:38:27Z</time></trkpt>
<trkpt lat="46.48051" lon="6.76843"><ele>549.6</ele><time>2024-06-12T15:38:34Z</time></trkpt>
<trkpt lat="46.48052" lon="6.7685"><ele>549.8</ele><time>2024-06-12T15:38:36Z</time></trkpt>
<trkpt lat="46.48052" lon="6.7687"><ele>550.8</ele><time>2024-06-12T15:38:42Z</time></trkpt>
<trkpt lat="46.4805" lon="6.76879"><ele>551.2</ele><time>2024-06-12T15:38:45Z</time></trkpt>
<trkpt lat="46.48048" lon="6.76892"><ele>551.8</ele><time>2024-06-12T15:38:49Z</time></trkpt>
<trkpt lat="46.48045" lon="6.76911"><ele>552.8</ele><time>2024-06-12T15:38:55Z</time></trkpt>
<trkpt lat="46.48044" lon="6.76929"><ele>553.8</ele><time>2024-06-12T15:39:02Z</time></trkpt>
<trkpt lat="46.48043" lon="6.76936"><ele>554</ele><time>2024-06-12T15:39:04Z</time></trkpt>
<trkpt lat="46.48045" lon="6.76971"><ele>554.8</ele><time>2024-06-12T15:39:12Z</time></trkpt>
<trkpt lat="46.48045" lon="6.76979"><ele>555</ele><time>2024-06-12T15:39:14Z</time></trkpt>
<trkpt lat="46.48045" lon="6.77005"><ele>556</ele><time>2024-06-12T15:39:22Z</time></trkpt>
<trkpt lat="46.48045" lon="6.77009"><ele>556.2</ele><time>2024-06-12T15:39:23Z</time></trkpt>
<trkpt lat="46.48041" lon="6.77038"><ele>557.2</ele><time>2024-06-12T15:39:30Z</time></trkpt>
<trkpt lat="46.48038" lon="6.77048"><ele>557.8</ele><time>2024-06-12T15:39:33Z</time></trkpt>
<trkpt lat="46.48035" lon="6.7706"><ele>558.4</ele><time>2024-06-12T15:39:37Z</time></trkpt>
<trkpt lat="46.48031" lon="6.77076"><ele>559.2</ele><time>2024-06-12T15:39:42Z</time></trkpt>
<trkpt lat="46.48029" lon="6.77087"><ele>559.4</ele><time>2024-06-12T15:39:45Z</time></trkpt>
<trkpt lat="46.48028" lon="6.77108"><ele>560.2</ele><time>2024-06-12T15:39:51Z</time></trkpt>
<trkpt lat="46.48027" lon="6.77124"><ele>560.6</ele><time>2024-06-12T15:39:55Z</time></trkpt>
<trkpt lat="46.48025" lon="6.77148"><ele>561.2</ele><time>2024-06-12T15:40:01Z</time></trkpt>
<trkpt lat="46.48024" lon="6.77164"><ele>561.6</ele><time>2024-06-12T15:40:05Z</time></trkpt>
<trkpt lat="46.48024" lon="6.77182"><ele>562.4</ele><time>2024-06-12T15:40:10Z</time></trkpt>
<trkpt lat="46.48022" lon="6.77193"><ele>562.6</ele><time>2024-06-12T15:40:13Z</time></trkpt>
<trkpt lat="46.48019" lon="6.7722"><ele>563.6</ele><time>2024-06-12T15:40:21Z</time></trkpt>
<trkpt lat="46.48019" lon="6.77223"><ele>563.8</ele><time>2024-06-12T15:40:22Z</time></trkpt>
<trkpt lat="46.48015" lon="6.77246"><ele>564.8</ele><time>2024-06-12T15:40:29Z</time></trkpt>
<trkpt lat="46.48012" lon="6.77264"><ele>565.4</ele><time>2024-06-12T15:40:34Z</time></trkpt>
<trkpt lat="46.48011" lon="6.77271"><ele>566</ele><time>2024-06-12T15:40:36Z</time></trkpt>
<trkpt lat="46.48008" lon="6.77302"><ele>567</ele><time>2024-06-12T15:40:45Z</time></trkpt>
<trkpt lat="46.48007" lon="6.77312"><ele>567.6</ele><time>2024-06-12T15:40:48Z</time></trkpt>
<trkpt lat="46.48006" lon="6.7733"><ele>568.2</ele><time>2024-06-12T15:40:53Z</time></trkpt>
<trkpt lat="46.48008" lon="6.77342"><ele>568.8</ele><time>2024-06-12T15:40:56Z</time></trkpt>
<trkpt lat="46.4801" lon="6.77353"><ele>569.2</ele><time>2024-06-12T15:40:59Z</time></trkpt>
<trkpt lat="46.48016" lon="6.77372"><ele>569.4</ele><time>2024-06-12T15:41:04Z</time></trkpt>
<trkpt lat="46.48029" lon="6.77391"><ele>569.6</ele><time>2024-06-12T15:41:10Z</time></trkpt>
<trkpt lat="46.48046" lon="6.77395"><ele>570.2</ele><time>2024-06-12T15:41:15Z</time></trkpt>
<trkpt lat="46.48056" lon="6.77391"><ele>570.4</ele><time>2024-06-12T15:41:18Z</time></trkpt>
<trkpt lat="46.48066" lon="6.77384"><ele>570.6</ele><time>2024-06-12T15:41:21Z</time></trkpt>
<trkpt lat="46.4808" lon="6.77373"><ele>570.4</ele><time>2024-06-12T15:41:25Z</time></trkpt>
<trkpt lat="46.48088" lon="6.7737"><ele>570.4</ele><time>2024-06-12T15:41:27Z</time></trkpt>
<trkpt lat="46.48092" lon="6.77369"><ele>570.4</ele><time>2024-06-12T15:41:28Z</time></trkpt>
<trkpt lat="46.48096" lon="6.77369"><ele>570.4</ele><time>2024-06-12T15:41:29Z</time></trkpt>
<trkpt lat="46.48104" lon="6.77372"><ele>570.4</ele><time>2024-06-12T15:41:31Z</time></trkpt>
<trkpt lat="46.48112" lon="6.77376"><ele>570.4</ele><time>2024-06-12T15:41:33Z</time></trkpt>
<trkpt lat="46.4813" lon="6.77399"><ele>571</ele><time>2024-06-12T15:41:39Z</time></trkpt>
<trkpt lat="46.48136" lon="6.77412"><ele>571.4</ele><time>2024-06-12T15:41:42Z</time></trkpt>
<trkpt lat="46.48155" lon="6.77449"><ele>572</ele><time>2024-06-12T15:41:51Z</time></trkpt>
<trkpt lat="46.4817" lon="6.7747"><ele>572.4</ele><time>2024-06-12T15:41:57Z</time></trkpt>
<trkpt lat="46.48178" lon="6.7748"><ele>572.8</ele><time>2024-06-12T15:42:01Z</time></trkpt>
<trkpt lat="46.48196" lon="6.7751"><ele>573.6</ele><time>2024-06-12T15:42:09Z</time></trkpt>
<trkpt lat="46.48203" lon="6.77522"><ele>574</ele><time>2024-06-12T15:42:11Z</time></trkpt>
<trkpt lat="46.48205" lon="6.77526"><ele>574.2</ele><time>2024-06-12T15:42:12Z</time></trkpt>
<trkpt lat="46.48208" lon="6.77533"><ele>574.6</ele><time>2024-06-12T15:42:14Z</time></trkpt>
<trkpt lat="46.48218" lon="6.77553"><ele>575.6</ele><time>2024-06-12T15:42:20Z</time></trkpt>
<trkpt lat="46.4822" lon="6.77556"><ele>575.6</ele><time>2024-06-12T15:42:21Z</time></trkpt>
<trkpt lat="46.48226" lon="6.77571"><ele>576.8</ele><time>2024-06-12T15:42:27Z</time></trkpt>
<trkpt lat="46.48232" lon="6.77583"><ele>577.4</ele><time>2024-06-12T15:42:31Z</time></trkpt>
<trkpt lat="46.48235" lon="6.77589"><ele>577.8</ele><time>2024-06-12T15:42:32Z</time></trkpt>
<trkpt lat="46.48236" lon="6.77594"><ele>578.4</ele><time>2024-06-12T15:42:35Z</time></trkpt>
<trkpt lat="46.48236" lon="6.77596"><ele>578.4</ele><time>2024-06-12T15:42:36Z</time></trkpt>
<trkpt lat="46.48233" lon="6.77608"><ele>578.8</ele><time>2024-06-12T15:42:39Z</time></trkpt>
<trkpt lat="46.48231" lon="6.77611"><ele>578.8</ele><time>2024-06-12T15:42:40Z</time></trkpt>
<trkpt lat="46.48223" lon="6.77617"><ele>579.4</ele><time>2024-06-12T15:42:43Z</time></trkpt>
<trkpt lat="46.48217" lon="6.77622"><ele>579.8</ele><time>2024-06-12T15:42:45Z</time></trkpt>
<trkpt lat="46.48202" lon="6.77637"><ele>579.8</ele><time>2024-06-12T15:42:50Z</time></trkpt>
<trkpt lat="46.48182" lon="6.7767"><ele>578.6</ele><time>2024-06-12T15:42:56Z</time></trkpt>
<trkpt lat="46.48168" lon="6.77698"><ele>577.4</ele><time>2024-06-12T15:43:00Z</time></trkpt>
<trkpt lat="46.48161" lon="6.77711"><ele>577</ele><time>2024-06-12T15:43:02Z</time></trkpt>
<trkpt lat="46.48158" lon="6.77717"><ele>576.2</ele><time>2024-06-12T15:43:03Z</time></trkpt>
<trkpt lat="46.48157" lon="6.77724"><ele>575.8</ele><time>2024-06-12T15:43:04Z</time></trkpt>
<trkpt lat="46.48156" lon="6.77738"><ele>575.4</ele><time>2024-06-12T15:43:06Z</time></trkpt>
<trkpt lat="46.48156" lon="6.77747"><ele>575</ele><time>2024-06-12T15:43:07Z</time></trkpt>
<trkpt lat="46.48158" lon="6.77764"><ele>573.8</ele><time>2024-06-12T15:43:09Z</time></trkpt>
<trkpt lat="46.48159" lon="6.77781"><ele>573.4</ele><time>2024-06-12T15:43:11Z</time></trkpt>
<trkpt lat="46.48167" lon="6.77817"><ele>572.8</ele><time>2024-06-12T15:43:15Z</time></trkpt>
<trkpt lat="46.48169" lon="6.77827"><ele>572.2</ele><time>2024-06-12T15:43:16Z</time></trkpt>
<trkpt lat="46.48171" lon="6.77837"><ele>571.6</ele><time>2024-06-12T15:43:17Z</time></trkpt>
<trkpt lat="46.48175" lon="6.7786"><ele>570.4</ele><time>2024-06-12T15:43:19Z</time></trkpt>
<trkpt lat="46.48179" lon="6.77885"><ele>568.8</ele><time>2024-06-12T15:43:21Z</time></trkpt>
<trkpt lat="46.48181" lon="6.77898"><ele>567.4</ele><time>2024-06-12T15:43:22Z</time></trkpt>
<trkpt lat="46.48182" lon="6.77911"><ele>566.4</ele><time>2024-06-12T15:43:23Z</time></trkpt>
<trkpt lat="46.48183" lon="6.77936"><ele>564.8</ele><time>2024-06-12T15:43:25Z</time></trkpt>
<trkpt lat="46.48182" lon="6.77948"><ele>564.4</ele><time>2024-06-12T15:43:26Z</time></trkpt>
<trkpt lat="46.48178" lon="6.7796"><ele>563.4</ele><time>2024-06-12T15:43:27Z</time></trkpt>
<trkpt lat="46.48168" lon="6.77981"><ele>562.2</ele><time>2024-06-12T15:43:29Z</time></trkpt>
<trkpt lat="46.48153" lon="6.77998"><ele>560.4</ele><time>2024-06-12T15:43:31Z</time></trkpt>
<trkpt lat="46.48144" lon="6.78007"><ele>559.4</ele><time>2024-06-12T15:43:32Z</time></trkpt>
<trkpt lat="46.48137" lon="6.78016"><ele>558.6</ele><time>2024-06-12T15:43:33Z</time></trkpt>
<trkpt lat="46.48129" lon="6.78027"><ele>558.2</ele><time>2024-06-12T15:43:34Z</time></trkpt>
<trkpt lat="46.48122" lon="6.78037"><ele>557.4</ele><time>2024-06-12T15:43:35Z</time></trkpt>
<trkpt lat="46.48113" lon="6.78046"><ele>556.4</ele><time>2024-06-12T15:43:36Z</time></trkpt>
<trkpt lat="46.48105" lon="6.78054"><ele>555.4</ele><time>2024-06-12T15:43:37Z</time></trkpt>
<trkpt lat="46.48097" lon="6.78062"><ele>554.8</ele><time>2024-06-12T15:43:38Z</time></trkpt>
<trkpt lat="46.48075" lon="6.78078"><ele>554.2</ele><time>2024-06-12T15:43:41Z</time></trkpt>
<trkpt lat="46.4806" lon="6.78093"><ele>554</ele><time>2024-06-12T15:43:44Z</time></trkpt>
<trkpt lat="46.48057" lon="6.781"><ele>554</ele><time>2024-06-12T15:43:45Z</time></trkpt>
<trkpt lat="46.48056" lon="6.78107"><ele>554</ele><time>2024-06-12T15:43:46Z</time></trkpt>
<trkpt lat="46.48055" lon="6.78121"><ele>554</ele><time>2024-06-12T15:43:48Z</time></trkpt>
<trkpt lat="46.48054" lon="6.78143"><ele>553.8</ele><time>2024-06-12T15:43:51Z</time></trkpt>
<trkpt lat="46.4805" lon="6.78159"><ele>553.2</ele><time>2024-06-12T15:43:53Z</time></trkpt>
<trkpt lat="46.48046" lon="6.78166"><ele>552.6</ele><time>2024-06-12T15:43:54Z</time></trkpt>
<trkpt lat="46.48042" lon="6.78173"><ele>552</ele><time>2024-06-12T15:43:55Z</time></trkpt>
<trkpt lat="46.48037" lon="6.78178"><ele>551.6</ele><time>2024-06-12T15:43:56Z</time></trkpt>
<trkpt lat="46.48032" lon="6.78184"><ele>550.2</ele><time>2024-06-12T15:43:57Z</time></trkpt>
<trkpt lat="46.48028" lon="6.78192"><ele>549.6</ele><time>2024-06-12T15:43:58Z</time></trkpt>
<trkpt lat="46.48023" lon="6.78207"><ele>549.2</ele><time>2024-06-12T15:44:00Z</time></trkpt>
<trkpt lat="46.48017" lon="6.78228"><ele>548</ele><time>2024-06-12T15:44:03Z</time></trkpt>
<trkpt lat="46.48011" lon="6.7825"><ele>547</ele><time>2024-06-12T15:44:06Z</time></trkpt>
<trkpt lat="46.48007" lon="6.78263"><ele>546</ele><time>2024-06-12T15:44:08Z</time></trkpt>
<trkpt lat="46.48004" lon="6.78268"><ele>545.8</ele><time>2024-06-12T15:44:09Z</time></trkpt>
<trkpt lat="46.48001" lon="6.78272"><ele>545.4</ele><time>2024-06-12T15:44:10Z</time></trkpt>
<trkpt lat="46.4799" lon="6.78287"><ele>544.8</ele><time>2024-06-12T15:44:13Z</time></trkpt>
<trkpt lat="46.47986" lon="6.78292"><ele>544.6</ele><time>2024-06-12T15:44:14Z</time></trkpt>
<trkpt lat="46.47983" lon="6.78298"><ele>544.6</ele><time>2024-06-12T15:44:15Z</time></trkpt>
<trkpt lat="46.47974" lon="6.78323"><ele>543.6</ele><time>2024-06-12T15:44:19Z</time></trkpt>
<trkpt lat="46.47972" lon="6.7833"><ele>543.4</ele><time>2024-06-12T15:44:20Z</time></trkpt>
<trkpt lat="46.47968" lon="6.78363"><ele>542.6</ele><time>2024-06-12T15:44:24Z</time></trkpt>
<trkpt lat="46.47966" lon="6.78381"><ele>542.2</ele><time>2024-06-12T15:44:26Z</time></trkpt>
<trkpt lat="46.47962" lon="6.78414"><ele>541</ele><time>2024-06-12T15:44:30Z</time></trkpt>
<trkpt lat="46.47959" lon="6.78437"><ele>539.4</ele><time>2024-06-12T15:44:32Z</time></trkpt>
<trkpt lat="46.47949" lon="6.78487"><ele>537.8</ele><time>2024-06-12T15:44:35Z</time></trkpt>
<trkpt lat="46.47944" lon="6.78514"><ele>536.6</ele><time>2024-06-12T15:44:37Z</time></trkpt>
<trkpt lat="46.47941" lon="6.78527"><ele>536</ele><time>2024-06-12T15:44:38Z</time></trkpt>
<trkpt lat="46.47938" lon="6.78542"><ele>535</ele><time>2024-06-12T15:44:39Z</time></trkpt>
<trkpt lat="46.47923" lon="6.78601"><ele>533.8</ele><time>2024-06-12T15:44:43Z</time></trkpt>
<trkpt lat="46.47919" lon="6.78616"><ele>533.2</ele><time>2024-06-12T15:44:44Z</time></trkpt>
<trkpt lat="46.47914" lon="6.78631"><ele>532.6</ele><time>2024-06-12T15:44:45Z</time></trkpt>
<trkpt lat="46.47903" lon="6.78661"><ele>531.6</ele><time>2024-06-12T15:44:47Z</time></trkpt>
<trkpt lat="46.47884" lon="6.78703"><ele>530.2</ele><time>2024-06-12T15:44:50Z</time></trkpt>
<trkpt lat="46.4786" lon="6.78754"><ele>529</ele><time>2024-06-12T15:44:55Z</time></trkpt>
<trkpt lat="46.47849" lon="6.78777"><ele>529</ele><time>2024-06-12T15:44:57Z</time></trkpt>
<trkpt lat="46.47828" lon="6.7883"><ele>528</ele><time>2024-06-12T15:45:01Z</time></trkpt>
<trkpt lat="46.47821" lon="6.78851"><ele>527.8</ele><time>2024-06-12T15:45:03Z</time></trkpt>
<trkpt lat="46.47809" lon="6.78893"><ele>526.8</ele><time>2024-06-12T15:45:07Z</time></trkpt>
<trkpt lat="46.47806" lon="6.78916"><ele>526.6</ele><time>2024-06-12T15:45:09Z</time></trkpt>
<trkpt lat="46.47803" lon="6.78946"><ele>527.2</ele><time>2024-06-12T15:45:13Z</time></trkpt>
<trkpt lat="46.47801" lon="6.78957"><ele>528.2</ele><time>2024-06-12T15:45:15Z</time></trkpt>
<trkpt lat="46.47798" lon="6.78977"><ele>528.8</ele><time>2024-06-12T15:45:19Z</time></trkpt>
<trkpt lat="46.47794" lon="6.78997"><ele>528.8</ele><time>2024-06-12T15:45:23Z</time></trkpt>
<trkpt lat="46.47793" lon="6.79003"><ele>528.8</ele><time>2024-06-12T15:45:24Z</time></trkpt>
<trkpt lat="46.47794" lon="6.79013"><ele>528.8</ele><time>2024-06-12T15:45:26Z</time></trkpt>
<trkpt lat="46.478" lon="6.79035"><ele>529.2</ele><time>2024-06-12T15:45:31Z</time></trkpt>
<trkpt lat="46.478" lon="6.7904"><ele>529.2</ele><time>2024-06-12T15:45:32Z</time></trkpt>
<trkpt lat="46.47799" lon="6.79059"><ele>530.2</ele><time>2024-06-12T15:45:36Z</time></trkpt>
<trkpt lat="46.47796" lon="6.79068"><ele>530.4</ele><time>2024-06-12T15:45:38Z</time></trkpt>
<trkpt lat="46.47793" lon="6.79078"><ele>530.4</ele><time>2024-06-12T15:45:41Z</time></trkpt>
<trkpt lat="46.47791" lon="6.79087"><ele>530.8</ele><time>2024-06-12T15:45:44Z</time></trkpt>
<trkpt lat="46.4779" lon="6.79092"><ele>531.4</ele><time>2024-06-12T15:45:46Z</time></trkpt>
<trkpt lat="46.47788" lon="6.79103"><ele>532.4</ele><time>2024-06-12T15:45:51Z</time></trkpt>
<trkpt lat="46.47786" lon="6.79108"><ele>533</ele><time>2024-06-12T15:45:54Z</time></trkpt>
<trkpt lat="46.47785" lon="6.79113"><ele>533.2</ele><time>2024-06-12T15:45:56Z</time></trkpt>
<trkpt lat="46.47784" lon="6.79115"><ele>533.4</ele><time>2024-06-12T15:45:57Z</time></trkpt>
<trkpt lat="46.47783" lon="6.79128"><ele>534</ele><time>2024-06-12T15:46:03Z</time></trkpt>
<trkpt lat="46.47779" lon="6.79154"><ele>534</ele><time>2024-06-12T15:46:11Z</time></trkpt>
<trkpt lat="46.47772" lon="6.79169"><ele>534.2</ele><time>2024-06-12T15:46:15Z</time></trkpt>
<trkpt lat="46.47768" lon="6.79176"><ele>534.2</ele><time>2024-06-12T15:46:17Z</time></trkpt>
<trkpt lat="46.47766" lon="6.7918"><ele>534.2</ele><time>2024-06-12T15:46:18Z</time></trkpt>
<trkpt lat="46.47753" lon="6.79202"><ele>534.4</ele><time>2024-06-12T15:46:24Z</time></trkpt>
<trkpt lat="46.47748" lon="6.79213"><ele>534.8</ele><time>2024-06-12T15:46:27Z</time></trkpt>
<trkpt lat="46.47739" lon="6.7923"><ele>535.6</ele><time>2024-06-12T15:46:32Z</time></trkpt>
<trkpt lat="46.47734" lon="6.79245"><ele>535.8</ele><time>2024-06-12T15:46:36Z</time></trkpt>
<trkpt lat="46.47731" lon="6.7927"><ele>536.6</ele><time>2024-06-12T15:46:43Z</time></trkpt>
<trkpt lat="46.47731" lon="6.79273"><ele>536.6</ele><time>2024-06-12T15:46:44Z</time></trkpt>
<trkpt lat="46.4773" lon="6.79289"><ele>537.6</ele><time>2024-06-12T15:46:50Z</time></trkpt>
<trkpt lat="46.4773" lon="6.79292"><ele>537.6</ele><time>2024-06-12T15:46:51Z</time></trkpt>
<trkpt lat="46.47726" lon="6.79309"><ele>538.8</ele><time>2024-06-12T15:46:58Z</time></trkpt>
<trkpt lat="46.47726" lon="6.79312"><ele>539</ele><time>2024-06-12T15:46:59Z</time></trkpt>
<trkpt lat="46.47724" lon="6.79323"><ele>540</ele><time>2024-06-12T15:47:05Z</time></trkpt>
<trkpt lat="46.47724" lon="6.79325"><ele>540</ele><time>2024-06-12T15:47:06Z</time></trkpt>
<trkpt lat="46.47721" lon="6.7934"><ele>541.2</ele><time>2024-06-12T15:47:13Z</time></trkpt>
<trkpt lat="46.47719" lon="6.79343"><ele>541.4</ele><time>2024-06-12T15:47:15Z</time></trkpt>
<trkpt lat="46.47717" lon="6.79353"><ele>542.4</ele><time>2024-06-12T15:47:20Z</time></trkpt>
<trkpt lat="46.47717" lon="6.79355"><ele>542.6</ele><time>2024-06-12T15:47:21Z</time></trkpt>
<trkpt lat="46.47713" lon="6.79366"><ele>543.4</ele><time>2024-06-12T15:47:27Z</time></trkpt>
<trkpt lat="46.47712" lon="6.7937"><ele>544</ele><time>2024-06-12T15:47:29Z</time></trkpt>
<trkpt lat="46.4771" lon="6.79376"><ele>544.6</ele><time>2024-06-12T15:47:32Z</time></trkpt>
<trkpt lat="46.47708" lon="6.79382"><ele>545.2</ele><time>2024-06-12T15:47:35Z</time></trkpt>
<trkpt lat="46.47705" lon="6.79386"><ele>545.6</ele><time>2024-06-12T15:47:38Z</time></trkpt>
<trkpt lat="46.47705" lon="6.79388"><ele>546.2</ele><time>2024-06-12T15:47:40Z</time></trkpt>
<trkpt lat="46.47703" lon="6.79395"><ele>546.6</ele><time>2024-06-12T15:47:44Z</time></trkpt>
<trkpt lat="46.47701" lon="6.79397"><ele>546.8</ele><time>2024-06-12T15:47:45Z</time></trkpt>
<trkpt lat="46.47696" lon="6.79405"><ele>547.8</ele><time>2024-06-12T15:47:51Z</time></trkpt>
<trkpt lat="46.47694" lon="6.79408"><ele>548</ele><time>2024-06-12T15:47:53Z</time></trkpt>
<trkpt lat="46.4769" lon="6.79415"><ele>548.8</ele><time>2024-06-12T15:47:58Z</time></trkpt>
<trkpt lat="46.47687" lon="6.79421"><ele>549.6</ele><time>2024-06-12T15:48:02Z</time></trkpt>
<trkpt lat="46.47686" lon="6.79424"><ele>550</ele><time>2024-06-12T15:48:04Z</time></trkpt>
<trkpt lat="46.47681" lon="6.79435"><ele>551</ele><time>2024-06-12T15:48:11Z</time></trkpt>
<trkpt lat="46.4768" lon="6.79444"><ele>551.8</ele><time>2024-06-12T15:48:16Z</time></trkpt>
<trkpt lat="46.4768" lon="6.79446"><ele>552</ele><time>2024-06-12T15:48:17Z</time></trkpt>
<trkpt lat="46.4768" lon="6.79449"><ele>552.2</ele><time>2024-06-12T15:48:19Z</time></trkpt>
<trkpt lat="46.4768" lon="6.79462"><ele>553</ele><time>2024-06-12T15:48:26Z</time></trkpt>
<trkpt lat="46.4768" lon="6.79463"><ele>553.2</ele><time>2024-06-12T15:48:27Z</time></trkpt>
<trkpt lat="46.47682" lon="6.79474"><ele>554.2</ele><time>2024-06-12T15:48:34Z</time></trkpt>
<trkpt lat="46.47682" lon="6.79476"><ele>554.4</ele><time>2024-06-12T15:48:35Z</time></trkpt>
<trkpt lat="46.47684" lon="6.79489"><ele>555.4</ele><time>2024-06-12T15:48:42Z</time></trkpt>
<trkpt lat="46.47684" lon="6.79491"><ele>555.4</ele><time>2024-06-12T15:48:43Z</time></trkpt>
<trkpt lat="46.47677" lon="6.79505"><ele>556</ele><time>2024-06-12T15:48:49Z</time></trkpt>
<trkpt lat="46.47662" lon="6.79535"><ele>556.2</ele><time>2024-06-12T15:48:58Z</time></trkpt>
<trkpt lat="46.47657" lon="6.79556"><ele>556.4</ele><time>2024-06-12T15:49:03Z</time></trkpt>
<trkpt lat="46.47654" lon="6.79572"><ele>556.8</ele><time>2024-06-12T15:49:07Z</time></trkpt>
<trkpt lat="46.4765" lon="6.79589"><ele>557.6</ele><time>2024-06-12T15:49:12Z</time></trkpt>
<trkpt lat="46.47647" lon="6.79603"><ele>558.2</ele><time>2024-06-12T15:49:17Z</time></trkpt>
<trkpt lat="46.47646" lon="6.79606"><ele>558.6</ele><time>2024-06-12T15:49:18Z</time></trkpt>
<trkpt lat="46.47634" lon="6.79641"><ele>559.4</ele><time>2024-06-12T15:49:28Z</time></trkpt>
<trkpt lat="46.47624" lon="6.79664"><ele>559.2</ele><time>2024-06-12T15:49:33Z</time></trkpt>
<trkpt lat="46.47618" lon="6.79686"><ele>558.2</ele><time>2024-06-12T15:49:36Z</time></trkpt>
<trkpt lat="46.47618" lon="6.79695"><ele>557.4</ele><time>2024-06-12T15:49:37Z</time></trkpt>
<trkpt lat="46.47618" lon="6.79704"><ele>556.6</ele><time>2024-06-12T15:49:38Z</time></trkpt>
<trkpt lat="46.47619" lon="6.79714"><ele>556.2</ele><time>2024-06-12T15:49:39Z</time></trkpt>
<trkpt lat="46.47618" lon="6.79725"><ele>555.6</ele><time>2024-06-12T15:49:40Z</time></trkpt>
<trkpt lat="46.47617" lon="6.79736"><ele>555.2</ele><time>2024-06-12T15:49:41Z</time></trkpt>
<trkpt lat="46.47613" lon="6.79747"><ele>555</ele><time>2024-06-12T15:49:42Z</time></trkpt>
<trkpt lat="46.47602" lon="6.79765"><ele>553.2</ele><time>2024-06-12T15:49:44Z</time></trkpt>
<trkpt lat="46.47591" lon="6.79781"><ele>551.6</ele><time>2024-06-12T15:49:46Z</time></trkpt>
<trkpt lat="46.47587" lon="6.7979"><ele>551.2</ele><time>2024-06-12T15:49:47Z</time></trkpt>
<trkpt lat="46.47584" lon="6.79798"><ele>551.2</ele><time>2024-06-12T15:49:48Z</time></trkpt>
<trkpt lat="46.47576" lon="6.79837"><ele>551.8</ele><time>2024-06-12T15:49:53Z</time></trkpt>
<trkpt lat="46.47576" lon="6.79844"><ele>552.2</ele><time>2024-06-12T15:49:54Z</time></trkpt>
<trkpt lat="46.47576" lon="6.79856"><ele>552.6</ele><time>2024-06-12T15:49:56Z</time></trkpt>
<trkpt lat="46.47577" lon="6.79862"><ele>552.8</ele><time>2024-06-12T15:49:57Z</time></trkpt>
<trkpt lat="46.47579" lon="6.79874"><ele>553.2</ele><time>2024-06-12T15:49:59Z</time></trkpt>
<trkpt lat="46.47583" lon="6.79886"><ele>553.2</ele><time>2024-06-12T15:50:01Z</time></trkpt>
<trkpt lat="46.47587" lon="6.79892"><ele>553.2</ele><time>2024-06-12T15:50:02Z</time></trkpt>
<trkpt lat="46.47591" lon="6.79897"><ele>552.8</ele><time>2024-06-12T15:50:03Z</time></trkpt>
<trkpt lat="46.47604" lon="6.79912"><ele>552</ele><time>2024-06-12T15:50:06Z</time></trkpt>
<trkpt lat="46.47608" lon="6.79919"><ele>552</ele><time>2024-06-12T15:50:07Z</time></trkpt>
<trkpt lat="46.4761" lon="6.79926"><ele>552</ele><time>2024-06-12T15:50:08Z</time></trkpt>
<trkpt lat="46.47609" lon="6.79939"><ele>552.2</ele><time>2024-06-12T15:50:10Z</time></trkpt>
<trkpt lat="46.47604" lon="6.79948"><ele>553.8</ele><time>2024-06-12T15:50:13Z</time></trkpt>
<trkpt lat="46.47602" lon="6.7995"><ele>554.2</ele><time>2024-06-12T15:50:14Z</time></trkpt>
<trkpt lat="46.476" lon="6.79952"><ele>555</ele><time>2024-06-12T15:50:15Z</time></trkpt>
<trkpt lat="46.47591" lon="6.79965"><ele>556.2</ele><time>2024-06-12T15:50:21Z</time></trkpt>
<trkpt lat="46.4759" lon="6.7997"><ele>556.4</ele><time>2024-06-12T15:50:22Z</time></trkpt>
<trkpt lat="46.47588" lon="6.79981"><ele>557.2</ele><time>2024-06-12T15:50:25Z</time></trkpt>
<trkpt lat="46.47587" lon="6.7999"><ele>557.8</ele><time>2024-06-12T15:50:27Z</time></trkpt>
<trkpt lat="46.47586" lon="6.79999"><ele>558</ele><time>2024-06-12T15:50:29Z</time></trkpt>
<trkpt lat="46.47583" lon="6.80018"><ele>558.2</ele><time>2024-06-12T15:50:33Z</time></trkpt>
<trkpt lat="46.4758" lon="6.8004"><ele>558.2</ele><time>2024-06-12T15:50:37Z</time></trkpt>
<trkpt lat="46.47571" lon="6.80091"><ele>558</ele><time>2024-06-12T15:50:46Z</time></trkpt>
<trkpt lat="46.4757" lon="6.80094"><ele>558</ele><time>2024-06-12T15:50:50Z</time></trkpt>
<trkpt lat="46.4757" lon="6.80093"><ele>557.8</ele><time>2024-06-12T15:51:03Z</time></trkpt>
<trkpt lat="46.4757" lon="6.80094"><ele>557.8</ele><time>2024-06-12T15:51:09Z</time></trkpt>
<trkpt lat="46.47568" lon="6.80098"><ele>557.8</ele><time>2024-06-12T15:51:11Z</time></trkpt>
<trkpt lat="46.47562" lon="6.80116"><ele>557.2</ele><time>2024-06-12T15:51:15Z</time></trkpt>
<trkpt lat="46.47555" lon="6.80141"><ele>556.2</ele><time>2024-06-12T15:51:18Z</time></trkpt>
<trkpt lat="46.47551" lon="6.80152"><ele>555.8</ele><time>2024-06-12T15:51:19Z</time></trkpt>
<trkpt lat="46.47547" lon="6.80163"><ele>554.8</ele><time>2024-06-12T15:51:20Z</time></trkpt>
<trkpt lat="46.47543" lon="6.80176"><ele>553</ele><time>2024-06-12T15:51:21Z</time></trkpt>
<trkpt lat="46.47538" lon="6.80189"><ele>551.8</ele><time>2024-06-12T15:51:22Z</time></trkpt>
<trkpt lat="46.47534" lon="6.80204"><ele>549.8</ele><time>2024-06-12T15:51:23Z</time></trkpt>
<trkpt lat="46.47526" lon="6.80235"><ele>547.4</ele><time>2024-06-12T15:51:25Z</time></trkpt>
<trkpt lat="46.47522" lon="6.80251"><ele>545.4</ele><time>2024-06-12T15:51:26Z</time></trkpt>
<trkpt lat="46.47519" lon="6.80268"><ele>544.2</ele><time>2024-06-12T15:51:27Z</time></trkpt>
<trkpt lat="46.47516" lon="6.80284"><ele>543.2</ele><time>2024-06-12T15:51:28Z</time></trkpt>
<trkpt lat="46.47514" lon="6.80301"><ele>542.8</ele><time>2024-06-12T15:51:29Z</time></trkpt>
<trkpt lat="46.47514" lon="6.80318"><ele>542.8</ele><time>2024-06-12T15:51:30Z</time></trkpt>
<trkpt lat="46.47515" lon="6.80335"><ele>542</ele><time>2024-06-12T15:51:31Z</time></trkpt>
<trkpt lat="46.47515" lon="6.80352"><ele>541.8</ele><time>2024-06-12T15:51:32Z</time></trkpt>
<trkpt lat="46.47514" lon="6.80369"><ele>541.6</ele><time>2024-06-12T15:51:33Z</time></trkpt>
<trkpt lat="46.47512" lon="6.80385"><ele>541.2</ele><time>2024-06-12T15:51:34Z</time></trkpt>
<trkpt lat="46.47509" lon="6.804"><ele>538.6</ele><time>2024-06-12T15:51:35Z</time></trkpt>
<trkpt lat="46.47496" lon="6.80453"><ele>538.2</ele><time>2024-06-12T15:51:39Z</time></trkpt>
<trkpt lat="46.47483" lon="6.80505"><ele>540.2</ele><time>2024-06-12T15:51:44Z</time></trkpt>
<trkpt lat="46.47475" lon="6.80547"><ele>540.2</ele><time>2024-06-12T15:51:48Z</time></trkpt>
<trkpt lat="46.47473" lon="6.80559"><ele>539.2</ele><time>2024-06-12T15:51:49Z</time></trkpt>
<trkpt lat="46.47469" lon="6.80572"><ele>537.2</ele><time>2024-06-12T15:51:50Z</time></trkpt>
<trkpt lat="46.47464" lon="6.80585"><ele>535.8</ele><time>2024-06-12T15:51:51Z</time></trkpt>
<trkpt lat="46.47458" lon="6.80597"><ele>534</ele><time>2024-06-12T15:51:52Z</time></trkpt>
<trkpt lat="46.47451" lon="6.80609"><ele>532.6</ele><time>2024-06-12T15:51:53Z</time></trkpt>
<trkpt lat="46.47444" lon="6.8062"><ele>530.8</ele><time>2024-06-12T15:51:54Z</time></trkpt>
<trkpt lat="46.47438" lon="6.80631"><ele>530.2</ele><time>2024-06-12T15:51:55Z</time></trkpt>
<trkpt lat="46.47433" lon="6.80643"><ele>529.2</ele><time>2024-06-12T15:51:56Z</time></trkpt>
<trkpt lat="46.47424" lon="6.80664"><ele>527.4</ele><time>2024-06-12T15:51:58Z</time></trkpt>
<trkpt lat="46.47418" lon="6.80673"><ele>526.6</ele><time>2024-06-12T15:51:59Z</time></trkpt>
<trkpt lat="46.47412" lon="6.80681"><ele>526.4</ele><time>2024-06-12T15:52:00Z</time></trkpt>
<trkpt lat="46.47396" lon="6.80699"><ele>524.6</ele><time>2024-06-12T15:52:03Z</time></trkpt>
<trkpt lat="46.47393" lon="6.80714"><ele>523.8</ele><time>2024-06-12T15:52:05Z</time></trkpt>
<trkpt lat="46.47391" lon="6.8072"><ele>523.2</ele><time>2024-06-12T15:52:06Z</time></trkpt>
<trkpt lat="46.47391" lon="6.80727"><ele>523</ele><time>2024-06-12T15:52:07Z</time></trkpt>
<trkpt lat="46.47391" lon="6.80742"><ele>523</ele><time>2024-06-12T15:52:11Z</time></trkpt>
<trkpt lat="46.47392" lon="6.80753"><ele>524.2</ele><time>2024-06-12T15:52:16Z</time></trkpt>
<trkpt lat="46.47392" lon="6.80757"><ele>524.4</ele><time>2024-06-12T15:52:17Z</time></trkpt>
<trkpt lat="46.47393" lon="6.80771"><ele>525.4</ele><time>2024-06-12T15:52:23Z</time></trkpt>
<trkpt lat="46.47394" lon="6.80781"><ele>526</ele><time>2024-06-12T15:52:27Z</time></trkpt>
<trkpt lat="46.47394" lon="6.80789"><ele>526.4</ele><time>2024-06-12T15:52:30Z</time></trkpt>
<trkpt lat="46.47396" lon="6.80804"><ele>527.6</ele><time>2024-06-12T15:52:36Z</time></trkpt>
<trkpt lat="46.47396" lon="6.80807"><ele>527.8</ele><time>2024-06-12T15:52:37Z</time></trkpt>
<trkpt lat="46.47395" lon="6.80819"><ele>528.8</ele><time>2024-06-12T15:52:42Z</time></trkpt>
<trkpt lat="46.47394" lon="6.80826"><ele>528.8</ele><time>2024-06-12T15:52:44Z</time></trkpt>
<trkpt lat="46.47391" lon="6.80854"><ele>527.4</ele><time>2024-06-12T15:52:48Z</time></trkpt>
<trkpt lat="46.47388" lon="6.80874"><ele>525.6</ele><time>2024-06-12T15:52:50Z</time></trkpt>
<trkpt lat="46.47386" lon="6.80894"><ele>523.6</ele><time>2024-06-12T15:52:52Z</time></trkpt>
<trkpt lat="46.47385" lon="6.80903"><ele>523.4</ele><time>2024-06-12T15:52:53Z</time></trkpt>
<trkpt lat="46.47385" lon="6.80919"><ele>522.6</ele><time>2024-06-12T15:52:55Z</time></trkpt>
<trkpt lat="46.47386" lon="6.80932"><ele>522.6</ele><time>2024-06-12T15:52:57Z</time></trkpt>
<trkpt lat="46.47387" lon="6.80942"><ele>522.4</ele><time>2024-06-12T15:52:59Z</time></trkpt>
<trkpt lat="46.47387" lon="6.80963"><ele>522.4</ele><time>2024-06-12T15:53:03Z</time></trkpt>
<trkpt lat="46.4739" lon="6.81001"><ele>522.6</ele><time>2024-06-12T15:53:10Z</time></trkpt>
<trkpt lat="46.47394" lon="6.81041"><ele>522.4</ele><time>2024-06-12T15:53:16Z</time></trkpt>
<trkpt lat="46.47397" lon="6.81102"><ele>522.8</ele><time>2024-06-12T15:53:25Z</time></trkpt>
<trkpt lat="46.47393" lon="6.81132"><ele>523</ele><time>2024-06-12T15:53:30Z</time></trkpt>
<trkpt lat="46.4739" lon="6.81138"><ele>523</ele><time>2024-06-12T15:53:31Z</time></trkpt>
<trkpt lat="46.47381" lon="6.81178"><ele>522.2</ele><time>2024-06-12T15:53:36Z</time></trkpt>
<trkpt lat="46.4738" lon="6.81189"><ele>521.2</ele><time>2024-06-12T15:53:37Z</time></trkpt>
<trkpt lat="46.47379" lon="6.81213"><ele>519.8</ele><time>2024-06-12T15:53:39Z</time></trkpt>
<trkpt lat="46.4738" lon="6.81235"><ele>519.8</ele><time>2024-06-12T15:53:41Z</time></trkpt>
<trkpt lat="46.47379" lon="6.81263"><ele>521</ele><time>2024-06-12T15:53:44Z</time></trkpt>
<trkpt lat="46.4738" lon="6.81279"><ele>521.4</ele><time>2024-06-12T15:53:46Z</time></trkpt>
<trkpt lat="46.47387" lon="6.81321"><ele>522</ele><time>2024-06-12T15:53:52Z</time></trkpt>
<trkpt lat="46.4739" lon="6.81334"><ele>522.2</ele><time>2024-06-12T15:53:54Z</time></trkpt>
<trkpt lat="46.47403" lon="6.81374"><ele>522.4</ele><time>2024-06-12T15:54:01Z</time></trkpt>
<trkpt lat="46.47409" lon="6.81398"><ele>523.2</ele><time>2024-06-12T15:54:06Z</time></trkpt>
<trkpt lat="46.47411" lon="6.81404"><ele>523.4</ele><time>2024-06-12T15:54:08Z</time></trkpt>
<trkpt lat="46.47415" lon="6.81423"><ele>524.4</ele><time>2024-06-12T15:54:14Z</time></trkpt>
<trkpt lat="46.47416" lon="6.81426"><ele>524.4</ele><time>2024-06-12T15:54:15Z</time></trkpt>
<trkpt lat="46.47418" lon="6.81435"><ele>525.4</ele><time>2024-06-12T15:54:18Z</time></trkpt>
<trkpt lat="46.47423" lon="6.81447"><ele>526.4</ele><time>2024-06-12T15:54:22Z</time></trkpt>
<trkpt lat="46.47425" lon="6.81452"><ele>526.6</ele><time>2024-06-12T15:54:23Z</time></trkpt>
<trkpt lat="46.47428" lon="6.81475"><ele>527</ele><time>2024-06-12T15:54:28Z</time></trkpt>
<trkpt lat="46.47431" lon="6.81504"><ele>526.6</ele><time>2024-06-12T15:54:32Z</time></trkpt>
<trkpt lat="46.47432" lon="6.81513"><ele>526</ele><time>2024-06-12T15:54:33Z</time></trkpt>
<trkpt lat="46.47434" lon="6.81522"><ele>525.2</ele><time>2024-06-12T15:54:34Z</time></trkpt>
<trkpt lat="46.4744" lon="6.81538"><ele>524.2</ele><time>2024-06-12T15:54:36Z</time></trkpt>
<trkpt lat="46.47444" lon="6.81546"><ele>523.6</ele><time>2024-06-12T15:54:37Z</time></trkpt>
<trkpt lat="46.47448" lon="6.81553"><ele>523.2</ele><time>2024-06-12T15:54:38Z</time></trkpt>
<trkpt lat="46.47453" lon="6.81571"><ele>522.8</ele><time>2024-06-12T15:54:40Z</time></trkpt>
<trkpt lat="46.47454" lon="6.81581"><ele>522.6</ele><time>2024-06-12T15:54:41Z</time></trkpt>
<trkpt lat="46.47454" lon="6.81591"><ele>522.4</ele><time>2024-06-12T15:54:42Z</time></trkpt>
<trkpt lat="46.47451" lon="6.81611"><ele>521.8</ele><time>2024-06-12T15:54:44Z</time></trkpt>
<trkpt lat="46.47444" lon="6.81638"><ele>521.2</ele><time>2024-06-12T15:54:47Z</time></trkpt>
<trkpt lat="46.47438" lon="6.81667"><ele>520.6</ele><time>2024-06-12T15:54:50Z</time></trkpt>
<trkpt lat="46.47437" lon="6.81677"><ele>520.4</ele><time>2024-06-12T15:54:51Z</time></trkpt>
<trkpt lat="46.47438" lon="6.81686"><ele>520</ele><time>2024-06-12T15:54:52Z</time></trkpt>
<trkpt lat="46.4744" lon="6.81708"><ele>519.6</ele><time>2024-06-12T15:54:54Z</time></trkpt>
<trkpt lat="46.47442" lon="6.81731"><ele>518.2</ele><time>2024-06-12T15:54:56Z</time></trkpt>
<trkpt lat="46.47445" lon="6.81768"><ele>516.6</ele><time>2024-06-12T15:54:59Z</time></trkpt>
<trkpt lat="46.47445" lon="6.81781"><ele>515.8</ele><time>2024-06-12T15:55:00Z</time></trkpt>
<trkpt lat="46.47446" lon="6.81794"><ele>515.6</ele><time>2024-06-12T15:55:01Z</time></trkpt>
<trkpt lat="46.47449" lon="6.81847"><ele>515.6</ele><time>2024-06-12T15:55:06Z</time></trkpt>
<trkpt lat="46.47449" lon="6.81885"><ele>516.8</ele><time>2024-06-12T15:55:11Z</time></trkpt>
<trkpt lat="46.47448" lon="6.81892"><ele>517.2</ele><time>2024-06-12T15:55:12Z</time></trkpt>
<trkpt lat="46.47445" lon="6.81903"><ele>517.4</ele><time>2024-06-12T15:55:14Z</time></trkpt>
<trkpt lat="46.47443" lon="6.81908"><ele>517.6</ele><time>2024-06-12T15:55:15Z</time></trkpt>
<trkpt lat="46.47443" lon="6.81913"><ele>517.8</ele><time>2024-06-12T15:55:16Z</time></trkpt>
<trkpt lat="46.47444" lon="6.81918"><ele>518</ele><time>2024-06-12T15:55:17Z</time></trkpt>
<trkpt lat="46.47448" lon="6.81925"><ele>518.2</ele><time>2024-06-12T15:55:18Z</time></trkpt>
<trkpt lat="46.47452" lon="6.81926"><ele>519</ele><time>2024-06-12T15:55:20Z</time></trkpt>
<trkpt lat="46.4746" lon="6.81924"><ele>519.6</ele><time>2024-06-12T15:55:24Z</time></trkpt>
<trkpt lat="46.47461" lon="6.81924"><ele>520</ele><time>2024-06-12T15:55:26Z</time></trkpt>
<trkpt lat="46.47463" lon="6.8193"><ele>520.6</ele><time>2024-06-12T15:55:30Z</time></trkpt>
<trkpt lat="46.47464" lon="6.81931"><ele>520.6</ele><time>2024-06-12T15:55:31Z</time></trkpt>
<trkpt lat="46.47464" lon="6.81931"><ele>520.6</ele><time>2024-06-12T15:55:31Z</time></trkpt>
<trkpt lat="46.47464" lon="6.81931"><ele>520.6</ele><time>2024-06-12T15:55:31Z</time></trkpt>
<trkpt lat="46.47464" lon="6.81931"><ele>520.6</ele><time>2024-06-12T15:55:31Z</time></trkpt>
<trkpt lat="46.47464" lon="6.81931"><ele>520.6</ele><time>2024-06-12T15:55:31Z</time></trkpt>
<trkpt lat="46.47464" lon="6.81931"><ele>520.6</ele><time>2024-06-12T15:55:31Z</time></trkpt>
<trkpt lat="46.47483" lon="6.81981"><ele>525.2</ele><time>2024-06-12T15:56:00Z</time></trkpt>
<trkpt lat="46.47486" lon="6.81978"><ele>525.2</ele><time>2024-06-12T15:56:01Z</time></trkpt>
<trkpt lat="46.47477" lon="6.81986"><ele>525.4</ele><time>2024-06-12T15:56:03Z</time></trkpt>
<trkpt lat="46.47475" lon="6.81992"><ele>525.6</ele><time>2024-06-12T15:56:04Z</time></trkpt>
<trkpt lat="46.47477" lon="6.81995"><ele>525.8</ele><time>2024-06-12T15:56:06Z</time></trkpt>
<trkpt lat="46.47482" lon="6.81995"><ele>526.4</ele><time>2024-06-12T15:56:10Z</time></trkpt>
<trkpt lat="46.47485" lon="6.81998"><ele>527.4</ele><time>2024-06-12T15:56:16Z</time></trkpt>
<trkpt lat="46.47485" lon="6.82004"><ele>527.4</ele><time>2024-06-12T15:56:19Z</time></trkpt>
<trkpt lat="46.47486" lon="6.8201"><ele>527.6</ele><time>2024-06-12T15:56:22Z</time></trkpt>
<trkpt lat="46.47485" lon="6.82014"><ele>528.6</ele><time>2024-06-12T15:56:25Z</time></trkpt>
<trkpt lat="46.47484" lon="6.82017"><ele>529.2</ele><time>2024-06-12T15:56:27Z</time></trkpt>
<trkpt lat="46.47483" lon="6.82021"><ele>529.8</ele><time>2024-06-12T15:56:30Z</time></trkpt>
<trkpt lat="46.47482" lon="6.82027"><ele>530.6</ele><time>2024-06-12T15:56:34Z</time></trkpt>
<trkpt lat="46.47482" lon="6.82029"><ele>530.8</ele><time>2024-06-12T15:56:35Z</time></trkpt>
<trkpt lat="46.47477" lon="6.82034"><ele>531.8</ele><time>2024-06-12T15:56:40Z</time></trkpt>
<trkpt lat="46.47476" lon="6.82036"><ele>532</ele><time>2024-06-12T15:56:42Z</time></trkpt>
<trkpt lat="46.47475" lon="6.82043"><ele>532.6</ele><time>2024-06-12T15:56:46Z</time></trkpt>
<trkpt lat="46.47475" lon="6.82048"><ele>533.2</ele><time>2024-06-12T15:56:50Z</time></trkpt>
<trkpt lat="46.47475" lon="6.82053"><ele>533.6</ele><time>2024-06-12T15:56:53Z</time></trkpt>
<trkpt lat="46.47475" lon="6.82055"><ele>533.8</ele><time>2024-06-12T15:56:55Z</time></trkpt>
<trkpt lat="46.47476" lon="6.82058"><ele>534.2</ele><time>2024-06-12T15:56:57Z</time></trkpt>
<trkpt lat="46.47475" lon="6.82062"><ele>534.6</ele><time>2024-06-12T15:56:59Z</time></trkpt>
<trkpt lat="46.47474" lon="6.82069"><ele>535.2</ele><time>2024-06-12T15:57:04Z</time></trkpt>
<trkpt lat="46.47476" lon="6.82072"><ele>535.4</ele><time>2024-06-12T15:57:07Z</time></trkpt>
<trkpt lat="46.47478" lon="6.82078"><ele>536.2</ele><time>2024-06-12T15:57:12Z</time></trkpt>
<trkpt lat="46.4748" lon="6.82082"><ele>536.4</ele><time>2024-06-12T15:57:15Z</time></trkpt>
<trkpt lat="46.47484" lon="6.82089"><ele>537.4</ele><time>2024-06-12T15:57:22Z</time></trkpt>
<trkpt lat="46.47485" lon="6.8209"><ele>537.6</ele><time>2024-06-12T15:57:23Z</time></trkpt>
<trkpt lat="46.47486" lon="6.82096"><ele>538.4</ele><time>2024-06-12T15:57:28Z</time></trkpt>
<trkpt lat="46.47487" lon="6.82097"><ele>538.4</ele><time>2024-06-12T15:57:29Z</time></trkpt>
<trkpt lat="46.47491" lon="6.821"><ele>539.4</ele><time>2024-06-12T15:57:34Z</time></trkpt>
<trkpt lat="46.47491" lon="6.82101"><ele>539.6</ele><time>2024-06-12T15:57:35Z</time></trkpt>
<trkpt lat="46.47493" lon="6.82106"><ele>540.2</ele><time>2024-06-12T15:57:39Z</time></trkpt>
<trkpt lat="46.47494" lon="6.82109"><ele>540.6</ele><time>2024-06-12T15:57:42Z</time></trkpt>
<trkpt lat="46.47496" lon="6.82112"><ele>541.6</ele><time>2024-06-12T15:57:46Z</time></trkpt>
<trkpt lat="46.47497" lon="6.82113"><ele>541.8</ele><time>2024-06-12T15:57:47Z</time></trkpt>
<trkpt lat="46.475" lon="6.82119"><ele>542.8</ele><time>2024-06-12T15:57:53Z</time></trkpt>
<trkpt lat="46.47503" lon="6.82124"><ele>543.8</ele><time>2024-06-12T15:57:59Z</time></trkpt>
<trkpt lat="46.47504" lon="6.82125"><ele>544</ele><time>2024-06-12T15:58:00Z</time></trkpt>
<trkpt lat="46.47507" lon="6.8213"><ele>544.8</ele><time>2024-06-12T15:58:06Z</time></trkpt>
<trkpt lat="46.47508" lon="6.82135"><ele>545.4</ele><time>2024-06-12T15:58:10Z</time></trkpt>
<trkpt lat="46.47508" lon="6.82136"><ele>545.4</ele><time>2024-06-12T15:58:11Z</time></trkpt>
<trkpt lat="46.47509" lon="6.82139"><ele>545.6</ele><time>2024-06-12T15:58:14Z</time></trkpt>
<trkpt lat="46.4751" lon="6.8214"><ele>546</ele><time>2024-06-12T15:58:16Z</time></trkpt>
<trkpt lat="46.47511" lon="6.82142"><ele>546.2</ele><time>2024-06-12T15:58:18Z</time></trkpt>
<trkpt lat="46.47512" lon="6.82146"><ele>547.2</ele><time>2024-06-12T15:58:22Z</time></trkpt>
<trkpt lat="46.47513" lon="6.82146"><ele>547.4</ele><time>2024-06-12T15:58:23Z</time></trkpt>
<trkpt lat="46.47515" lon="6.8215"><ele>548.2</ele><time>2024-06-12T15:58:28Z</time></trkpt>
<trkpt lat="46.47516" lon="6.82151"><ele>548.4</ele><time>2024-06-12T15:58:29Z</time></trkpt>
<trkpt lat="46.47519" lon="6.82158"><ele>549.2</ele><time>2024-06-12T15:58:36Z</time></trkpt>
<trkpt lat="46.47521" lon="6.82163"><ele>550.4</ele><time>2024-06-12T15:58:42Z</time></trkpt>
<trkpt lat="46.47522" lon="6.82165"><ele>550.6</ele><time>2024-06-12T15:58:44Z</time></trkpt>
<trkpt lat="46.47522" lon="6.82167"><ele>551</ele><time>2024-06-12T15:58:46Z</time></trkpt>
<trkpt lat="46.47522" lon="6.82171"><ele>551.4</ele><time>2024-06-12T15:58:49Z</time></trkpt>
<trkpt lat="46.47523" lon="6.82172"><ele>551.4</ele><time>2024-06-12T15:58:50Z</time></trkpt>
<trkpt lat="46.47525" lon="6.82176"><ele>552.2</ele><time>2024-06-12T15:58:54Z</time></trkpt>
<trkpt lat="46.47524" lon="6.82177"><ele>552.6</ele><time>2024-06-12T15:58:56Z</time></trkpt>
<trkpt lat="46.47523" lon="6.82179"><ele>552.6</ele><time>2024-06-12T15:58:57Z</time></trkpt>
<trkpt lat="46.47524" lon="6.82185"><ele>553</ele><time>2024-06-12T15:59:02Z</time></trkpt>
<trkpt lat="46.47523" lon="6.82189"><ele>553.6</ele><time>2024-06-12T15:59:06Z</time></trkpt>
<trkpt lat="46.47523" lon="6.82191"><ele>553.6</ele><time>2024-06-12T15:59:08Z</time></trkpt>
<trkpt lat="46.47523" lon="6.82191"><ele>554</ele><time>2024-06-12T15:59:14Z</time></trkpt>
<trkpt lat="46.47524" lon="6.822"><ele>554.4</ele><time>2024-06-12T15:59:20Z</time></trkpt>
<trkpt lat="46.47524" lon="6.82202"><ele>554.6</ele><time>2024-06-12T15:59:21Z</time></trkpt>
<trkpt lat="46.47524" lon="6.82203"><ele>554.6</ele><time>2024-06-12T15:59:22Z</time></trkpt>
<trkpt lat="46.47524" lon="6.82213"><ele>555.6</ele><time>2024-06-12T15:59:29Z</time></trkpt>
<trkpt lat="46.47524" lon="6.82214"><ele>555.8</ele><time>2024-06-12T15:59:30Z</time></trkpt>
<trkpt lat="46.47524" lon="6.82217"><ele>556</ele><time>2024-06-12T15:59:32Z</time></trkpt>
<trkpt lat="46.47524" lon="6.8222"><ele>556.2</ele><time>2024-06-12T15:59:34Z</time></trkpt>
<trkpt lat="46.47524" lon="6.82223"><ele>556.4</ele><time>2024-06-12T15:59:36Z</time></trkpt>
<trkpt lat="46.47524" lon="6.82225"><ele>556.8</ele><time>2024-06-12T15:59:38Z</time></trkpt>
<trkpt lat="46.47525" lon="6.82233"><ele>557.4</ele><time>2024-06-12T15:59:43Z</time></trkpt>
<trkpt lat="46.47525" lon="6.82237"><ele>557.8</ele><time>2024-06-12T15:59:46Z</time></trkpt>
<trkpt lat="46.47526" lon="6.82247"><ele>559</ele><time>2024-06-12T15:59:53Z</time></trkpt>
<trkpt lat="46.47526" lon="6.8225"><ele>559.2</ele><time>2024-06-12T15:59:55Z</time></trkpt>
<trkpt lat="46.47528" lon="6.82258"><ele>560</ele><time>2024-06-12T16:00:01Z</time></trkpt>
<trkpt lat="46.47528" lon="6.82259"><ele>560</ele><time>2024-06-12T16:00:02Z</time></trkpt>
<trkpt lat="46.47531" lon="6.8227"><ele>561</ele><time>2024-06-12T16:00:10Z</time></trkpt>
<trkpt lat="46.47533" lon="6.82279"><ele>562</ele><time>2024-06-12T16:00:17Z</time></trkpt>
<trkpt lat="46.47533" lon="6.8228"><ele>562.2</ele><time>2024-06-12T16:00:18Z</time></trkpt>
<trkpt lat="46.47535" lon="6.82286"><ele>563.2</ele><time>2024-06-12T16:00:24Z</time></trkpt>
<trkpt lat="46.4754" lon="6.82291"><ele>564.2</ele><time>2024-06-12T16:00:30Z</time></trkpt>
<trkpt lat="46.47541" lon="6.82292"><ele>564.4</ele><time>2024-06-12T16:00:32Z</time></trkpt>
<trkpt lat="46.47546" lon="6.82297"><ele>565.2</ele><time>2024-06-12T16:00:40Z</time></trkpt>
<trkpt lat="46.47547" lon="6.82297"><ele>565.4</ele><time>2024-06-12T16:00:41Z</time></trkpt>
<trkpt lat="46.47551" lon="6.823"><ele>566.2</ele><time>2024-06-12T16:00:47Z</time></trkpt>
<trkpt lat="46.47551" lon="6.82301"><ele>566.4</ele><time>2024-06-12T16:00:48Z</time></trkpt>
<trkpt lat="46.47559" lon="6.82301"><ele>567.4</ele><time>2024-06-12T16:00:55Z</time></trkpt>
<trkpt lat="46.47559" lon="6.82301"><ele>567.6</ele><time>2024-06-12T16:00:56Z</time></trkpt>
<trkpt lat="46.47565" lon="6.82302"><ele>568.4</ele><time>2024-06-12T16:01:02Z</time></trkpt>
<trkpt lat="46.47565" lon="6.82302"><ele>568.6</ele><time>2024-06-12T16:01:03Z</time></trkpt>
<trkpt lat="46.4757" lon="6.82305"><ele>569.4</ele><time>2024-06-12T16:01:08Z</time></trkpt>
<trkpt lat="46.47573" lon="6.82306"><ele>569.6</ele><time>2024-06-12T16:01:11Z</time></trkpt>
<trkpt lat="46.47574" lon="6.82307"><ele>569.8</ele><time>2024-06-12T16:01:13Z</time></trkpt>
<trkpt lat="46.47579" lon="6.8231"><ele>570.6</ele><time>2024-06-12T16:01:18Z</time></trkpt>
<trkpt lat="46.47579" lon="6.82311"><ele>570.8</ele><time>2024-06-12T16:01:19Z</time></trkpt>
<trkpt lat="46.47583" lon="6.82318"><ele>571.4</ele><time>2024-06-12T16:01:24Z</time></trkpt>
<trkpt lat="46.47584" lon="6.82321"><ele>571.6</ele><time>2024-06-12T16:01:26Z</time></trkpt>
<trkpt lat="46.47588" lon="6.82328"><ele>572.6</ele><time>2024-06-12T16:01:31Z</time></trkpt>
<trkpt lat="46.47588" lon="6.8233"><ele>572.6</ele><time>2024-06-12T16:01:32Z</time></trkpt>
<trkpt lat="46.47593" lon="6.82341"><ele>573.6</ele><time>2024-06-12T16:01:39Z</time></trkpt>
<trkpt lat="46.47593" lon="6.82342"><ele>573.8</ele><time>2024-06-12T16:01:40Z</time></trkpt>
<trkpt lat="46.47597" lon="6.82351"><ele>574.6</ele><time>2024-06-12T16:01:46Z</time></trkpt>
<trkpt lat="46.47598" lon="6.82352"><ele>575</ele><time>2024-06-12T16:01:47Z</time></trkpt>
<trkpt lat="46.47601" lon="6.82362"><ele>576</ele><time>2024-06-12T16:01:54Z</time></trkpt>
<trkpt lat="46.47602" lon="6.82363"><ele>576.2</ele><time>2024-06-12T16:01:55Z</time></trkpt>
<trkpt lat="46.47606" lon="6.82373"><ele>577</ele><time>2024-06-12T16:02:02Z</time></trkpt>
<trkpt lat="46.47607" lon="6.82374"><ele>577</ele><time>2024-06-12T16:02:03Z</time></trkpt>
<trkpt lat="46.47614" lon="6.82391"><ele>577</ele><time>2024-06-12T16:02:09Z</time></trkpt>
<trkpt lat="46.4762" lon="6.82409"><ele>577.4</ele><time>2024-06-12T16:02:16Z</time></trkpt>
<trkpt lat="46.47621" lon="6.82414"><ele>578.2</ele><time>2024-06-12T16:02:19Z</time></trkpt>
<trkpt lat="46.47622" lon="6.8242"><ele>579</ele><time>2024-06-12T16:02:23Z</time></trkpt>
<trkpt lat="46.47622" lon="6.82422"><ele>579.2</ele><time>2024-06-12T16:02:24Z</time></trkpt>
<trkpt lat="46.47623" lon="6.8243"><ele>580.2</ele><time>2024-06-12T16:02:29Z</time></trkpt>
<trkpt lat="46.47623" lon="6.82432"><ele>580.4</ele><time>2024-06-12T16:02:31Z</time></trkpt>
<trkpt lat="46.47624" lon="6.8244"><ele>581.2</ele><time>2024-06-12T16:02:36Z</time></trkpt>
<trkpt lat="46.47625" lon="6.82443"><ele>581.4</ele><time>2024-06-12T16:02:38Z</time></trkpt>
<trkpt lat="46.47626" lon="6.82451"><ele>582.2</ele><time>2024-06-12T16:02:43Z</time></trkpt>
<trkpt lat="46.47626" lon="6.82452"><ele>582.4</ele><time>2024-06-12T16:02:44Z</time></trkpt>
<trkpt lat="46.47628" lon="6.82461"><ele>583.2</ele><time>2024-06-12T16:02:50Z</time></trkpt>
<trkpt lat="46.47627" lon="6.82473"><ele>584.4</ele><time>2024-06-12T16:02:57Z</time></trkpt>
<trkpt lat="46.47628" lon="6.82474"><ele>584.6</ele><time>2024-06-12T16:02:58Z</time></trkpt>
<trkpt lat="46.47629" lon="6.82484"><ele>585.4</ele><time>2024-06-12T16:03:06Z</time></trkpt>
<trkpt lat="46.47627" lon="6.82483"><ele>585.4</ele><time>2024-06-12T16:03:07Z</time></trkpt>
<trkpt lat="46.47627" lon="6.8248"><ele>585.4</ele><time>2024-06-12T16:03:09Z</time></trkpt>
<trkpt lat="46.47626" lon="6.82478"><ele>585</ele><time>2024-06-12T16:03:14Z</time></trkpt>
<trkpt lat="46.47629" lon="6.82476"><ele>585.2</ele><time>2024-06-12T16:03:24Z</time></trkpt>
<trkpt lat="46.47631" lon="6.82476"><ele>585</ele><time>2024-06-12T16:03:28Z</time></trkpt>
<trkpt lat="46.47632" lon="6.82476"><ele>584.8</ele><time>2024-06-12T16:03:31Z</time></trkpt>
<trkpt lat="46.47632" lon="6.82477"><ele>584.6</ele><time>2024-06-12T16:03:40Z</time></trkpt>
<trkpt lat="46.47632" lon="6.82476"><ele>584.6</ele><time>2024-06-12T16:03:42Z</time></trkpt>
<trkpt lat="46.47632" lon="6.82476"><ele>584.6</ele><time>2024-06-12T16:03:44Z</time></trkpt>
<trkpt lat="46.47632" lon="6.82475"><ele>584.6</ele><time>2024-06-12T16:03:47Z</time></trkpt>
<trkpt lat="46.47632" lon="6.82475"><ele>584.4</ele><time>2024-06-12T16:03:54Z</time></trkpt>
<trkpt lat="46.47632" lon="6.82475"><ele>584.4</ele><time>2024-06-12T16:03:55Z</time></trkpt>
<trkpt lat="46.47629" lon="6.82474"><ele>584.4</ele><time>2024-06-12T16:04:00Z</time></trkpt>
<trkpt lat="46.47629" lon="6.82474"><ele>584.6</ele><time>2024-06-12T16:04:01Z</time></trkpt>
<trkpt lat="46.47628" lon="6.82476"><ele>584.6</ele><time>2024-06-12T16:04:02Z</time></trkpt>
<trkpt lat="46.4763" lon="6.82484"><ele>585</ele><time>2024-06-12T16:04:06Z</time></trkpt>
<trkpt lat="46.47634" lon="6.8249"><ele>585.6</ele><time>2024-06-12T16:04:09Z</time></trkpt>
<trkpt lat="46.47636" lon="6.82503"><ele>586</ele><time>2024-06-12T16:04:14Z</time></trkpt>
<trkpt lat="46.47638" lon="6.82518"><ele>586.4</ele><time>2024-06-12T16:04:19Z</time></trkpt>
<trkpt lat="46.4764" lon="6.82534"><ele>586.6</ele><time>2024-06-12T16:04:24Z</time></trkpt>
<trkpt lat="46.47643" lon="6.8255"><ele>586.6</ele><time>2024-06-12T16:04:28Z</time></trkpt>
<trkpt lat="46.47648" lon="6.82568"><ele>587</ele><time>2024-06-12T16:04:34Z</time></trkpt>
<trkpt lat="46.47652" lon="6.82582"><ele>587.4</ele><time>2024-06-12T16:04:38Z</time></trkpt>
<trkpt lat="46.47653" lon="6.8259"><ele>587.4</ele><time>2024-06-12T16:04:40Z</time></trkpt>
<trkpt lat="46.47654" lon="6.82599"><ele>587.6</ele><time>2024-06-12T16:04:42Z</time></trkpt>
<trkpt lat="46.47656" lon="6.82617"><ele>587.6</ele><time>2024-06-12T16:04:47Z</time></trkpt>
<trkpt lat="46.47659" lon="6.82632"><ele>587.8</ele><time>2024-06-12T16:04:50Z</time></trkpt>
<trkpt lat="46.4766" lon="6.8264"><ele>587.8</ele><time>2024-06-12T16:04:52Z</time></trkpt>
<trkpt lat="46.47661" lon="6.82646"><ele>588</ele><time>2024-06-12T16:04:54Z</time></trkpt>
<trkpt lat="46.47663" lon="6.82657"><ele>588.6</ele><time>2024-06-12T16:04:57Z</time></trkpt>
<trkpt lat="46.47665" lon="6.8266"><ele>588.6</ele><time>2024-06-12T16:04:58Z</time></trkpt>
<trkpt lat="46.47667" lon="6.82673"><ele>589.6</ele><time>2024-06-12T16:05:04Z</time></trkpt>
<trkpt lat="46.47667" lon="6.82674"><ele>589.8</ele><time>2024-06-12T16:05:05Z</time></trkpt>
<trkpt lat="46.4767" lon="6.82671"><ele>590</ele><time>2024-06-12T16:05:08Z</time></trkpt>
<trkpt lat="46.47674" lon="6.82663"><ele>590.8</ele><time>2024-06-12T16:05:14Z</time></trkpt>
<trkpt lat="46.47675" lon="6.82662"><ele>590.8</ele><time>2024-06-12T16:05:15Z</time></trkpt>
<trkpt lat="46.47677" lon="6.82662"><ele>591</ele><time>2024-06-12T16:05:16Z</time></trkpt>
<trkpt lat="46.4768" lon="6.82655"><ele>591.8</ele><time>2024-06-12T16:05:22Z</time></trkpt>
<trkpt lat="46.4768" lon="6.82654"><ele>592</ele><time>2024-06-12T16:05:23Z</time></trkpt>
<trkpt lat="46.47679" lon="6.82646"><ele>593</ele><time>2024-06-12T16:05:28Z</time></trkpt>
<trkpt lat="46.47679" lon="6.82642"><ele>593.4</ele><time>2024-06-12T16:05:30Z</time></trkpt>
<trkpt lat="46.4768" lon="6.82638"><ele>594.2</ele><time>2024-06-12T16:05:33Z</time></trkpt>
<trkpt lat="46.47679" lon="6.82633"><ele>594.8</ele><time>2024-06-12T16:05:36Z</time></trkpt>
<trkpt lat="46.47678" lon="6.82627"><ele>595</ele><time>2024-06-12T16:05:39Z</time></trkpt>
<trkpt lat="46.47677" lon="6.82621"><ele>595.2</ele><time>2024-06-12T16:05:43Z</time></trkpt>
<trkpt lat="46.47677" lon="6.8262"><ele>595.2</ele><time>2024-06-12T16:05:44Z</time></trkpt>
<trkpt lat="46.47677" lon="6.82608"><ele>595.6</ele><time>2024-06-12T16:05:50Z</time></trkpt>
<trkpt lat="46.47678" lon="6.82597"><ele>596.4</ele><time>2024-06-12T16:05:55Z</time></trkpt>
<trkpt lat="46.47679" lon="6.82592"><ele>596.8</ele><time>2024-06-12T16:05:58Z</time></trkpt>
<trkpt lat="46.4768" lon="6.82581"><ele>597.4</ele><time>2024-06-12T16:06:04Z</time></trkpt>
<trkpt lat="46.47681" lon="6.8258"><ele>597.4</ele><time>2024-06-12T16:06:05Z</time></trkpt>
<trkpt lat="46.47682" lon="6.82574"><ele>598.4</ele><time>2024-06-12T16:06:08Z</time></trkpt>
<trkpt lat="46.47685" lon="6.82571"><ele>599.2</ele><time>2024-06-12T16:06:12Z</time></trkpt>
<trkpt lat="46.47686" lon="6.82569"><ele>599.6</ele><time>2024-06-12T16:06:14Z</time></trkpt>
<trkpt lat="46.47687" lon="6.82567"><ele>599.8</ele><time>2024-06-12T16:06:17Z</time></trkpt>
<trkpt lat="46.47689" lon="6.82566"><ele>600.6</ele><time>2024-06-12T16:06:20Z</time></trkpt>
<trkpt lat="46.4769" lon="6.82565"><ele>600.8</ele><time>2024-06-12T16:06:21Z</time></trkpt>
<trkpt lat="46.47691" lon="6.82562"><ele>601.6</ele><time>2024-06-12T16:06:24Z</time></trkpt>
<trkpt lat="46.47691" lon="6.82561"><ele>601.8</ele><time>2024-06-12T16:06:25Z</time></trkpt>
<trkpt lat="46.47694" lon="6.82553"><ele>602.8</ele><time>2024-06-12T16:06:31Z</time></trkpt>
<trkpt lat="46.47694" lon="6.82552"><ele>603</ele><time>2024-06-12T16:06:32Z</time></trkpt>
<trkpt lat="46.47695" lon="6.82545"><ele>604</ele><time>2024-06-12T16:06:38Z</time></trkpt>
<trkpt lat="46.47695" lon="6.82544"><ele>604.2</ele><time>2024-06-12T16:06:39Z</time></trkpt>
<trkpt lat="46.47696" lon="6.82536"><ele>605</ele><time>2024-06-12T16:06:45Z</time></trkpt>
<trkpt lat="46.47697" lon="6.82533"><ele>605.4</ele><time>2024-06-12T16:06:47Z</time></trkpt>
<trkpt lat="46.47699" lon="6.82528"><ele>606</ele><time>2024-06-12T16:06:52Z</time></trkpt>
<trkpt lat="46.477" lon="6.82527"><ele>606.2</ele><time>2024-06-12T16:06:53Z</time></trkpt>
<trkpt lat="46.47702" lon="6.8252"><ele>607.2</ele><time>2024-06-12T16:06:59Z</time></trkpt>
<trkpt lat="46.47702" lon="6.82516"><ele>607.8</ele><time>2024-06-12T16:07:02Z</time></trkpt>
<trkpt lat="46.47703" lon="6.82512"><ele>608.2</ele><time>2024-06-12T16:07:05Z</time></trkpt>
<trkpt lat="46.47703" lon="6.82507"><ele>608.8</ele><time>2024-06-12T16:07:08Z</time></trkpt>
<trkpt lat="46.47704" lon="6.82501"><ele>609.4</ele><time>2024-06-12T16:07:12Z</time></trkpt>
<trkpt lat="46.47705" lon="6.82497"><ele>609.8</ele><time>2024-06-12T16:07:15Z</time></trkpt>
<trkpt lat="46.47707" lon="6.82492"><ele>610.4</ele><time>2024-06-12T16:07:20Z</time></trkpt>
<trkpt lat="46.47708" lon="6.82487"><ele>611</ele><time>2024-06-12T16:07:23Z</time></trkpt>
<trkpt lat="46.47709" lon="6.82483"><ele>611.6</ele><time>2024-06-12T16:07:26Z</time></trkpt>
<trkpt lat="46.4771" lon="6.8248"><ele>612</ele><time>2024-06-12T16:07:29Z</time></trkpt>
<trkpt lat="46.47711" lon="6.82479"><ele>612.2</ele><time>2024-06-12T16:07:30Z</time></trkpt>
<trkpt lat="46.47712" lon="6.82475"><ele>612.8</ele><time>2024-06-12T16:07:33Z</time></trkpt>
<trkpt lat="46.47715" lon="6.82468"><ele>614</ele><time>2024-06-12T16:07:39Z</time></trkpt>
<trkpt lat="46.47715" lon="6.82459"><ele>615.2</ele><time>2024-06-12T16:07:45Z</time></trkpt>
<trkpt lat="46.47715" lon="6.82458"><ele>615.4</ele><time>2024-06-12T16:07:46Z</time></trkpt>
<trkpt lat="46.47714" lon="6.82453"><ele>616.2</ele><time>2024-06-12T16:07:52Z</time></trkpt>
<trkpt lat="46.47712" lon="6.8245"><ele>616.8</ele><time>2024-06-12T16:07:56Z</time></trkpt>
<trkpt lat="46.47712" lon="6.82448"><ele>617.2</ele><time>2024-06-12T16:07:58Z</time></trkpt>
<trkpt lat="46.47714" lon="6.82445"><ele>617.4</ele><time>2024-06-12T16:08:00Z</time></trkpt>
<trkpt lat="46.47715" lon="6.82444"><ele>617.4</ele><time>2024-06-12T16:08:01Z</time></trkpt>
<trkpt lat="46.47717" lon="6.82445"><ele>617.6</ele><time>2024-06-12T16:08:04Z</time></trkpt>
<trkpt lat="46.47721" lon="6.82439"><ele>618.4</ele><time>2024-06-12T16:08:11Z</time></trkpt>
<trkpt lat="46.47721" lon="6.82438"><ele>618.6</ele><time>2024-06-12T16:08:12Z</time></trkpt>
<trkpt lat="46.47721" lon="6.82433"><ele>619.4</ele><time>2024-06-12T16:08:16Z</time></trkpt>
<trkpt lat="46.47722" lon="6.82431"><ele>620</ele><time>2024-06-12T16:08:18Z</time></trkpt>
<trkpt lat="46.47722" lon="6.8243"><ele>620.4</ele><time>2024-06-12T16:08:20Z</time></trkpt>
<trkpt lat="46.47722" lon="6.82428"><ele>620.6</ele><time>2024-06-12T16:08:21Z</time></trkpt>
<trkpt lat="46.47722" lon="6.82425"><ele>621</ele><time>2024-06-12T16:08:24Z</time></trkpt>
<trkpt lat="46.47723" lon="6.82422"><ele>621.6</ele><time>2024-06-12T16:08:27Z</time></trkpt>
<trkpt lat="46.47724" lon="6.82421"><ele>622.2</ele><time>2024-06-12T16:08:30Z</time></trkpt>
<trkpt lat="46.47724" lon="6.82419"><ele>622.8</ele><time>2024-06-12T16:08:32Z</time></trkpt>
<trkpt lat="46.47725" lon="6.82415"><ele>623.4</ele><time>2024-06-12T16:08:36Z</time></trkpt>
<trkpt lat="46.47726" lon="6.82411"><ele>624</ele><time>2024-06-12T16:08:39Z</time></trkpt>
<trkpt lat="46.47726" lon="6.82407"><ele>624.6</ele><time>2024-06-12T16:08:43Z</time></trkpt>
<trkpt lat="46.47727" lon="6.82401"><ele>625.2</ele><time>2024-06-12T16:08:48Z</time></trkpt>
<trkpt lat="46.47727" lon="6.82401"><ele>625.2</ele><time>2024-06-12T16:08:49Z</time></trkpt>
<trkpt lat="46.47728" lon="6.82393"><ele>626</ele><time>2024-06-12T16:08:54Z</time></trkpt>
<trkpt lat="46.47728" lon="6.82392"><ele>626.2</ele><time>2024-06-12T16:08:55Z</time></trkpt>
<trkpt lat="46.4773" lon="6.82391"><ele>626.6</ele><time>2024-06-12T16:08:57Z</time></trkpt>
<trkpt lat="46.47731" lon="6.82394"><ele>626.8</ele><time>2024-06-12T16:08:59Z</time></trkpt>
<trkpt lat="46.47737" lon="6.82403"><ele>627.2</ele><time>2024-06-12T16:09:05Z</time></trkpt>
<trkpt lat="46.47737" lon="6.82404"><ele>627.4</ele><time>2024-06-12T16:09:06Z</time></trkpt>
<trkpt lat="46.47742" lon="6.82407"><ele>627.8</ele><time>2024-06-12T16:09:11Z</time></trkpt>
<trkpt lat="46.47743" lon="6.8241"><ele>627.8</ele><time>2024-06-12T16:09:13Z</time></trkpt>
<trkpt lat="46.47742" lon="6.82416"><ele>628.6</ele><time>2024-06-12T16:09:16Z</time></trkpt>
<trkpt lat="46.47745" lon="6.8242"><ele>628.8</ele><time>2024-06-12T16:09:21Z</time></trkpt>
<trkpt lat="46.47746" lon="6.82421"><ele>629.2</ele><time>2024-06-12T16:09:22Z</time></trkpt>
<trkpt lat="46.47747" lon="6.82423"><ele>629.6</ele><time>2024-06-12T16:09:26Z</time></trkpt>
<trkpt lat="46.47749" lon="6.82422"><ele>629.8</ele><time>2024-06-12T16:09:28Z</time></trkpt>
<trkpt lat="46.47752" lon="6.8242"><ele>630.6</ele><time>2024-06-12T16:09:33Z</time></trkpt>
<trkpt lat="46.47752" lon="6.82417"><ele>630.8</ele><time>2024-06-12T16:09:35Z</time></trkpt>
<trkpt lat="46.47752" lon="6.82406"><ele>631.4</ele><time>2024-06-12T16:09:43Z</time></trkpt>
<trkpt lat="46.47753" lon="6.82405"><ele>631.8</ele><time>2024-06-12T16:09:44Z</time></trkpt>
<trkpt lat="46.47756" lon="6.82401"><ele>632.4</ele><time>2024-06-12T16:09:49Z</time></trkpt>
<trkpt lat="46.47758" lon="6.82397"><ele>632.8</ele><time>2024-06-12T16:09:52Z</time></trkpt>
<trkpt lat="46.47758" lon="6.82394"><ele>633</ele><time>2024-06-12T16:09:54Z</time></trkpt>
<trkpt lat="46.4776" lon="6.82388"><ele>633.8</ele><time>2024-06-12T16:09:59Z</time></trkpt>
<trkpt lat="46.47761" lon="6.82387"><ele>634</ele><time>2024-06-12T16:10:00Z</time></trkpt>
<trkpt lat="46.47765" lon="6.82383"><ele>635</ele><time>2024-06-12T16:10:07Z</time></trkpt>
<trkpt lat="46.47771" lon="6.8238"><ele>636</ele><time>2024-06-12T16:10:14Z</time></trkpt>
<trkpt lat="46.47776" lon="6.82377"><ele>636.8</ele><time>2024-06-12T16:10:20Z</time></trkpt>
<trkpt lat="46.47777" lon="6.82377"><ele>637</ele><time>2024-06-12T16:10:21Z</time></trkpt>
<trkpt lat="46.47781" lon="6.82374"><ele>638</ele><time>2024-06-12T16:10:28Z</time></trkpt>
<trkpt lat="46.47781" lon="6.82375"><ele>638.2</ele><time>2024-06-12T16:10:29Z</time></trkpt>
<trkpt lat="46.47787" lon="6.82374"><ele>639.2</ele><time>2024-06-12T16:10:37Z</time></trkpt>
<trkpt lat="46.47788" lon="6.82373"><ele>639.2</ele><time>2024-06-12T16:10:38Z</time></trkpt>
<trkpt lat="46.47791" lon="6.82368"><ele>640</ele><time>2024-06-12T16:10:43Z</time></trkpt>
<trkpt lat="46.47792" lon="6.82367"><ele>640.2</ele><time>2024-06-12T16:10:44Z</time></trkpt>
<trkpt lat="46.47797" lon="6.82367"><ele>641</ele><time>2024-06-12T16:10:49Z</time></trkpt>
<trkpt lat="46.47799" lon="6.82365"><ele>641.2</ele><time>2024-06-12T16:10:51Z</time></trkpt>
<trkpt lat="46.478" lon="6.82356"><ele>641.4</ele><time>2024-06-12T16:10:55Z</time></trkpt>
<trkpt lat="46.47801" lon="6.82345"><ele>642.2</ele><time>2024-06-12T16:11:01Z</time></trkpt>
<trkpt lat="46.478" lon="6.82343"><ele>642.4</ele><time>2024-06-12T16:11:02Z</time></trkpt>
<trkpt lat="46.478" lon="6.82329"><ele>643</ele><time>2024-06-12T16:11:09Z</time></trkpt>
<trkpt lat="46.478" lon="6.82325"><ele>643.2</ele><time>2024-06-12T16:11:11Z</time></trkpt>
<trkpt lat="46.47799" lon="6.82311"><ele>643.8</ele><time>2024-06-12T16:11:18Z</time></trkpt>
<trkpt lat="46.47798" lon="6.82301"><ele>644.4</ele><time>2024-06-12T16:11:23Z</time></trkpt>
<trkpt lat="46.47798" lon="6.82297"><ele>644.4</ele><time>2024-06-12T16:11:25Z</time></trkpt>
<trkpt lat="46.47798" lon="6.82284"><ele>645.2</ele><time>2024-06-12T16:11:32Z</time></trkpt>
<trkpt lat="46.47798" lon="6.82276"><ele>645.4</ele><time>2024-06-12T16:11:36Z</time></trkpt>
<trkpt lat="46.47798" lon="6.82272"><ele>645.6</ele><time>2024-06-12T16:11:38Z</time></trkpt>
<trkpt lat="46.47799" lon="6.82257"><ele>646.2</ele><time>2024-06-12T16:11:45Z</time></trkpt>
<trkpt lat="46.478" lon="6.82249"><ele>646.6</ele><time>2024-06-12T16:11:49Z</time></trkpt>
<trkpt lat="46.47802" lon="6.82242"><ele>646.8</ele><time>2024-06-12T16:11:53Z</time></trkpt>
<trkpt lat="46.47805" lon="6.82227"><ele>647.4</ele><time>2024-06-12T16:12:01Z</time></trkpt>
<trkpt lat="46.47805" lon="6.82226"><ele>647.4</ele><time>2024-06-12T16:12:02Z</time></trkpt>
<trkpt lat="46.47806" lon="6.82224"><ele>647.6</ele><time>2024-06-12T16:12:03Z</time></trkpt>
<trkpt lat="46.47807" lon="6.82216"><ele>648</ele><time>2024-06-12T16:12:08Z</time></trkpt>
<trkpt lat="46.47806" lon="6.82213"><ele>648.2</ele><time>2024-06-12T16:12:10Z</time></trkpt>
<trkpt lat="46.47806" lon="6.82211"><ele>648.2</ele><time>2024-06-12T16:12:11Z</time></trkpt>
<trkpt lat="46.47807" lon="6.82209"><ele>648.2</ele><time>2024-06-12T16:12:12Z</time></trkpt>
<trkpt lat="46.47808" lon="6.82208"><ele>648.6</ele><time>2024-06-12T16:12:14Z</time></trkpt>
<trkpt lat="46.47808" lon="6.82205"><ele>648.8</ele><time>2024-06-12T16:12:16Z</time></trkpt>
<trkpt lat="46.47808" lon="6.82197"><ele>649.4</ele><time>2024-06-12T16:12:22Z</time></trkpt>
<trkpt lat="46.47807" lon="6.82195"><ele>649.6</ele><time>2024-06-12T16:12:24Z</time></trkpt>
<trkpt lat="46.47806" lon="6.82192"><ele>650</ele><time>2024-06-12T16:12:26Z</time></trkpt>
<trkpt lat="46.47807" lon="6.8219"><ele>650.2</ele><time>2024-06-12T16:12:28Z</time></trkpt>
<trkpt lat="46.47809" lon="6.82184"><ele>650.6</ele><time>2024-06-12T16:12:33Z</time></trkpt>
<trkpt lat="46.47808" lon="6.82181"><ele>650.8</ele><time>2024-06-12T16:12:35Z</time></trkpt>
<trkpt lat="46.47808" lon="6.82173"><ele>651.6</ele><time>2024-06-12T16:12:42Z</time></trkpt>
<trkpt lat="46.4781" lon="6.82165"><ele>652.4</ele><time>2024-06-12T16:12:48Z</time></trkpt>
<trkpt lat="46.47809" lon="6.82161"><ele>652.8</ele><time>2024-06-12T16:12:51Z</time></trkpt>
<trkpt lat="46.4781" lon="6.8216"><ele>652.8</ele><time>2024-06-12T16:12:52Z</time></trkpt>
<trkpt lat="46.4781" lon="6.82157"><ele>653.4</ele><time>2024-06-12T16:12:55Z</time></trkpt>
<trkpt lat="46.47811" lon="6.82154"><ele>653.8</ele><time>2024-06-12T16:12:58Z</time></trkpt>
<trkpt lat="46.47812" lon="6.82149"><ele>654.4</ele><time>2024-06-12T16:13:02Z</time></trkpt>
<trkpt lat="46.47812" lon="6.82145"><ele>654.8</ele><time>2024-06-12T16:13:05Z</time></trkpt>
<trkpt lat="46.47813" lon="6.82142"><ele>655.2</ele><time>2024-06-12T16:13:08Z</time></trkpt>
<trkpt lat="46.47812" lon="6.82135"><ele>656</ele><time>2024-06-12T16:13:13Z</time></trkpt>
<trkpt lat="46.47812" lon="6.82133"><ele>656.2</ele><time>2024-06-12T16:13:15Z</time></trkpt>
<trkpt lat="46.47813" lon="6.82127"><ele>657</ele><time>2024-06-12T16:13:19Z</time></trkpt>
<trkpt lat="46.47813" lon="6.82123"><ele>657.6</ele><time>2024-06-12T16:13:23Z</time></trkpt>
<trkpt lat="46.47812" lon="6.82121"><ele>658</ele><time>2024-06-12T16:13:26Z</time></trkpt>
<trkpt lat="46.47813" lon="6.82117"><ele>658.4</ele><time>2024-06-12T16:13:29Z</time></trkpt>
<trkpt lat="46.47811" lon="6.82113"><ele>659</ele><time>2024-06-12T16:13:33Z</time></trkpt>
<trkpt lat="46.47811" lon="6.82112"><ele>659.2</ele><time>2024-06-12T16:13:34Z</time></trkpt>
<trkpt lat="46.4781" lon="6.82111"><ele>659.4</ele><time>2024-06-12T16:13:36Z</time></trkpt>
<trkpt lat="46.47811" lon="6.82108"><ele>659.8</ele><time>2024-06-12T16:13:39Z</time></trkpt>
<trkpt lat="46.47811" lon="6.82104"><ele>660</ele><time>2024-06-12T16:13:43Z</time></trkpt>
<trkpt lat="46.47811" lon="6.82103"><ele>660.2</ele><time>2024-06-12T16:13:44Z</time></trkpt>
<trkpt lat="46.47811" lon="6.82102"><ele>660.2</ele><time>2024-06-12T16:13:45Z</time></trkpt>
<trkpt lat="46.4781" lon="6.82096"><ele>661</ele><time>2024-06-12T16:13:52Z</time></trkpt>
<trkpt lat="46.4781" lon="6.82095"><ele>661.2</ele><time>2024-06-12T16:13:53Z</time></trkpt>
<trkpt lat="46.47809" lon="6.82088"><ele>662</ele><time>2024-06-12T16:13:59Z</time></trkpt>
<trkpt lat="46.47809" lon="6.82087"><ele>662.2</ele><time>2024-06-12T16:14:00Z</time></trkpt>
<trkpt lat="46.47808" lon="6.82081"><ele>663.2</ele><time>2024-06-12T16:14:05Z</time></trkpt>
<trkpt lat="46.47808" lon="6.82079"><ele>663.4</ele><time>2024-06-12T16:14:06Z</time></trkpt>
<trkpt lat="46.47807" lon="6.82074"><ele>664.4</ele><time>2024-06-12T16:14:11Z</time></trkpt>
<trkpt lat="46.47806" lon="6.82071"><ele>664.8</ele><time>2024-06-12T16:14:13Z</time></trkpt>
<trkpt lat="46.47806" lon="6.82067"><ele>665.6</ele><time>2024-06-12T16:14:17Z</time></trkpt>
<trkpt lat="46.47806" lon="6.82066"><ele>666</ele><time>2024-06-12T16:14:19Z</time></trkpt>
<trkpt lat="46.47805" lon="6.82062"><ele>666.8</ele><time>2024-06-12T16:14:23Z</time></trkpt>
<trkpt lat="46.47805" lon="6.82058"><ele>667.4</ele><time>2024-06-12T16:14:26Z</time></trkpt>
<trkpt lat="46.47805" lon="6.82056"><ele>667.8</ele><time>2024-06-12T16:14:28Z</time></trkpt>
<trkpt lat="46.47807" lon="6.82051"><ele>669</ele><time>2024-06-12T16:14:33Z</time></trkpt>
<trkpt lat="46.47807" lon="6.82044"><ele>670</ele><time>2024-06-12T16:14:40Z</time></trkpt>
<trkpt lat="46.47808" lon="6.82038"><ele>670.6</ele><time>2024-06-12T16:14:45Z</time></trkpt>
<trkpt lat="46.4781" lon="6.82036"><ele>671</ele><time>2024-06-12T16:14:47Z</time></trkpt>
<trkpt lat="46.4781" lon="6.82036"><ele>671.2</ele><time>2024-06-12T16:14:48Z</time></trkpt>
<trkpt lat="46.47812" lon="6.8203"><ele>672.4</ele><time>2024-06-12T16:14:54Z</time></trkpt>
<trkpt lat="46.47813" lon="6.82027"><ele>673</ele><time>2024-06-12T16:14:57Z</time></trkpt>
<trkpt lat="46.47813" lon="6.82026"><ele>673.4</ele><time>2024-06-12T16:14:59Z</time></trkpt>
<trkpt lat="46.47813" lon="6.82025"><ele>673.4</ele><time>2024-06-12T16:15:00Z</time></trkpt>
<trkpt lat="46.47814" lon="6.82019"><ele>674.4</ele><time>2024-06-12T16:15:06Z</time></trkpt>
<trkpt lat="46.47814" lon="6.82014"><ele>675.2</ele><time>2024-06-12T16:15:11Z</time></trkpt>
<trkpt lat="46.47814" lon="6.82012"><ele>675.6</ele><time>2024-06-12T16:15:13Z</time></trkpt>
<trkpt lat="46.47813" lon="6.82006"><ele>676.2</ele><time>2024-06-12T16:15:17Z</time></trkpt>
<trkpt lat="46.47814" lon="6.82004"><ele>676.6</ele><time>2024-06-12T16:15:19Z</time></trkpt>
<trkpt lat="46.47813" lon="6.82001"><ele>677</ele><time>2024-06-12T16:15:22Z</time></trkpt>
<trkpt lat="46.47813" lon="6.81998"><ele>677.6</ele><time>2024-06-12T16:15:25Z</time></trkpt>
<trkpt lat="46.47814" lon="6.81997"><ele>677.6</ele><time>2024-06-12T16:15:26Z</time></trkpt>
<trkpt lat="46.47815" lon="6.81995"><ele>678.2</ele><time>2024-06-12T16:15:28Z</time></trkpt>
<trkpt lat="46.47815" lon="6.81992"><ele>678.2</ele><time>2024-06-12T16:15:30Z</time></trkpt>
<trkpt lat="46.47814" lon="6.81991"><ele>678.8</ele><time>2024-06-12T16:15:33Z</time></trkpt>
<trkpt lat="46.47814" lon="6.81986"><ele>679.6</ele><time>2024-06-12T16:15:38Z</time></trkpt>
<trkpt lat="46.47815" lon="6.81985"><ele>679.8</ele><time>2024-06-12T16:15:39Z</time></trkpt>
<trkpt lat="46.47815" lon="6.8198"><ele>680.6</ele><time>2024-06-12T16:15:45Z</time></trkpt>
<trkpt lat="46.47814" lon="6.81978"><ele>680.8</ele><time>2024-06-12T16:15:47Z</time></trkpt>
<trkpt lat="46.47814" lon="6.81974"><ele>681.4</ele><time>2024-06-12T16:15:51Z</time></trkpt>
<trkpt lat="46.47816" lon="6.81971"><ele>681.8</ele><time>2024-06-12T16:15:55Z</time></trkpt>
<trkpt lat="46.47816" lon="6.8197"><ele>682</ele><time>2024-06-12T16:15:57Z</time></trkpt>
<trkpt lat="46.47815" lon="6.81966"><ele>682.6</ele><time>2024-06-12T16:16:01Z</time></trkpt>
<trkpt lat="46.47816" lon="6.81965"><ele>682.8</ele><time>2024-06-12T16:16:02Z</time></trkpt>
<trkpt lat="46.47815" lon="6.81964"><ele>683</ele><time>2024-06-12T16:16:03Z</time></trkpt>
<trkpt lat="46.47817" lon="6.8196"><ele>683.2</ele><time>2024-06-12T16:16:07Z</time></trkpt>
<trkpt lat="46.47816" lon="6.81956"><ele>684</ele><time>2024-06-12T16:16:12Z</time></trkpt>
<trkpt lat="46.47816" lon="6.81955"><ele>684.2</ele><time>2024-06-12T16:16:13Z</time></trkpt>
<trkpt lat="46.47816" lon="6.8195"><ele>685.2</ele><time>2024-06-12T16:16:18Z</time></trkpt>
<trkpt lat="46.47813" lon="6.81945"><ele>686.2</ele><time>2024-06-12T16:16:25Z</time></trkpt>
<trkpt lat="46.47813" lon="6.81944"><ele>686.4</ele><time>2024-06-12T16:16:26Z</time></trkpt>
<trkpt lat="46.47813" lon="6.81942"><ele>686.4</ele><time>2024-06-12T16:16:27Z</time></trkpt>
<trkpt lat="46.47814" lon="6.81937"><ele>687.2</ele><time>2024-06-12T16:16:31Z</time></trkpt>
<trkpt lat="46.47814" lon="6.81933"><ele>687.6</ele><time>2024-06-12T16:16:35Z</time></trkpt>
<trkpt lat="46.47815" lon="6.81931"><ele>687.8</ele><time>2024-06-12T16:16:37Z</time></trkpt>
<trkpt lat="46.47815" lon="6.81924"><ele>688.8</ele><time>2024-06-12T16:16:44Z</time></trkpt>
<trkpt lat="46.47817" lon="6.81918"><ele>689.2</ele><time>2024-06-12T16:16:50Z</time></trkpt>
<trkpt lat="46.47817" lon="6.81917"><ele>689.4</ele><time>2024-06-12T16:16:51Z</time></trkpt>
<trkpt lat="46.47819" lon="6.81913"><ele>689.8</ele><time>2024-06-12T16:16:56Z</time></trkpt>
<trkpt lat="46.47822" lon="6.81908"><ele>690</ele><time>2024-06-12T16:17:02Z</time></trkpt>
<trkpt lat="46.47823" lon="6.81901"><ele>690.8</ele><time>2024-06-12T16:17:08Z</time></trkpt>
<trkpt lat="46.47824" lon="6.819"><ele>691</ele><time>2024-06-12T16:17:09Z</time></trkpt>
<trkpt lat="46.47827" lon="6.81893"><ele>692</ele><time>2024-06-12T16:17:16Z</time></trkpt>
<trkpt lat="46.47828" lon="6.81887"><ele>693</ele><time>2024-06-12T16:17:21Z</time></trkpt>
<trkpt lat="46.4783" lon="6.81881"><ele>694</ele><time>2024-06-12T16:17:28Z</time></trkpt>
<trkpt lat="46.47831" lon="6.8188"><ele>694.2</ele><time>2024-06-12T16:17:29Z</time></trkpt>
<trkpt lat="46.47832" lon="6.81879"><ele>694.6</ele><time>2024-06-12T16:17:32Z</time></trkpt>
<trkpt lat="46.47832" lon="6.81878"><ele>694.6</ele><time>2024-06-12T16:17:33Z</time></trkpt>
<trkpt lat="46.47835" lon="6.81875"><ele>695.4</ele><time>2024-06-12T16:17:36Z</time></trkpt>
<trkpt lat="46.47836" lon="6.81873"><ele>695.8</ele><time>2024-06-12T16:17:39Z</time></trkpt>
<trkpt lat="46.47838" lon="6.8187"><ele>696.4</ele><time>2024-06-12T16:17:42Z</time></trkpt>
<trkpt lat="46.47838" lon="6.81869"><ele>696.6</ele><time>2024-06-12T16:17:43Z</time></trkpt>
<trkpt lat="46.4784" lon="6.81864"><ele>697.4</ele><time>2024-06-12T16:17:46Z</time></trkpt>
<trkpt lat="46.4784" lon="6.81863"><ele>697.6</ele><time>2024-06-12T16:17:47Z</time></trkpt>
<trkpt lat="46.47842" lon="6.81857"><ele>698.8</ele><time>2024-06-12T16:17:53Z</time></trkpt>
<trkpt lat="46.47845" lon="6.81854"><ele>699.6</ele><time>2024-06-12T16:17:59Z</time></trkpt>
<trkpt lat="46.47845" lon="6.81854"><ele>699.8</ele><time>2024-06-12T16:18:00Z</time></trkpt>
<trkpt lat="46.47846" lon="6.81852"><ele>700.2</ele><time>2024-06-12T16:18:02Z</time></trkpt>
<trkpt lat="46.47845" lon="6.81849"><ele>700.4</ele><time>2024-06-12T16:18:04Z</time></trkpt>
<trkpt lat="46.47846" lon="6.81846"><ele>701</ele><time>2024-06-12T16:18:07Z</time></trkpt>
<trkpt lat="46.47847" lon="6.81844"><ele>701.6</ele><time>2024-06-12T16:18:10Z</time></trkpt>
<trkpt lat="46.47848" lon="6.81843"><ele>702</ele><time>2024-06-12T16:18:12Z</time></trkpt>
<trkpt lat="46.47851" lon="6.81842"><ele>702.8</ele><time>2024-06-12T16:18:16Z</time></trkpt>
<trkpt lat="46.47851" lon="6.81839"><ele>703.2</ele><time>2024-06-12T16:18:18Z</time></trkpt>
<trkpt lat="46.4785" lon="6.81836"><ele>703.6</ele><time>2024-06-12T16:18:21Z</time></trkpt>
<trkpt lat="46.47849" lon="6.81833"><ele>704.2</ele><time>2024-06-12T16:18:24Z</time></trkpt>
<trkpt lat="46.47848" lon="6.81832"><ele>704.2</ele><time>2024-06-12T16:18:25Z</time></trkpt>
<trkpt lat="46.47848" lon="6.81831"><ele>704.4</ele><time>2024-06-12T16:18:26Z</time></trkpt>
<trkpt lat="46.47848" lon="6.81829"><ele>704.8</ele><time>2024-06-12T16:18:28Z</time></trkpt>
<trkpt lat="46.47849" lon="6.81826"><ele>705.2</ele><time>2024-06-12T16:18:32Z</time></trkpt>
<trkpt lat="46.47849" lon="6.8182"><ele>706.2</ele><time>2024-06-12T16:18:38Z</time></trkpt>
<trkpt lat="46.4785" lon="6.81819"><ele>706.4</ele><time>2024-06-12T16:18:39Z</time></trkpt>
<trkpt lat="46.4785" lon="6.81817"><ele>706.8</ele><time>2024-06-12T16:18:42Z</time></trkpt>
<trkpt lat="46.47851" lon="6.81815"><ele>706.8</ele><time>2024-06-12T16:18:44Z</time></trkpt>
<trkpt lat="46.47849" lon="6.81814"><ele>707</ele><time>2024-06-12T16:18:46Z</time></trkpt>
<trkpt lat="46.47848" lon="6.81811"><ele>707.4</ele><time>2024-06-12T16:18:48Z</time></trkpt>
<trkpt lat="46.47849" lon="6.8181"><ele>707.6</ele><time>2024-06-12T16:18:49Z</time></trkpt>
<trkpt lat="46.47851" lon="6.81807"><ele>708.2</ele><time>2024-06-12T16:18:52Z</time></trkpt>
<trkpt lat="46.47851" lon="6.81805"><ele>708.4</ele><time>2024-06-12T16:18:54Z</time></trkpt>
<trkpt lat="46.47848" lon="6.818"><ele>709.2</ele><time>2024-06-12T16:19:00Z</time></trkpt>
<trkpt lat="46.47847" lon="6.818"><ele>709.6</ele><time>2024-06-12T16:19:02Z</time></trkpt>
<trkpt lat="46.47847" lon="6.81798"><ele>709.6</ele><time>2024-06-12T16:19:03Z</time></trkpt>
<trkpt lat="46.47848" lon="6.81795"><ele>710.2</ele><time>2024-06-12T16:19:06Z</time></trkpt>
<trkpt lat="46.47848" lon="6.81794"><ele>710.6</ele><time>2024-06-12T16:19:09Z</time></trkpt>
<trkpt lat="46.47847" lon="6.81794"><ele>710.8</ele><time>2024-06-12T16:19:12Z</time></trkpt>
<trkpt lat="46.47846" lon="6.81792"><ele>710.8</ele><time>2024-06-12T16:19:24Z</time></trkpt>
<trkpt lat="46.47853" lon="6.81788"><ele>711.4</ele><time>2024-06-12T16:19:31Z</time></trkpt>
<trkpt lat="46.47853" lon="6.81787"><ele>711.4</ele><time>2024-06-12T16:19:32Z</time></trkpt>
<trkpt lat="46.47853" lon="6.81785"><ele>711.6</ele><time>2024-06-12T16:19:34Z</time></trkpt>
<trkpt lat="46.47853" lon="6.81779"><ele>712.4</ele><time>2024-06-12T16:19:39Z</time></trkpt>
<trkpt lat="46.47854" lon="6.81777"><ele>712.6</ele><time>2024-06-12T16:19:41Z</time></trkpt>
<trkpt lat="46.47854" lon="6.81774"><ele>713</ele><time>2024-06-12T16:19:43Z</time></trkpt>
<trkpt lat="46.47854" lon="6.81773"><ele>713</ele><time>2024-06-12T16:19:44Z</time></trkpt>
<trkpt lat="46.47854" lon="6.81771"><ele>713.8</ele><time>2024-06-12T16:19:47Z</time></trkpt>
<trkpt lat="46.47854" lon="6.81768"><ele>714.4</ele><time>2024-06-12T16:19:50Z</time></trkpt>
<trkpt lat="46.47853" lon="6.81767"><ele>714.8</ele><time>2024-06-12T16:19:51Z</time></trkpt>
<trkpt lat="46.47852" lon="6.81761"><ele>715.6</ele><time>2024-06-12T16:19:56Z</time></trkpt>
<trkpt lat="46.47852" lon="6.8176"><ele>715.8</ele><time>2024-06-12T16:19:57Z</time></trkpt>
<trkpt lat="46.47853" lon="6.81758"><ele>716</ele><time>2024-06-12T16:19:59Z</time></trkpt>
<trkpt lat="46.47853" lon="6.81756"><ele>716.2</ele><time>2024-06-12T16:20:01Z</time></trkpt>
<trkpt lat="46.47853" lon="6.81755"><ele>716.4</ele><time>2024-06-12T16:20:02Z</time></trkpt>
<trkpt lat="46.47849" lon="6.81748"><ele>716.8</ele><time>2024-06-12T16:20:09Z</time></trkpt>
<trkpt lat="46.47848" lon="6.81738"><ele>717.2</ele><time>2024-06-12T16:20:16Z</time></trkpt>
<trkpt lat="46.47848" lon="6.81721"><ele>717.4</ele><time>2024-06-12T16:20:24Z</time></trkpt>
<trkpt lat="46.4785" lon="6.81696"><ele>717.6</ele><time>2024-06-12T16:20:31Z</time></trkpt>
<trkpt lat="46.4785" lon="6.81678"><ele>718</ele><time>2024-06-12T16:20:36Z</time></trkpt>
<trkpt lat="46.47852" lon="6.8167"><ele>718.6</ele><time>2024-06-12T16:20:40Z</time></trkpt>
<trkpt lat="46.47853" lon="6.81663"><ele>719</ele><time>2024-06-12T16:20:44Z</time></trkpt>
<trkpt lat="46.47853" lon="6.81654"><ele>719.6</ele><time>2024-06-12T16:20:50Z</time></trkpt>
<trkpt lat="46.47856" lon="6.81648"><ele>720</ele><time>2024-06-12T16:20:54Z</time></trkpt>
<trkpt lat="46.47859" lon="6.81644"><ele>720.8</ele><time>2024-06-12T16:20:58Z</time></trkpt>
<trkpt lat="46.47861" lon="6.81643"><ele>721</ele><time>2024-06-12T16:21:00Z</time></trkpt>
<trkpt lat="46.47864" lon="6.81645"><ele>721.6</ele><time>2024-06-12T16:21:04Z</time></trkpt>
<trkpt lat="46.47868" lon="6.81649"><ele>722.2</ele><time>2024-06-12T16:21:08Z</time></trkpt>
<trkpt lat="46.4787" lon="6.81653"><ele>722.4</ele><time>2024-06-12T16:21:11Z</time></trkpt>
<trkpt lat="46.47874" lon="6.81661"><ele>723.2</ele><time>2024-06-12T16:21:17Z</time></trkpt>
<trkpt lat="46.47875" lon="6.81664"><ele>723.4</ele><time>2024-06-12T16:21:19Z</time></trkpt>
<trkpt lat="46.47879" lon="6.81672"><ele>724</ele><time>2024-06-12T16:21:26Z</time></trkpt>
<trkpt lat="46.4788" lon="6.81676"><ele>724.4</ele><time>2024-06-12T16:21:28Z</time></trkpt>
<trkpt lat="46.47882" lon="6.81684"><ele>725</ele><time>2024-06-12T16:21:33Z</time></trkpt>
<trkpt lat="46.47882" lon="6.81687"><ele>725.4</ele><time>2024-06-12T16:21:35Z</time></trkpt>
<trkpt lat="46.47883" lon="6.81695"><ele>726.2</ele><time>2024-06-12T16:21:41Z</time></trkpt>
<trkpt lat="46.47884" lon="6.81697"><ele>726.4</ele><time>2024-06-12T16:21:42Z</time></trkpt>
<trkpt lat="46.47885" lon="6.81703"><ele>727.2</ele><time>2024-06-12T16:21:47Z</time></trkpt>
<trkpt lat="46.47886" lon="6.81706"><ele>727.4</ele><time>2024-06-12T16:21:49Z</time></trkpt>
<trkpt lat="46.47886" lon="6.81716"><ele>728.4</ele><time>2024-06-12T16:21:55Z</time></trkpt>
<trkpt lat="46.47887" lon="6.81717"><ele>728.6</ele><time>2024-06-12T16:21:56Z</time></trkpt>
<trkpt lat="46.47888" lon="6.81722"><ele>729.6</ele><time>2024-06-12T16:22:01Z</time></trkpt>
<trkpt lat="46.47889" lon="6.81729"><ele>730.6</ele><time>2024-06-12T16:22:08Z</time></trkpt>
<trkpt lat="46.47891" lon="6.81737"><ele>731.6</ele><time>2024-06-12T16:22:13Z</time></trkpt>
<trkpt lat="46.47893" lon="6.81744"><ele>732.8</ele><time>2024-06-12T16:22:19Z</time></trkpt>
<trkpt lat="46.47894" lon="6.81749"><ele>733.4</ele><time>2024-06-12T16:22:24Z</time></trkpt>
<trkpt lat="46.47895" lon="6.81752"><ele>733.8</ele><time>2024-06-12T16:22:27Z</time></trkpt>
<trkpt lat="46.47896" lon="6.81758"><ele>734.6</ele><time>2024-06-12T16:22:33Z</time></trkpt>
<trkpt lat="46.47895" lon="6.8176"><ele>735</ele><time>2024-06-12T16:22:35Z</time></trkpt>
<trkpt lat="46.47895" lon="6.81764"><ele>735.6</ele><time>2024-06-12T16:22:39Z</time></trkpt>
<trkpt lat="46.47897" lon="6.81767"><ele>736</ele><time>2024-06-12T16:22:42Z</time></trkpt>
<trkpt lat="46.47898" lon="6.81771"><ele>736.6</ele><time>2024-06-12T16:22:46Z</time></trkpt>
<trkpt lat="46.47898" lon="6.81773"><ele>737</ele><time>2024-06-12T16:22:48Z</time></trkpt>
<trkpt lat="46.479" lon="6.81774"><ele>737.8</ele><time>2024-06-12T16:22:53Z</time></trkpt>
<trkpt lat="46.47902" lon="6.81775"><ele>738</ele><time>2024-06-12T16:22:56Z</time></trkpt>
<trkpt lat="46.47903" lon="6.81776"><ele>738.2</ele><time>2024-06-12T16:22:57Z</time></trkpt>
<trkpt lat="46.47904" lon="6.81778"><ele>738.4</ele><time>2024-06-12T16:22:59Z</time></trkpt>
<trkpt lat="46.47906" lon="6.81777"><ele>738.8</ele><time>2024-06-12T16:23:01Z</time></trkpt>
<trkpt lat="46.47908" lon="6.81774"><ele>739.2</ele><time>2024-06-12T16:23:04Z</time></trkpt>
<trkpt lat="46.47908" lon="6.81773"><ele>739.2</ele><time>2024-06-12T16:23:05Z</time></trkpt>
<trkpt lat="46.47913" lon="6.81765"><ele>740.4</ele><time>2024-06-12T16:23:11Z</time></trkpt>
<trkpt lat="46.47915" lon="6.81756"><ele>741</ele><time>2024-06-12T16:23:18Z</time></trkpt>
<trkpt lat="46.47915" lon="6.81753"><ele>741.4</ele><time>2024-06-12T16:23:20Z</time></trkpt>
<trkpt lat="46.47915" lon="6.81744"><ele>741.8</ele><time>2024-06-12T16:23:25Z</time></trkpt>
<trkpt lat="46.47915" lon="6.81732"><ele>742.4</ele><time>2024-06-12T16:23:31Z</time></trkpt>
<trkpt lat="46.47916" lon="6.81726"><ele>742.8</ele><time>2024-06-12T16:23:34Z</time></trkpt>
<trkpt lat="46.47916" lon="6.81716"><ele>743.6</ele><time>2024-06-12T16:23:40Z</time></trkpt>
<trkpt lat="46.47916" lon="6.81704"><ele>744.4</ele><time>2024-06-12T16:23:46Z</time></trkpt>
<trkpt lat="46.47916" lon="6.81702"><ele>744.6</ele><time>2024-06-12T16:23:47Z</time></trkpt>
<trkpt lat="46.47918" lon="6.81691"><ele>745.8</ele><time>2024-06-12T16:23:53Z</time></trkpt>
<trkpt lat="46.47918" lon="6.8169"><ele>746.2</ele><time>2024-06-12T16:23:54Z</time></trkpt>
<trkpt lat="46.4792" lon="6.81682"><ele>747</ele><time>2024-06-12T16:23:57Z</time></trkpt>
<trkpt lat="46.47924" lon="6.81673"><ele>747</ele><time>2024-06-12T16:24:01Z</time></trkpt>
<trkpt lat="46.47928" lon="6.81656"><ele>747.2</ele><time>2024-06-12T16:24:09Z</time></trkpt>
<trkpt lat="46.47933" lon="6.81641"><ele>747.8</ele><time>2024-06-12T16:24:17Z</time></trkpt>
<trkpt lat="46.47934" lon="6.8164"><ele>748.2</ele><time>2024-06-12T16:24:18Z</time></trkpt>
<trkpt lat="46.47939" lon="6.81629"><ele>749.4</ele><time>2024-06-12T16:24:25Z</time></trkpt>
<trkpt lat="46.47943" lon="6.81618"><ele>750</ele><time>2024-06-12T16:24:32Z</time></trkpt>
<trkpt lat="46.47946" lon="6.8161"><ele>750.4</ele><time>2024-06-12T16:24:38Z</time></trkpt>
<trkpt lat="46.47946" lon="6.81609"><ele>750.6</ele><time>2024-06-12T16:24:39Z</time></trkpt>
<trkpt lat="46.4795" lon="6.81606"><ele>751.6</ele><time>2024-06-12T16:24:43Z</time></trkpt>
<trkpt lat="46.47954" lon="6.81605"><ele>752.2</ele><time>2024-06-12T16:24:46Z</time></trkpt>
<trkpt lat="46.47955" lon="6.81604"><ele>752.6</ele><time>2024-06-12T16:24:47Z</time></trkpt>
<trkpt lat="46.4796" lon="6.81603"><ele>753.2</ele><time>2024-06-12T16:24:52Z</time></trkpt>
<trkpt lat="46.47964" lon="6.81602"><ele>753.8</ele><time>2024-06-12T16:24:56Z</time></trkpt>
<trkpt lat="46.47967" lon="6.81602"><ele>754.2</ele><time>2024-06-12T16:24:59Z</time></trkpt>
<trkpt lat="46.4797" lon="6.81603"><ele>754.8</ele><time>2024-06-12T16:25:02Z</time></trkpt>
<trkpt lat="46.47971" lon="6.81602"><ele>754.8</ele><time>2024-06-12T16:25:03Z</time></trkpt>
<trkpt lat="46.47981" lon="6.81605"><ele>755.4</ele><time>2024-06-12T16:25:10Z</time></trkpt>
<trkpt lat="46.47986" lon="6.81608"><ele>756</ele><time>2024-06-12T16:25:13Z</time></trkpt>
<trkpt lat="46.47991" lon="6.81611"><ele>756.4</ele><time>2024-06-12T16:25:16Z</time></trkpt>
<trkpt lat="46.47993" lon="6.81613"><ele>756.4</ele><time>2024-06-12T16:25:17Z</time></trkpt>
<trkpt lat="46.48009" lon="6.81624"><ele>755.8</ele><time>2024-06-12T16:25:24Z</time></trkpt>
<trkpt lat="46.48028" lon="6.81631"><ele>755.8</ele><time>2024-06-12T16:25:32Z</time></trkpt>
<trkpt lat="46.48046" lon="6.81629"><ele>756</ele><time>2024-06-12T16:25:40Z</time></trkpt>
<trkpt lat="46.48051" lon="6.81628"><ele>756</ele><time>2024-06-12T16:25:42Z</time></trkpt>
<trkpt lat="46.48067" lon="6.81625"><ele>756.2</ele><time>2024-06-12T16:25:51Z</time></trkpt>
<trkpt lat="46.48073" lon="6.81625"><ele>757</ele><time>2024-06-12T16:25:55Z</time></trkpt>
<trkpt lat="46.48078" lon="6.81624"><ele>758</ele><time>2024-06-12T16:25:58Z</time></trkpt>
<trkpt lat="46.48079" lon="6.81624"><ele>758.4</ele><time>2024-06-12T16:25:59Z</time></trkpt>
<trkpt lat="46.48085" lon="6.81623"><ele>759.4</ele><time>2024-06-12T16:26:04Z</time></trkpt>
<trkpt lat="46.48088" lon="6.81622"><ele>759.8</ele><time>2024-06-12T16:26:06Z</time></trkpt>
<trkpt lat="46.48094" lon="6.81621"><ele>760.4</ele><time>2024-06-12T16:26:11Z</time></trkpt>
<trkpt lat="46.48103" lon="6.81619"><ele>761.6</ele><time>2024-06-12T16:26:17Z</time></trkpt>
<trkpt lat="46.48111" lon="6.81614"><ele>762.8</ele><time>2024-06-12T16:26:23Z</time></trkpt>
<trkpt lat="46.48119" lon="6.8161"><ele>763.6</ele><time>2024-06-12T16:26:29Z</time></trkpt>
<trkpt lat="46.48122" lon="6.81609"><ele>763.8</ele><time>2024-06-12T16:26:31Z</time></trkpt>
<trkpt lat="46.4813" lon="6.81605"><ele>765</ele><time>2024-06-12T16:26:37Z</time></trkpt>
<trkpt lat="46.48131" lon="6.81604"><ele>765</ele><time>2024-06-12T16:26:38Z</time></trkpt>
<trkpt lat="46.4814" lon="6.81603"><ele>766</ele><time>2024-06-12T16:26:44Z</time></trkpt>
<trkpt lat="46.48141" lon="6.81602"><ele>766.2</ele><time>2024-06-12T16:26:45Z</time></trkpt>
<trkpt lat="46.48148" lon="6.81602"><ele>767</ele><time>2024-06-12T16:26:51Z</time></trkpt>
<trkpt lat="46.4815" lon="6.81602"><ele>767.4</ele><time>2024-06-12T16:26:53Z</time></trkpt>
<trkpt lat="46.48156" lon="6.81603"><ele>768.2</ele><time>2024-06-12T16:26:58Z</time></trkpt>
<trkpt lat="46.48159" lon="6.81603"><ele>768.4</ele><time>2024-06-12T16:27:00Z</time></trkpt>
<trkpt lat="46.48167" lon="6.81607"><ele>769.2</ele><time>2024-06-12T16:27:06Z</time></trkpt>
<trkpt lat="46.48171" lon="6.81609"><ele>769.4</ele><time>2024-06-12T16:27:09Z</time></trkpt>
<trkpt lat="46.48181" lon="6.81616"><ele>770.4</ele><time>2024-06-12T16:27:17Z</time></trkpt>
<trkpt lat="46.48182" lon="6.81617"><ele>770.6</ele><time>2024-06-12T16:27:18Z</time></trkpt>
<trkpt lat="46.48188" lon="6.81619"><ele>771.4</ele><time>2024-06-12T16:27:22Z</time></trkpt>
<trkpt lat="46.48191" lon="6.8162"><ele>772</ele><time>2024-06-12T16:27:25Z</time></trkpt>
<trkpt lat="46.48194" lon="6.81621"><ele>772.4</ele><time>2024-06-12T16:27:28Z</time></trkpt>
<trkpt lat="46.48197" lon="6.81623"><ele>773.2</ele><time>2024-06-12T16:27:32Z</time></trkpt>
<trkpt lat="46.48198" lon="6.81623"><ele>773.2</ele><time>2024-06-12T16:27:33Z</time></trkpt>
<trkpt lat="46.48202" lon="6.81623"><ele>773.6</ele><time>2024-06-12T16:27:37Z</time></trkpt>
<trkpt lat="46.48205" lon="6.81622"><ele>774</ele><time>2024-06-12T16:27:40Z</time></trkpt>
<trkpt lat="46.48208" lon="6.81621"><ele>774.4</ele><time>2024-06-12T16:27:43Z</time></trkpt>
<trkpt lat="46.48208" lon="6.81621"><ele>774.6</ele><time>2024-06-12T16:27:44Z</time></trkpt>
<trkpt lat="46.48214" lon="6.81618"><ele>775.2</ele><time>2024-06-12T16:27:51Z</time></trkpt>
<trkpt lat="46.48217" lon="6.81611"><ele>775.6</ele><time>2024-06-12T16:27:56Z</time></trkpt>
<trkpt lat="46.48219" lon="6.81608"><ele>776</ele><time>2024-06-12T16:27:59Z</time></trkpt>
<trkpt lat="46.48223" lon="6.81604"><ele>776.8</ele><time>2024-06-12T16:28:03Z</time></trkpt>
<trkpt lat="46.48225" lon="6.81601"><ele>777.2</ele><time>2024-06-12T16:28:06Z</time></trkpt>
<trkpt lat="46.48227" lon="6.81597"><ele>777.8</ele><time>2024-06-12T16:28:09Z</time></trkpt>
<trkpt lat="46.48229" lon="6.81594"><ele>778.4</ele><time>2024-06-12T16:28:12Z</time></trkpt>
<trkpt lat="46.4823" lon="6.81592"><ele>778.8</ele><time>2024-06-12T16:28:14Z</time></trkpt>
<trkpt lat="46.48234" lon="6.81589"><ele>779.4</ele><time>2024-06-12T16:28:19Z</time></trkpt>
<trkpt lat="46.48237" lon="6.81588"><ele>779.8</ele><time>2024-06-12T16:28:22Z</time></trkpt>
<trkpt lat="46.48238" lon="6.81585"><ele>780.2</ele><time>2024-06-12T16:28:25Z</time></trkpt>
<trkpt lat="46.48243" lon="6.81582"><ele>781</ele><time>2024-06-12T16:28:31Z</time></trkpt>
<trkpt lat="46.48248" lon="6.81579"><ele>782</ele><time>2024-06-12T16:28:38Z</time></trkpt>
<trkpt lat="46.48249" lon="6.81578"><ele>782.2</ele><time>2024-06-12T16:28:39Z</time></trkpt>
<trkpt lat="46.48252" lon="6.81578"><ele>783.2</ele><time>2024-06-12T16:28:42Z</time></trkpt>
<trkpt lat="46.48253" lon="6.81578"><ele>783.8</ele><time>2024-06-12T16:28:44Z</time></trkpt>
<trkpt lat="46.48255" lon="6.81577"><ele>784.4</ele><time>2024-06-12T16:28:46Z</time></trkpt>
<trkpt lat="46.48259" lon="6.81573"><ele>785.4</ele><time>2024-06-12T16:28:51Z</time></trkpt>
<trkpt lat="46.48259" lon="6.81574"><ele>785.6</ele><time>2024-06-12T16:28:53Z</time></trkpt>
<trkpt lat="46.48262" lon="6.8157"><ele>786.6</ele><time>2024-06-12T16:28:58Z</time></trkpt>
<trkpt lat="46.48266" lon="6.81568"><ele>787.6</ele><time>2024-06-12T16:29:04Z</time></trkpt>
<trkpt lat="46.48267" lon="6.81567"><ele>787.8</ele><time>2024-06-12T16:29:06Z</time></trkpt>
<trkpt lat="46.48269" lon="6.81569"><ele>788</ele><time>2024-06-12T16:29:08Z</time></trkpt>
<trkpt lat="46.4827" lon="6.81571"><ele>788.4</ele><time>2024-06-12T16:29:10Z</time></trkpt>
<trkpt lat="46.48274" lon="6.81575"><ele>789</ele><time>2024-06-12T16:29:15Z</time></trkpt>
<trkpt lat="46.48274" lon="6.81575"><ele>789.2</ele><time>2024-06-12T16:29:16Z</time></trkpt>
<trkpt lat="46.48279" lon="6.81578"><ele>789.8</ele><time>2024-06-12T16:29:22Z</time></trkpt>
<trkpt lat="46.48281" lon="6.81579"><ele>790.2</ele><time>2024-06-12T16:29:24Z</time></trkpt>
<trkpt lat="46.48283" lon="6.81583"><ele>791</ele><time>2024-06-12T16:29:29Z</time></trkpt>
<trkpt lat="46.48284" lon="6.81584"><ele>791.2</ele><time>2024-06-12T16:29:31Z</time></trkpt>
<trkpt lat="46.48287" lon="6.81584"><ele>791.6</ele><time>2024-06-12T16:29:35Z</time></trkpt>
<trkpt lat="46.48291" lon="6.81585"><ele>792.2</ele><time>2024-06-12T16:29:39Z</time></trkpt>
<trkpt lat="46.48293" lon="6.81587"><ele>793</ele><time>2024-06-12T16:29:42Z</time></trkpt>
<trkpt lat="46.48294" lon="6.81587"><ele>793.4</ele><time>2024-06-12T16:29:44Z</time></trkpt>
<trkpt lat="46.48299" lon="6.81589"><ele>794.4</ele><time>2024-06-12T16:29:51Z</time></trkpt>
<trkpt lat="46.48302" lon="6.81588"><ele>795.4</ele><time>2024-06-12T16:29:56Z</time></trkpt>
<trkpt lat="46.48304" lon="6.81586"><ele>795.8</ele><time>2024-06-12T16:29:58Z</time></trkpt>
<trkpt lat="46.48308" lon="6.81585"><ele>796.4</ele><time>2024-06-12T16:30:02Z</time></trkpt>
<trkpt lat="46.48311" lon="6.81589"><ele>797.2</ele><time>2024-06-12T16:30:06Z</time></trkpt>
<trkpt lat="46.48313" lon="6.81591"><ele>797.4</ele><time>2024-06-12T16:30:08Z</time></trkpt>
<trkpt lat="46.48318" lon="6.81594"><ele>798.4</ele><time>2024-06-12T16:30:13Z</time></trkpt>
<trkpt lat="46.48318" lon="6.81594"><ele>798.6</ele><time>2024-06-12T16:30:14Z</time></trkpt>
<trkpt lat="46.48323" lon="6.81599"><ele>799.6</ele><time>2024-06-12T16:30:21Z</time></trkpt>
<trkpt lat="46.48329" lon="6.81596"><ele>800.6</ele><time>2024-06-12T16:30:29Z</time></trkpt>
<trkpt lat="46.4833" lon="6.81596"><ele>800.8</ele><time>2024-06-12T16:30:30Z</time></trkpt>
<trkpt lat="46.48332" lon="6.81598"><ele>801.6</ele><time>2024-06-12T16:30:35Z</time></trkpt>
<trkpt lat="46.48333" lon="6.81597"><ele>802</ele><time>2024-06-12T16:30:37Z</time></trkpt>
<trkpt lat="46.48339" lon="6.81596"><ele>803</ele><time>2024-06-12T16:30:43Z</time></trkpt>
<trkpt lat="46.48339" lon="6.81595"><ele>803.2</ele><time>2024-06-12T16:30:44Z</time></trkpt>
<trkpt lat="46.48348" lon="6.81593"><ele>804.2</ele><time>2024-06-12T16:30:50Z</time></trkpt>
<trkpt lat="46.48349" lon="6.81591"><ele>804.6</ele><time>2024-06-12T16:30:51Z</time></trkpt>
<trkpt lat="46.48353" lon="6.81588"><ele>805.4</ele><time>2024-06-12T16:30:55Z</time></trkpt>
<trkpt lat="46.48355" lon="6.81588"><ele>805.6</ele><time>2024-06-12T16:30:56Z</time></trkpt>
<trkpt lat="46.48362" lon="6.81585"><ele>806.6</ele><time>2024-06-12T16:31:01Z</time></trkpt>
<trkpt lat="46.48363" lon="6.81584"><ele>806.6</ele><time>2024-06-12T16:31:02Z</time></trkpt>
<trkpt lat="46.48367" lon="6.81581"><ele>807.2</ele><time>2024-06-12T16:31:05Z</time></trkpt>
<trkpt lat="46.48371" lon="6.81578"><ele>808</ele><time>2024-06-12T16:31:08Z</time></trkpt>
<trkpt lat="46.4838" lon="6.81574"><ele>809.2</ele><time>2024-06-12T16:31:13Z</time></trkpt>
<trkpt lat="46.48382" lon="6.81572"><ele>809.2</ele><time>2024-06-12T16:31:14Z</time></trkpt>
<trkpt lat="46.4839" lon="6.81565"><ele>810.2</ele><time>2024-06-12T16:31:20Z</time></trkpt>
<trkpt lat="46.4839" lon="6.81564"><ele>810.2</ele><time>2024-06-12T16:31:21Z</time></trkpt>
<trkpt lat="46.48397" lon="6.81559"><ele>811.4</ele><time>2024-06-12T16:31:28Z</time></trkpt>
<trkpt lat="46.48408" lon="6.81555"><ele>812.2</ele><time>2024-06-12T16:31:36Z</time></trkpt>
<trkpt lat="46.48411" lon="6.81556"><ele>812.6</ele><time>2024-06-12T16:31:38Z</time></trkpt>
<trkpt lat="46.48414" lon="6.81557"><ele>813</ele><time>2024-06-12T16:31:40Z</time></trkpt>
<trkpt lat="46.48416" lon="6.81559"><ele>813.2</ele><time>2024-06-12T16:31:42Z</time></trkpt>
<trkpt lat="46.48416" lon="6.81562"><ele>813.4</ele><time>2024-06-12T16:31:44Z</time></trkpt>
<trkpt lat="46.48416" lon="6.81564"><ele>813.6</ele><time>2024-06-12T16:31:45Z</time></trkpt>
<trkpt lat="46.4842" lon="6.81571"><ele>813.8</ele><time>2024-06-12T16:31:48Z</time></trkpt>
<trkpt lat="46.48423" lon="6.81572"><ele>813.8</ele><time>2024-06-12T16:31:50Z</time></trkpt>
<trkpt lat="46.48427" lon="6.81571"><ele>814</ele><time>2024-06-12T16:31:53Z</time></trkpt>
<trkpt lat="46.48428" lon="6.81572"><ele>814.2</ele><time>2024-06-12T16:31:54Z</time></trkpt>
<trkpt lat="46.48429" lon="6.81576"><ele>814.6</ele><time>2024-06-12T16:31:57Z</time></trkpt>
<trkpt lat="46.48433" lon="6.81578"><ele>815.4</ele><time>2024-06-12T16:32:03Z</time></trkpt>
<trkpt lat="46.48436" lon="6.81579"><ele>815.8</ele><time>2024-06-12T16:32:06Z</time></trkpt>
<trkpt lat="46.4844" lon="6.81583"><ele>817</ele><time>2024-06-12T16:32:12Z</time></trkpt>
<trkpt lat="46.48445" lon="6.81585"><ele>818</ele><time>2024-06-12T16:32:18Z</time></trkpt>
<trkpt lat="46.4845" lon="6.81587"><ele>819</ele><time>2024-06-12T16:32:23Z</time></trkpt>
<trkpt lat="46.48452" lon="6.81587"><ele>819.6</ele><time>2024-06-12T16:32:25Z</time></trkpt>
<trkpt lat="46.48456" lon="6.81586"><ele>820.2</ele><time>2024-06-12T16:32:28Z</time></trkpt>
<trkpt lat="46.4846" lon="6.81585"><ele>821.2</ele><time>2024-06-12T16:32:32Z</time></trkpt>
<trkpt lat="46.48461" lon="6.81586"><ele>821.4</ele><time>2024-06-12T16:32:33Z</time></trkpt>
<trkpt lat="46.48462" lon="6.81586"><ele>821.6</ele><time>2024-06-12T16:32:34Z</time></trkpt>
<trkpt lat="46.48465" lon="6.81587"><ele>822.4</ele><time>2024-06-12T16:32:37Z</time></trkpt>
<trkpt lat="46.48469" lon="6.81589"><ele>822.8</ele><time>2024-06-12T16:32:40Z</time></trkpt>
<trkpt lat="46.48476" lon="6.81593"><ele>823.4</ele><time>2024-06-12T16:32:45Z</time></trkpt>
<trkpt lat="46.48479" lon="6.81598"><ele>823.6</ele><time>2024-06-12T16:32:48Z</time></trkpt>
<trkpt lat="46.48488" lon="6.81608"><ele>824.4</ele><time>2024-06-12T16:32:55Z</time></trkpt>
<trkpt lat="46.48502" lon="6.81612"><ele>824.8</ele><time>2024-06-12T16:33:02Z</time></trkpt>
<trkpt lat="46.4852" lon="6.81618"><ele>823.8</ele><time>2024-06-12T16:33:09Z</time></trkpt>
<trkpt lat="46.48539" lon="6.81614"><ele>823.8</ele><time>2024-06-12T16:33:15Z</time></trkpt>
<trkpt lat="46.48548" lon="6.81603"><ele>823.4</ele><time>2024-06-12T16:33:18Z</time></trkpt>
<trkpt lat="46.48552" lon="6.81596"><ele>823.4</ele><time>2024-06-12T16:33:20Z</time></trkpt>
<trkpt lat="46.48556" lon="6.81587"><ele>823.4</ele><time>2024-06-12T16:33:23Z</time></trkpt>
<trkpt lat="46.48562" lon="6.8158"><ele>823.8</ele><time>2024-06-12T16:33:26Z</time></trkpt>
<trkpt lat="46.48577" lon="6.81554"><ele>824.4</ele><time>2024-06-12T16:33:34Z</time></trkpt>
<trkpt lat="46.48585" lon="6.81542"><ele>824.6</ele><time>2024-06-12T16:33:38Z</time></trkpt>
<trkpt lat="46.48592" lon="6.81531"><ele>825</ele><time>2024-06-12T16:33:42Z</time></trkpt>
<trkpt lat="46.48597" lon="6.81524"><ele>825.6</ele><time>2024-06-12T16:33:45Z</time></trkpt>
<trkpt lat="46.48605" lon="6.81513"><ele>826.4</ele><time>2024-06-12T16:33:50Z</time></trkpt>
<trkpt lat="46.48616" lon="6.81506"><ele>826.8</ele><time>2024-06-12T16:33:55Z</time></trkpt>
<trkpt lat="46.48626" lon="6.81501"><ele>827.4</ele><time>2024-06-12T16:33:59Z</time></trkpt>
<trkpt lat="46.48633" lon="6.81499"><ele>828</ele><time>2024-06-12T16:34:02Z</time></trkpt>
<trkpt lat="46.48642" lon="6.81496"><ele>828.6</ele><time>2024-06-12T16:34:07Z</time></trkpt>
<trkpt lat="46.48648" lon="6.81496"><ele>829.2</ele><time>2024-06-12T16:34:12Z</time></trkpt>
<trkpt lat="46.48651" lon="6.81496"><ele>829.6</ele><time>2024-06-12T16:34:14Z</time></trkpt>
<trkpt lat="46.48656" lon="6.81497"><ele>830.2</ele><time>2024-06-12T16:34:17Z</time></trkpt>
<trkpt lat="46.48662" lon="6.81496"><ele>830.8</ele><time>2024-06-12T16:34:20Z</time></trkpt>
<trkpt lat="46.4867" lon="6.81488"><ele>831.2</ele><time>2024-06-12T16:34:25Z</time></trkpt>
<trkpt lat="46.48672" lon="6.81486"><ele>831.2</ele><time>2024-06-12T16:34:26Z</time></trkpt>
<trkpt lat="46.48681" lon="6.8148"><ele>831.2</ele><time>2024-06-12T16:34:30Z</time></trkpt>
<trkpt lat="46.48686" lon="6.81475"><ele>831.2</ele><time>2024-06-12T16:34:33Z</time></trkpt>
<trkpt lat="46.48704" lon="6.81453"><ele>831.8</ele><time>2024-06-12T16:34:42Z</time></trkpt>
<trkpt lat="46.48723" lon="6.81421"><ele>831</ele><time>2024-06-12T16:34:50Z</time></trkpt>
<trkpt lat="46.48725" lon="6.81414"><ele>830.4</ele><time>2024-06-12T16:34:51Z</time></trkpt>
<trkpt lat="46.48727" lon="6.81407"><ele>830</ele><time>2024-06-12T16:34:52Z</time></trkpt>
<trkpt lat="46.4873" lon="6.81393"><ele>829</ele><time>2024-06-12T16:34:54Z</time></trkpt>
<trkpt lat="46.48733" lon="6.81385"><ele>828.4</ele><time>2024-06-12T16:34:55Z</time></trkpt>
<trkpt lat="46.48737" lon="6.81369"><ele>827.6</ele><time>2024-06-12T16:34:57Z</time></trkpt>
<trkpt lat="46.48742" lon="6.81339"><ele>826.6</ele><time>2024-06-12T16:35:00Z</time></trkpt>
<trkpt lat="46.48745" lon="6.81329"><ele>826.2</ele><time>2024-06-12T16:35:01Z</time></trkpt>
<trkpt lat="46.48747" lon="6.81319"><ele>825.6</ele><time>2024-06-12T16:35:02Z</time></trkpt>
<trkpt lat="46.48751" lon="6.81298"><ele>824</ele><time>2024-06-12T16:35:04Z</time></trkpt>
<trkpt lat="46.48756" lon="6.81277"><ele>823.4</ele><time>2024-06-12T16:35:06Z</time></trkpt>
<trkpt lat="46.48761" lon="6.81254"><ele>822.2</ele><time>2024-06-12T16:35:08Z</time></trkpt>
<trkpt lat="46.48763" lon="6.81242"><ele>821.4</ele><time>2024-06-12T16:35:09Z</time></trkpt>
<trkpt lat="46.48766" lon="6.8123"><ele>820.6</ele><time>2024-06-12T16:35:10Z</time></trkpt>
<trkpt lat="46.48772" lon="6.81204"><ele>819.6</ele><time>2024-06-12T16:35:12Z</time></trkpt>
<trkpt lat="46.48774" lon="6.8119"><ele>818</ele><time>2024-06-12T16:35:13Z</time></trkpt>
<trkpt lat="46.48777" lon="6.81176"><ele>816.4</ele><time>2024-06-12T16:35:14Z</time></trkpt>
<trkpt lat="46.4878" lon="6.81162"><ele>814.8</ele><time>2024-06-12T16:35:15Z</time></trkpt>
<trkpt lat="46.48785" lon="6.81134"><ele>813.4</ele><time>2024-06-12T16:35:17Z</time></trkpt>
<trkpt lat="46.4879" lon="6.81106"><ele>812.2</ele><time>2024-06-12T16:35:19Z</time></trkpt>
<trkpt lat="46.48795" lon="6.81078"><ele>810.4</ele><time>2024-06-12T16:35:21Z</time></trkpt>
<trkpt lat="46.48801" lon="6.81052"><ele>809.8</ele><time>2024-06-12T16:35:23Z</time></trkpt>
<trkpt lat="46.48804" lon="6.81038"><ele>809.4</ele><time>2024-06-12T16:35:24Z</time></trkpt>
<trkpt lat="46.48823" lon="6.80974"><ele>808.6</ele><time>2024-06-12T16:35:29Z</time></trkpt>
<trkpt lat="46.48827" lon="6.8096"><ele>808</ele><time>2024-06-12T16:35:30Z</time></trkpt>
<trkpt lat="46.48848" lon="6.80892"><ele>803</ele><time>2024-06-12T16:35:35Z</time></trkpt>
<trkpt lat="46.48853" lon="6.80878"><ele>801.4</ele><time>2024-06-12T16:35:36Z</time></trkpt>
<trkpt lat="46.48858" lon="6.80864"><ele>800.4</ele><time>2024-06-12T16:35:37Z</time></trkpt>
<trkpt lat="46.4887" lon="6.80821"><ele>799.4</ele><time>2024-06-12T16:35:40Z</time></trkpt>
<trkpt lat="46.48872" lon="6.80806"><ele>799</ele><time>2024-06-12T16:35:41Z</time></trkpt>
<trkpt lat="46.48875" lon="6.80793"><ele>797.8</ele><time>2024-06-12T16:35:42Z</time></trkpt>
<trkpt lat="46.48879" lon="6.8075"><ele>797.2</ele><time>2024-06-12T16:35:45Z</time></trkpt>
<trkpt lat="46.48879" lon="6.80735"><ele>796.6</ele><time>2024-06-12T16:35:46Z</time></trkpt>
<trkpt lat="46.48873" lon="6.80712"><ele>796.2</ele><time>2024-06-12T16:35:48Z</time></trkpt>
<trkpt lat="46.48868" lon="6.80688"><ele>796.6</ele><time>2024-06-12T16:35:51Z</time></trkpt>
<trkpt lat="46.48867" lon="6.80681"><ele>797.2</ele><time>2024-06-12T16:35:52Z</time></trkpt>
<trkpt lat="46.48865" lon="6.80674"><ele>797.4</ele><time>2024-06-12T16:35:53Z</time></trkpt>
<trkpt lat="46.48859" lon="6.80655"><ele>797.6</ele><time>2024-06-12T16:35:56Z</time></trkpt>
<trkpt lat="46.48858" lon="6.8065"><ele>797.4</ele><time>2024-06-12T16:35:57Z</time></trkpt>
<trkpt lat="46.4885" lon="6.80617"><ele>797</ele><time>2024-06-12T16:36:02Z</time></trkpt>
<trkpt lat="46.48847" lon="6.8061"><ele>796.8</ele><time>2024-06-12T16:36:03Z</time></trkpt>
<trkpt lat="46.48839" lon="6.80597"><ele>796.4</ele><time>2024-06-12T16:36:05Z</time></trkpt>
<trkpt lat="46.48834" lon="6.80591"><ele>796.2</ele><time>2024-06-12T16:36:06Z</time></trkpt>
<trkpt lat="46.48828" lon="6.80584"><ele>795.4</ele><time>2024-06-12T16:36:07Z</time></trkpt>
<trkpt lat="46.48815" lon="6.80572"><ele>793.8</ele><time>2024-06-12T16:36:09Z</time></trkpt>
<trkpt lat="46.488" lon="6.80561"><ele>793</ele><time>2024-06-12T16:36:11Z</time></trkpt>
<trkpt lat="46.48793" lon="6.80557"><ele>792.8</ele><time>2024-06-12T16:36:12Z</time></trkpt>
<trkpt lat="46.48785" lon="6.80554"><ele>791.8</ele><time>2024-06-12T16:36:13Z</time></trkpt>
<trkpt lat="46.48777" lon="6.80554"><ele>790</ele><time>2024-06-12T16:36:14Z</time></trkpt>
<trkpt lat="46.48768" lon="6.80557"><ele>789</ele><time>2024-06-12T16:36:15Z</time></trkpt>
<trkpt lat="46.4876" lon="6.80562"><ele>787.6</ele><time>2024-06-12T16:36:16Z</time></trkpt>
<trkpt lat="46.48752" lon="6.80567"><ele>786.4</ele><time>2024-06-12T16:36:17Z</time></trkpt>
<trkpt lat="46.48744" lon="6.80569"><ele>784.8</ele><time>2024-06-12T16:36:18Z</time></trkpt>
<trkpt lat="46.48735" lon="6.80567"><ele>783.6</ele><time>2024-06-12T16:36:19Z</time></trkpt>
<trkpt lat="46.48729" lon="6.8056"><ele>782.6</ele><time>2024-06-12T16:36:20Z</time></trkpt>
<trkpt lat="46.48724" lon="6.80551"><ele>781.4</ele><time>2024-06-12T16:36:21Z</time></trkpt>
<trkpt lat="46.48722" lon="6.80539"><ele>780.6</ele><time>2024-06-12T16:36:22Z</time></trkpt>
<trkpt lat="46.4872" lon="6.80528"><ele>780.2</ele><time>2024-06-12T16:36:23Z</time></trkpt>
<trkpt lat="46.4872" lon="6.80516"><ele>779.6</ele><time>2024-06-12T16:36:24Z</time></trkpt>
<trkpt lat="46.4872" lon="6.80505"><ele>779.2</ele><time>2024-06-12T16:36:25Z</time></trkpt>
<trkpt lat="46.48718" lon="6.80483"><ele>778.2</ele><time>2024-06-12T16:36:27Z</time></trkpt>
<trkpt lat="46.48715" lon="6.80473"><ele>777.6</ele><time>2024-06-12T16:36:28Z</time></trkpt>
<trkpt lat="46.48711" lon="6.80463"><ele>777.4</ele><time>2024-06-12T16:36:29Z</time></trkpt>
<trkpt lat="46.48707" lon="6.80453"><ele>776.6</ele><time>2024-06-12T16:36:30Z</time></trkpt>
<trkpt lat="46.48703" lon="6.80443"><ele>775.4</ele><time>2024-06-12T16:36:31Z</time></trkpt>
<trkpt lat="46.48688" lon="6.80416"><ele>775</ele><time>2024-06-12T16:36:34Z</time></trkpt>
<trkpt lat="46.48674" lon="6.80406"><ele>774.6</ele><time>2024-06-12T16:36:36Z</time></trkpt>
<trkpt lat="46.48666" lon="6.80401"><ele>774.4</ele><time>2024-06-12T16:36:37Z</time></trkpt>
<trkpt lat="46.48658" lon="6.80396"><ele>774.4</ele><time>2024-06-12T16:36:38Z</time></trkpt>
<trkpt lat="46.48651" lon="6.80389"><ele>773</ele><time>2024-06-12T16:36:39Z</time></trkpt>
<trkpt lat="46.48636" lon="6.80375"><ele>772</ele><time>2024-06-12T16:36:41Z</time></trkpt>
<trkpt lat="46.48628" lon="6.80366"><ele>770.8</ele><time>2024-06-12T16:36:42Z</time></trkpt>
<trkpt lat="46.48622" lon="6.80355"><ele>770</ele><time>2024-06-12T16:36:43Z</time></trkpt>
<trkpt lat="46.48619" lon="6.80342"><ele>769.4</ele><time>2024-06-12T16:36:44Z</time></trkpt>
<trkpt lat="46.48616" lon="6.80328"><ele>768.2</ele><time>2024-06-12T16:36:45Z</time></trkpt>
<trkpt lat="46.48614" lon="6.80297"><ele>766.6</ele><time>2024-06-12T16:36:47Z</time></trkpt>
<trkpt lat="46.48614" lon="6.8028"><ele>764.6</ele><time>2024-06-12T16:36:48Z</time></trkpt>
<trkpt lat="46.48616" lon="6.80264"><ele>763</ele><time>2024-06-12T16:36:49Z</time></trkpt>
<trkpt lat="46.48618" lon="6.80247"><ele>761.2</ele><time>2024-06-12T16:36:50Z</time></trkpt>
<trkpt lat="46.48621" lon="6.80214"><ele>760</ele><time>2024-06-12T16:36:52Z</time></trkpt>
<trkpt lat="46.4862" lon="6.80184"><ele>758.6</ele><time>2024-06-12T16:36:54Z</time></trkpt>
<trkpt lat="46.48619" lon="6.80169"><ele>757.2</ele><time>2024-06-12T16:36:55Z</time></trkpt>
<trkpt lat="46.48616" lon="6.80154"><ele>756</ele><time>2024-06-12T16:36:56Z</time></trkpt>
<trkpt lat="46.48613" lon="6.80139"><ele>754.8</ele><time>2024-06-12T16:36:57Z</time></trkpt>
<trkpt lat="46.48609" lon="6.80124"><ele>753.6</ele><time>2024-06-12T16:36:58Z</time></trkpt>
<trkpt lat="46.48604" lon="6.80095"><ele>750.8</ele><time>2024-06-12T16:37:00Z</time></trkpt>
<trkpt lat="46.48603" lon="6.80083"><ele>749.4</ele><time>2024-06-12T16:37:01Z</time></trkpt>
<trkpt lat="46.48602" lon="6.80072"><ele>748.4</ele><time>2024-06-12T16:37:02Z</time></trkpt>
<trkpt lat="46.48595" lon="6.80052"><ele>747.2</ele><time>2024-06-12T16:37:04Z</time></trkpt>
<trkpt lat="46.48577" lon="6.80025"><ele>745.8</ele><time>2024-06-12T16:37:07Z</time></trkpt>
<trkpt lat="46.48572" lon="6.80016"><ele>745</ele><time>2024-06-12T16:37:08Z</time></trkpt>
<trkpt lat="46.48566" lon="6.80006"><ele>744.8</ele><time>2024-06-12T16:37:09Z</time></trkpt>
<trkpt lat="46.48549" lon="6.79975"><ele>743.6</ele><time>2024-06-12T16:37:12Z</time></trkpt>
<trkpt lat="46.48539" lon="6.79954"><ele>742.4</ele><time>2024-06-12T16:37:14Z</time></trkpt>
<trkpt lat="46.48534" lon="6.79942"><ele>742.2</ele><time>2024-06-12T16:37:15Z</time></trkpt>
<trkpt lat="46.48529" lon="6.79929"><ele>742</ele><time>2024-06-12T16:37:16Z</time></trkpt>
<trkpt lat="46.48525" lon="6.79915"><ele>741.4</ele><time>2024-06-12T16:37:17Z</time></trkpt>
<trkpt lat="46.48522" lon="6.79899"><ele>739.2</ele><time>2024-06-12T16:37:18Z</time></trkpt>
<trkpt lat="46.48518" lon="6.79883"><ele>738</ele><time>2024-06-12T16:37:19Z</time></trkpt>
<trkpt lat="46.48513" lon="6.79867"><ele>736.6</ele><time>2024-06-12T16:37:20Z</time></trkpt>
<trkpt lat="46.48499" lon="6.79837"><ele>733.8</ele><time>2024-06-12T16:37:22Z</time></trkpt>
<trkpt lat="46.48479" lon="6.79816"><ele>731.4</ele><time>2024-06-12T16:37:24Z</time></trkpt>
<trkpt lat="46.48467" lon="6.79809"><ele>730.2</ele><time>2024-06-12T16:37:25Z</time></trkpt>
<trkpt lat="46.48444" lon="6.798"><ele>729.2</ele><time>2024-06-12T16:37:27Z</time></trkpt>
<trkpt lat="46.48432" lon="6.79798"><ele>728</ele><time>2024-06-12T16:37:28Z</time></trkpt>
<trkpt lat="46.4842" lon="6.79796"><ele>726.4</ele><time>2024-06-12T16:37:29Z</time></trkpt>
<trkpt lat="46.48387" lon="6.79785"><ele>725.4</ele><time>2024-06-12T16:37:32Z</time></trkpt>
<trkpt lat="46.48336" lon="6.79769"><ele>724.6</ele><time>2024-06-12T16:37:37Z</time></trkpt>
<trkpt lat="46.4829" lon="6.79773"><ele>724.4</ele><time>2024-06-12T16:37:42Z</time></trkpt>
<trkpt lat="46.48267" lon="6.79772"><ele>724.4</ele><time>2024-06-12T16:37:45Z</time></trkpt>
<trkpt lat="46.4825" lon="6.7977"><ele>724</ele><time>2024-06-12T16:37:47Z</time></trkpt>
<trkpt lat="46.48243" lon="6.79766"><ele>723</ele><time>2024-06-12T16:37:48Z</time></trkpt>
<trkpt lat="46.48237" lon="6.7976"><ele>722</ele><time>2024-06-12T16:37:49Z</time></trkpt>
<trkpt lat="46.48233" lon="6.79753"><ele>721.8</ele><time>2024-06-12T16:37:50Z</time></trkpt>
<trkpt lat="46.48229" lon="6.79746"><ele>721.6</ele><time>2024-06-12T16:37:51Z</time></trkpt>
<trkpt lat="46.48221" lon="6.79723"><ele>720.8</ele><time>2024-06-12T16:37:54Z</time></trkpt>
<trkpt lat="46.48218" lon="6.79709"><ele>720</ele><time>2024-06-12T16:37:56Z</time></trkpt>
<trkpt lat="46.48221" lon="6.79696"><ele>719.6</ele><time>2024-06-12T16:37:58Z</time></trkpt>
<trkpt lat="46.48227" lon="6.79681"><ele>718.8</ele><time>2024-06-12T16:38:00Z</time></trkpt>
<trkpt lat="46.48235" lon="6.79669"><ele>718.8</ele><time>2024-06-12T16:38:02Z</time></trkpt>
<trkpt lat="46.48246" lon="6.79654"><ele>719.4</ele><time>2024-06-12T16:38:06Z</time></trkpt>
<trkpt lat="46.48249" lon="6.79651"><ele>719.6</ele><time>2024-06-12T16:38:07Z</time></trkpt>
<trkpt lat="46.4826" lon="6.79631"><ele>720.4</ele><time>2024-06-12T16:38:13Z</time></trkpt>
<trkpt lat="46.48266" lon="6.79606"><ele>720.6</ele><time>2024-06-12T16:38:19Z</time></trkpt>
<trkpt lat="46.48273" lon="6.79578"><ele>721.6</ele><time>2024-06-12T16:38:26Z</time></trkpt>
<trkpt lat="46.48284" lon="6.79549"><ele>722.4</ele><time>2024-06-12T16:38:35Z</time></trkpt>
<trkpt lat="46.48288" lon="6.7954"><ele>722.6</ele><time>2024-06-12T16:38:38Z</time></trkpt>
<trkpt lat="46.48292" lon="6.79531"><ele>723.2</ele><time>2024-06-12T16:38:41Z</time></trkpt>
<trkpt lat="46.48295" lon="6.79524"><ele>723.2</ele><time>2024-06-12T16:38:43Z</time></trkpt>
<trkpt lat="46.48297" lon="6.79518"><ele>723.2</ele><time>2024-06-12T16:38:45Z</time></trkpt>
<trkpt lat="46.48305" lon="6.79496"><ele>723.4</ele><time>2024-06-12T16:38:51Z</time></trkpt>
<trkpt lat="46.48316" lon="6.79469"><ele>723</ele><time>2024-06-12T16:38:57Z</time></trkpt>
<trkpt lat="46.48329" lon="6.79449"><ele>722.8</ele><time>2024-06-12T16:39:01Z</time></trkpt>
<trkpt lat="46.48334" lon="6.79438"><ele>722.6</ele><time>2024-06-12T16:39:03Z</time></trkpt>
<trkpt lat="46.48352" lon="6.79405"><ele>722.8</ele><time>2024-06-12T16:39:10Z</time></trkpt>
<trkpt lat="46.48355" lon="6.79401"><ele>722.8</ele><time>2024-06-12T16:39:11Z</time></trkpt>
<trkpt lat="46.48374" lon="6.79384"><ele>722</ele><time>2024-06-12T16:39:16Z</time></trkpt>
<trkpt lat="46.48384" lon="6.79376"><ele>721.6</ele><time>2024-06-12T16:39:18Z</time></trkpt>
<trkpt lat="46.48403" lon="6.79364"><ele>720.2</ele><time>2024-06-12T16:39:21Z</time></trkpt>
<trkpt lat="46.48411" lon="6.7936"><ele>719.2</ele><time>2024-06-12T16:39:22Z</time></trkpt>
<trkpt lat="46.48434" lon="6.79343"><ele>717.4</ele><time>2024-06-12T16:39:25Z</time></trkpt>
<trkpt lat="46.48441" lon="6.79337"><ele>716.2</ele><time>2024-06-12T16:39:26Z</time></trkpt>
<trkpt lat="46.48463" lon="6.79318"><ele>715</ele><time>2024-06-12T16:39:29Z</time></trkpt>
<trkpt lat="46.4848" lon="6.79305"><ele>714</ele><time>2024-06-12T16:39:31Z</time></trkpt>
<trkpt lat="46.48488" lon="6.79297"><ele>713.2</ele><time>2024-06-12T16:39:32Z</time></trkpt>
<trkpt lat="46.48496" lon="6.79289"><ele>712.4</ele><time>2024-06-12T16:39:33Z</time></trkpt>
<trkpt lat="46.4852" lon="6.79266"><ele>711.2</ele><time>2024-06-12T16:39:36Z</time></trkpt>
<trkpt lat="46.48528" lon="6.79261"><ele>710.6</ele><time>2024-06-12T16:39:37Z</time></trkpt>
<trkpt lat="46.48549" lon="6.79244"><ele>710.2</ele><time>2024-06-12T16:39:40Z</time></trkpt>
<trkpt lat="46.48556" lon="6.79239"><ele>710.2</ele><time>2024-06-12T16:39:41Z</time></trkpt>
<trkpt lat="46.48572" lon="6.79228"><ele>708.4</ele><time>2024-06-12T16:39:43Z</time></trkpt>
<trkpt lat="46.48597" lon="6.79206"><ele>706.4</ele><time>2024-06-12T16:39:46Z</time></trkpt>
<trkpt lat="46.48606" lon="6.79195"><ele>705.4</ele><time>2024-06-12T16:39:47Z</time></trkpt>
<trkpt lat="46.48613" lon="6.79183"><ele>703</ele><time>2024-06-12T16:39:48Z</time></trkpt>
<trkpt lat="46.48622" lon="6.79171"><ele>701.6</ele><time>2024-06-12T16:39:49Z</time></trkpt>
<trkpt lat="46.48629" lon="6.79159"><ele>699.8</ele><time>2024-06-12T16:39:50Z</time></trkpt>
<trkpt lat="46.48643" lon="6.79136"><ele>698.4</ele><time>2024-06-12T16:39:52Z</time></trkpt>
<trkpt lat="46.48666" lon="6.79102"><ele>698.6</ele><time>2024-06-12T16:39:56Z</time></trkpt>
<trkpt lat="46.48696" lon="6.79065"><ele>698.8</ele><time>2024-06-12T16:40:02Z</time></trkpt>
<trkpt lat="46.48713" lon="6.79049"><ele>697</ele><time>2024-06-12T16:40:05Z</time></trkpt>
<trkpt lat="46.48732" lon="6.79033"><ele>696</ele><time>2024-06-12T16:40:08Z</time></trkpt>
<trkpt lat="46.48738" lon="6.79027"><ele>695.8</ele><time>2024-06-12T16:40:09Z</time></trkpt>
<trkpt lat="46.48746" lon="6.79021"><ele>694.6</ele><time>2024-06-12T16:40:10Z</time></trkpt>
<trkpt lat="46.48763" lon="6.79009"><ele>693.2</ele><time>2024-06-12T16:40:12Z</time></trkpt>
<trkpt lat="46.48771" lon="6.79004"><ele>691.6</ele><time>2024-06-12T16:40:13Z</time></trkpt>
<trkpt lat="46.4878" lon="6.78999"><ele>690.4</ele><time>2024-06-12T16:40:14Z</time></trkpt>
<trkpt lat="46.48789" lon="6.78994"><ele>689.2</ele><time>2024-06-12T16:40:15Z</time></trkpt>
<trkpt lat="46.48797" lon="6.78987"><ele>688.8</ele><time>2024-06-12T16:40:16Z</time></trkpt>
<trkpt lat="46.48813" lon="6.78973"><ele>687.8</ele><time>2024-06-12T16:40:18Z</time></trkpt>
<trkpt lat="46.48849" lon="6.78947"><ele>687.6</ele><time>2024-06-12T16:40:23Z</time></trkpt>
<trkpt lat="46.48877" lon="6.78935"><ele>688.6</ele><time>2024-06-12T16:40:28Z</time></trkpt>
<trkpt lat="46.48885" lon="6.7893"><ele>688.8</ele><time>2024-06-12T16:40:30Z</time></trkpt>
<trkpt lat="46.4889" lon="6.78927"><ele>689</ele><time>2024-06-12T16:40:31Z</time></trkpt>
<trkpt lat="46.48897" lon="6.7892"><ele>688.8</ele><time>2024-06-12T16:40:33Z</time></trkpt>
<trkpt lat="46.48901" lon="6.78915"><ele>688.6</ele><time>2024-06-12T16:40:34Z</time></trkpt>
<trkpt lat="46.48907" lon="6.78906"><ele>687.8</ele><time>2024-06-12T16:40:36Z</time></trkpt>
<trkpt lat="46.48923" lon="6.78886"><ele>687.4</ele><time>2024-06-12T16:40:40Z</time></trkpt>
<trkpt lat="46.48928" lon="6.78882"><ele>687.2</ele><time>2024-06-12T16:40:41Z</time></trkpt>
<trkpt lat="46.48938" lon="6.78875"><ele>686.2</ele><time>2024-06-12T16:40:43Z</time></trkpt>
<trkpt lat="46.48953" lon="6.78861"><ele>685.6</ele><time>2024-06-12T16:40:46Z</time></trkpt>
<trkpt lat="46.48957" lon="6.78855"><ele>685.6</ele><time>2024-06-12T16:40:47Z</time></trkpt>
<trkpt lat="46.4896" lon="6.78848"><ele>685.8</ele><time>2024-06-12T16:40:48Z</time></trkpt>
<trkpt lat="46.48965" lon="6.78829"><ele>686.4</ele><time>2024-06-12T16:40:51Z</time></trkpt>
<trkpt lat="46.48961" lon="6.78814"><ele>686.4</ele><time>2024-06-12T16:40:54Z</time></trkpt>
<trkpt lat="46.48951" lon="6.7881"><ele>687.2</ele><time>2024-06-12T16:40:58Z</time></trkpt>
<trkpt lat="46.48932" lon="6.78802"><ele>687.8</ele><time>2024-06-12T16:41:05Z</time></trkpt>
<trkpt lat="46.48929" lon="6.78801"><ele>687.8</ele><time>2024-06-12T16:41:06Z</time></trkpt>
<trkpt lat="46.48913" lon="6.78795"><ele>688.4</ele><time>2024-06-12T16:41:11Z</time></trkpt>
<trkpt lat="46.48904" lon="6.78792"><ele>688.8</ele><time>2024-06-12T16:41:14Z</time></trkpt>
<trkpt lat="46.48877" lon="6.78784"><ele>688.4</ele><time>2024-06-12T16:41:22Z</time></trkpt>
<trkpt lat="46.48852" lon="6.78781"><ele>688</ele><time>2024-06-12T16:41:29Z</time></trkpt>
<trkpt lat="46.48823" lon="6.7878"><ele>688</ele><time>2024-06-12T16:41:37Z</time></trkpt>
<trkpt lat="46.48796" lon="6.78781"><ele>687.6</ele><time>2024-06-12T16:41:45Z</time></trkpt>
<trkpt lat="46.48781" lon="6.78785"><ele>687.2</ele><time>2024-06-12T16:41:49Z</time></trkpt>
<trkpt lat="46.48771" lon="6.78785"><ele>687</ele><time>2024-06-12T16:41:51Z</time></trkpt>
<trkpt lat="46.48761" lon="6.78786"><ele>686.2</ele><time>2024-06-12T16:41:53Z</time></trkpt>
<trkpt lat="46.48742" lon="6.78791"><ele>685.2</ele><time>2024-06-12T16:41:56Z</time></trkpt>
<trkpt lat="46.48734" lon="6.78793"><ele>684.4</ele><time>2024-06-12T16:41:57Z</time></trkpt>
<trkpt lat="46.48725" lon="6.78795"><ele>683.2</ele><time>2024-06-12T16:41:58Z</time></trkpt>
<trkpt lat="46.48716" lon="6.78799"><ele>681.6</ele><time>2024-06-12T16:41:59Z</time></trkpt>
<trkpt lat="46.48706" lon="6.78803"><ele>680.2</ele><time>2024-06-12T16:42:00Z</time></trkpt>
<trkpt lat="46.48695" lon="6.78806"><ele>678.6</ele><time>2024-06-12T16:42:01Z</time></trkpt>
<trkpt lat="46.48684" lon="6.7881"><ele>676.8</ele><time>2024-06-12T16:42:02Z</time></trkpt>
<trkpt lat="46.48673" lon="6.78813"><ele>675.2</ele><time>2024-06-12T16:42:03Z</time></trkpt>
<trkpt lat="46.48663" lon="6.78816"><ele>673.8</ele><time>2024-06-12T16:42:04Z</time></trkpt>
<trkpt lat="46.48651" lon="6.78819"><ele>673.4</ele><time>2024-06-12T16:42:05Z</time></trkpt>
<trkpt lat="46.4863" lon="6.78826"><ele>672.6</ele><time>2024-06-12T16:42:07Z</time></trkpt>
<trkpt lat="46.4858" lon="6.78845"><ele>671.2</ele><time>2024-06-12T16:42:12Z</time></trkpt>
<trkpt lat="46.48562" lon="6.78858"><ele>671</ele><time>2024-06-12T16:42:14Z</time></trkpt>
<trkpt lat="46.48548" lon="6.78877"><ele>670.4</ele><time>2024-06-12T16:42:16Z</time></trkpt>
<trkpt lat="46.48538" lon="6.78894"><ele>670</ele><time>2024-06-12T16:42:18Z</time></trkpt>
<trkpt lat="46.48531" lon="6.78902"><ele>669.6</ele><time>2024-06-12T16:42:19Z</time></trkpt>
<trkpt lat="46.48524" lon="6.78911"><ele>668.2</ele><time>2024-06-12T16:42:20Z</time></trkpt>
<trkpt lat="46.4851" lon="6.78926"><ele>667.2</ele><time>2024-06-12T16:42:22Z</time></trkpt>
<trkpt lat="46.48501" lon="6.78931"><ele>666</ele><time>2024-06-12T16:42:23Z</time></trkpt>
<trkpt lat="46.48493" lon="6.78936"><ele>665</ele><time>2024-06-12T16:42:24Z</time></trkpt>
<trkpt lat="46.48484" lon="6.78942"><ele>664.2</ele><time>2024-06-12T16:42:25Z</time></trkpt>
<trkpt lat="46.48476" lon="6.78949"><ele>663.2</ele><time>2024-06-12T16:42:26Z</time></trkpt>
<trkpt lat="46.48468" lon="6.78959"><ele>662</ele><time>2024-06-12T16:42:27Z</time></trkpt>
<trkpt lat="46.48459" lon="6.78971"><ele>660.6</ele><time>2024-06-12T16:42:28Z</time></trkpt>
<trkpt lat="46.48451" lon="6.78982"><ele>659.2</ele><time>2024-06-12T16:42:29Z</time></trkpt>
<trkpt lat="46.48442" lon="6.78994"><ele>658.2</ele><time>2024-06-12T16:42:30Z</time></trkpt>
<trkpt lat="46.48433" lon="6.79005"><ele>657.2</ele><time>2024-06-12T16:42:31Z</time></trkpt>
<trkpt lat="46.48422" lon="6.79015"><ele>656.2</ele><time>2024-06-12T16:42:32Z</time></trkpt>
<trkpt lat="46.4841" lon="6.79023"><ele>654.8</ele><time>2024-06-12T16:42:33Z</time></trkpt>
<trkpt lat="46.48398" lon="6.7903"><ele>653.8</ele><time>2024-06-12T16:42:34Z</time></trkpt>
<trkpt lat="46.48386" lon="6.79034"><ele>652</ele><time>2024-06-12T16:42:35Z</time></trkpt>
<trkpt lat="46.48374" lon="6.79035"><ele>650.6</ele><time>2024-06-12T16:42:36Z</time></trkpt>
<trkpt lat="46.4835" lon="6.79035"><ele>649.8</ele><time>2024-06-12T16:42:38Z</time></trkpt>
<trkpt lat="46.48339" lon="6.79033"><ele>649.4</ele><time>2024-06-12T16:42:39Z</time></trkpt>
<trkpt lat="46.48307" lon="6.79033"><ele>648.4</ele><time>2024-06-12T16:42:42Z</time></trkpt>
<trkpt lat="46.48296" lon="6.79035"><ele>648</ele><time>2024-06-12T16:42:43Z</time></trkpt>
<trkpt lat="46.48278" lon="6.79044"><ele>647.2</ele><time>2024-06-12T16:42:45Z</time></trkpt>
<trkpt lat="46.48269" lon="6.79049"><ele>647</ele><time>2024-06-12T16:42:46Z</time></trkpt>
<trkpt lat="46.4824" lon="6.79066"><ele>646.6</ele><time>2024-06-12T16:42:50Z</time></trkpt>
<trkpt lat="46.48218" lon="6.79079"><ele>646</ele><time>2024-06-12T16:42:54Z</time></trkpt>
<trkpt lat="46.48215" lon="6.79082"><ele>646</ele><time>2024-06-12T16:42:55Z</time></trkpt>
<trkpt lat="46.48209" lon="6.79086"><ele>644.8</ele><time>2024-06-12T16:42:57Z</time></trkpt>
<trkpt lat="46.48203" lon="6.7909"><ele>643.8</ele><time>2024-06-12T16:43:00Z</time></trkpt>
<trkpt lat="46.48196" lon="6.791"><ele>643.4</ele><time>2024-06-12T16:43:04Z</time></trkpt>
<trkpt lat="46.48194" lon="6.79104"><ele>643.4</ele><time>2024-06-12T16:43:05Z</time></trkpt>
<trkpt lat="46.48187" lon="6.79119"><ele>642.4</ele><time>2024-06-12T16:43:08Z</time></trkpt>
<trkpt lat="46.48178" lon="6.79129"><ele>641.8</ele><time>2024-06-12T16:43:11Z</time></trkpt>
<trkpt lat="46.4817" lon="6.7913"><ele>641.6</ele><time>2024-06-12T16:43:15Z</time></trkpt>
<trkpt lat="46.48168" lon="6.79131"><ele>641.4</ele><time>2024-06-12T16:43:16Z</time></trkpt>
<trkpt lat="46.4816" lon="6.79136"><ele>640.8</ele><time>2024-06-12T16:43:20Z</time></trkpt>
<trkpt lat="46.48154" lon="6.79141"><ele>640.2</ele><time>2024-06-12T16:43:22Z</time></trkpt>
<trkpt lat="46.48145" lon="6.79146"><ele>639.6</ele><time>2024-06-12T16:43:24Z</time></trkpt>
<trkpt lat="46.48141" lon="6.79148"><ele>639.2</ele><time>2024-06-12T16:43:25Z</time></trkpt>
<trkpt lat="46.48137" lon="6.79151"><ele>637.8</ele><time>2024-06-12T16:43:26Z</time></trkpt>
<trkpt lat="46.48133" lon="6.79154"><ele>636.8</ele><time>2024-06-12T16:43:27Z</time></trkpt>
<trkpt lat="46.48124" lon="6.7916"><ele>635.4</ele><time>2024-06-12T16:43:29Z</time></trkpt>
<trkpt lat="46.4812" lon="6.79162"><ele>634.2</ele><time>2024-06-12T16:43:30Z</time></trkpt>
<trkpt lat="46.48116" lon="6.79163"><ele>633.8</ele><time>2024-06-12T16:43:31Z</time></trkpt>
<trkpt lat="46.48113" lon="6.79163"><ele>633.2</ele><time>2024-06-12T16:43:32Z</time></trkpt>
<trkpt lat="46.48106" lon="6.79163"><ele>631.6</ele><time>2024-06-12T16:43:34Z</time></trkpt>
<trkpt lat="46.48102" lon="6.79163"><ele>630.4</ele><time>2024-06-12T16:43:35Z</time></trkpt>
<trkpt lat="46.48098" lon="6.79164"><ele>629.6</ele><time>2024-06-12T16:43:36Z</time></trkpt>
<trkpt lat="46.48094" lon="6.79166"><ele>628.8</ele><time>2024-06-12T16:43:37Z</time></trkpt>
<trkpt lat="46.48089" lon="6.7917"><ele>628.2</ele><time>2024-06-12T16:43:38Z</time></trkpt>
<trkpt lat="46.48085" lon="6.79175"><ele>627.6</ele><time>2024-06-12T16:43:39Z</time></trkpt>
<trkpt lat="46.48074" lon="6.79187"><ele>626.2</ele><time>2024-06-12T16:43:41Z</time></trkpt>
<trkpt lat="46.48063" lon="6.79203"><ele>624.8</ele><time>2024-06-12T16:43:43Z</time></trkpt>
<trkpt lat="46.48058" lon="6.79211"><ele>623.8</ele><time>2024-06-12T16:43:44Z</time></trkpt>
<trkpt lat="46.48054" lon="6.79221"><ele>622.8</ele><time>2024-06-12T16:43:45Z</time></trkpt>
<trkpt lat="46.48051" lon="6.79231"><ele>622.4</ele><time>2024-06-12T16:43:46Z</time></trkpt>
<trkpt lat="46.48047" lon="6.79266"><ele>622.8</ele><time>2024-06-12T16:43:50Z</time></trkpt>
<trkpt lat="46.48044" lon="6.79277"><ele>623.4</ele><time>2024-06-12T16:43:53Z</time></trkpt>
<trkpt lat="46.48041" lon="6.79267"><ele>622.8</ele><time>2024-06-12T16:43:56Z</time></trkpt>
<trkpt lat="46.48042" lon="6.7926"><ele>621.6</ele><time>2024-06-12T16:43:57Z</time></trkpt>
<trkpt lat="46.48039" lon="6.79244"><ele>620.6</ele><time>2024-06-12T16:44:00Z</time></trkpt>
<trkpt lat="46.48035" lon="6.7924"><ele>619.8</ele><time>2024-06-12T16:44:01Z</time></trkpt>
<trkpt lat="46.48027" lon="6.79232"><ele>618.6</ele><time>2024-06-12T16:44:03Z</time></trkpt>
<trkpt lat="46.48023" lon="6.79228"><ele>617.6</ele><time>2024-06-12T16:44:04Z</time></trkpt>
<trkpt lat="46.48019" lon="6.79223"><ele>616.2</ele><time>2024-06-12T16:44:05Z</time></trkpt>
<trkpt lat="46.4801" lon="6.79213"><ele>614.8</ele><time>2024-06-12T16:44:07Z</time></trkpt>
<trkpt lat="46.48006" lon="6.79208"><ele>613</ele><time>2024-06-12T16:44:08Z</time></trkpt>
<trkpt lat="46.48002" lon="6.79203"><ele>610.8</ele><time>2024-06-12T16:44:09Z</time></trkpt>
<trkpt lat="46.47998" lon="6.792"><ele>610.4</ele><time>2024-06-12T16:44:10Z</time></trkpt>
<trkpt lat="46.47993" lon="6.79194"><ele>609.8</ele><time>2024-06-12T16:44:12Z</time></trkpt>
<trkpt lat="46.47987" lon="6.79189"><ele>608.8</ele><time>2024-06-12T16:44:14Z</time></trkpt>
<trkpt lat="46.47983" lon="6.79186"><ele>608.4</ele><time>2024-06-12T16:44:15Z</time></trkpt>
<trkpt lat="46.47977" lon="6.79179"><ele>607</ele><time>2024-06-12T16:44:17Z</time></trkpt>
<trkpt lat="46.47975" lon="6.79168"><ele>605</ele><time>2024-06-12T16:44:19Z</time></trkpt>
<trkpt lat="46.47974" lon="6.79162"><ele>604</ele><time>2024-06-12T16:44:20Z</time></trkpt>
<trkpt lat="46.47974" lon="6.79155"><ele>602.8</ele><time>2024-06-12T16:44:21Z</time></trkpt>
<trkpt lat="46.47976" lon="6.79142"><ele>601.2</ele><time>2024-06-12T16:44:23Z</time></trkpt>
<trkpt lat="46.47977" lon="6.79135"><ele>600.8</ele><time>2024-06-12T16:44:24Z</time></trkpt>
<trkpt lat="46.47978" lon="6.79129"><ele>599.8</ele><time>2024-06-12T16:44:25Z</time></trkpt>
<trkpt lat="46.47979" lon="6.79119"><ele>597.8</ele><time>2024-06-12T16:44:27Z</time></trkpt>
<trkpt lat="46.4798" lon="6.79112"><ele>596.2</ele><time>2024-06-12T16:44:29Z</time></trkpt>
<trkpt lat="46.47979" lon="6.79107"><ele>594.8</ele><time>2024-06-12T16:44:31Z</time></trkpt>
<trkpt lat="46.47982" lon="6.79096"><ele>594</ele><time>2024-06-12T16:44:34Z</time></trkpt>
<trkpt lat="46.47985" lon="6.79091"><ele>593.8</ele><time>2024-06-12T16:44:35Z</time></trkpt>
<trkpt lat="46.47995" lon="6.79071"><ele>593.4</ele><time>2024-06-12T16:44:39Z</time></trkpt>
<trkpt lat="46.48002" lon="6.79058"><ele>593.4</ele><time>2024-06-12T16:44:41Z</time></trkpt>
<trkpt lat="46.48015" lon="6.79038"><ele>593</ele><time>2024-06-12T16:44:44Z</time></trkpt>
<trkpt lat="46.48019" lon="6.7903"><ele>592.6</ele><time>2024-06-12T16:44:45Z</time></trkpt>
<trkpt lat="46.48036" lon="6.78998"><ele>591.2</ele><time>2024-06-12T16:44:49Z</time></trkpt>
<trkpt lat="46.48047" lon="6.78973"><ele>590.6</ele><time>2024-06-12T16:44:52Z</time></trkpt>
<trkpt lat="46.4805" lon="6.78964"><ele>590.2</ele><time>2024-06-12T16:44:53Z</time></trkpt>
<trkpt lat="46.4807" lon="6.78926"><ele>589.4</ele><time>2024-06-12T16:44:58Z</time></trkpt>
<trkpt lat="46.48074" lon="6.78918"><ele>589.2</ele><time>2024-06-12T16:44:59Z</time></trkpt>
<trkpt lat="46.48075" lon="6.78901"><ele>589.2</ele><time>2024-06-12T16:45:01Z</time></trkpt>
<trkpt lat="46.48074" lon="6.78883"><ele>589</ele><time>2024-06-12T16:45:03Z</time></trkpt>
<trkpt lat="46.48076" lon="6.78873"><ele>589</ele><time>2024-06-12T16:45:04Z</time></trkpt>
<trkpt lat="46.48083" lon="6.78845"><ele>588</ele><time>2024-06-12T16:45:07Z</time></trkpt>
<trkpt lat="46.48086" lon="6.78824"><ele>587.4</ele><time>2024-06-12T16:45:09Z</time></trkpt>
<trkpt lat="46.48087" lon="6.78802"><ele>587</ele><time>2024-06-12T16:45:11Z</time></trkpt>
<trkpt lat="46.48085" lon="6.7876"><ele>585.8</ele><time>2024-06-12T16:45:15Z</time></trkpt>
<trkpt lat="46.48081" lon="6.78708"><ele>584.4</ele><time>2024-06-12T16:45:20Z</time></trkpt>
<trkpt lat="46.48079" lon="6.78676"><ele>584</ele><time>2024-06-12T16:45:23Z</time></trkpt>
<trkpt lat="46.48074" lon="6.78622"><ele>583.4</ele><time>2024-06-12T16:45:28Z</time></trkpt>
<trkpt lat="46.48074" lon="6.78611"><ele>583.2</ele><time>2024-06-12T16:45:29Z</time></trkpt>
<trkpt lat="46.48072" lon="6.78591"><ele>582.2</ele><time>2024-06-12T16:45:31Z</time></trkpt>
<trkpt lat="46.48067" lon="6.78524"><ele>582</ele><time>2024-06-12T16:45:38Z</time></trkpt>
<trkpt lat="46.48063" lon="6.78463"><ele>581.2</ele><time>2024-06-12T16:45:44Z</time></trkpt>
<trkpt lat="46.48064" lon="6.78452"><ele>581.2</ele><time>2024-06-12T16:45:45Z</time></trkpt>
<trkpt lat="46.48075" lon="6.78405"><ele>581.6</ele><time>2024-06-12T16:45:50Z</time></trkpt>
<trkpt lat="46.48092" lon="6.78372"><ele>582</ele><time>2024-06-12T16:45:55Z</time></trkpt>
<trkpt lat="46.48096" lon="6.78366"><ele>582.2</ele><time>2024-06-12T16:45:56Z</time></trkpt>
<trkpt lat="46.48112" lon="6.78334"><ele>583.2</ele><time>2024-06-12T16:46:02Z</time></trkpt>
<trkpt lat="46.48115" lon="6.78329"><ele>583.4</ele><time>2024-06-12T16:46:03Z</time></trkpt>
<trkpt lat="46.48121" lon="6.78316"><ele>583.8</ele><time>2024-06-12T16:46:06Z</time></trkpt>
<trkpt lat="46.48131" lon="6.78299"><ele>583.8</ele><time>2024-06-12T16:46:10Z</time></trkpt>
<trkpt lat="46.48144" lon="6.78274"><ele>584.4</ele><time>2024-06-12T16:46:16Z</time></trkpt>
<trkpt lat="46.48147" lon="6.78265"><ele>584.8</ele><time>2024-06-12T16:46:18Z</time></trkpt>
<trkpt lat="46.48151" lon="6.78238"><ele>585.4</ele><time>2024-06-12T16:46:24Z</time></trkpt>
<trkpt lat="46.48151" lon="6.78233"><ele>585.4</ele><time>2024-06-12T16:46:25Z</time></trkpt>
<trkpt lat="46.48152" lon="6.78181"><ele>586.4</ele><time>2024-06-12T16:46:35Z</time></trkpt>
<trkpt lat="46.48152" lon="6.78171"><ele>586.4</ele><time>2024-06-12T16:46:37Z</time></trkpt>
<trkpt lat="46.48155" lon="6.78139"><ele>586.4</ele><time>2024-06-12T16:46:43Z</time></trkpt>
<trkpt lat="46.48167" lon="6.78103"><ele>587</ele><time>2024-06-12T16:46:50Z</time></trkpt>
<trkpt lat="46.48178" lon="6.78077"><ele>587</ele><time>2024-06-12T16:46:55Z</time></trkpt>
<trkpt lat="46.4818" lon="6.78072"><ele>586.6</ele><time>2024-06-12T16:46:56Z</time></trkpt>
<trkpt lat="46.48186" lon="6.78061"><ele>586.2</ele><time>2024-06-12T16:46:58Z</time></trkpt>
<trkpt lat="46.48198" lon="6.78036"><ele>585.4</ele><time>2024-06-12T16:47:02Z</time></trkpt>
<trkpt lat="46.48207" lon="6.78014"><ele>584.4</ele><time>2024-06-12T16:47:05Z</time></trkpt>
<trkpt lat="46.4821" lon="6.78005"><ele>584</ele><time>2024-06-12T16:47:06Z</time></trkpt>
<trkpt lat="46.48217" lon="6.77965"><ele>582.8</ele><time>2024-06-12T16:47:10Z</time></trkpt>
<trkpt lat="46.48217" lon="6.77954"><ele>582.2</ele><time>2024-06-12T16:47:11Z</time></trkpt>
<trkpt lat="46.48217" lon="6.77943"><ele>581.8</ele><time>2024-06-12T16:47:12Z</time></trkpt>
<trkpt lat="46.48216" lon="6.77932"><ele>581.4</ele><time>2024-06-12T16:47:13Z</time></trkpt>
<trkpt lat="46.48215" lon="6.77921"><ele>581.2</ele><time>2024-06-12T16:47:14Z</time></trkpt>
<trkpt lat="46.4821" lon="6.77898"><ele>580.6</ele><time>2024-06-12T16:47:16Z</time></trkpt>
<trkpt lat="46.48204" lon="6.77876"><ele>579.4</ele><time>2024-06-12T16:47:18Z</time></trkpt>
<trkpt lat="46.48197" lon="6.77856"><ele>579</ele><time>2024-06-12T16:47:20Z</time></trkpt>
<trkpt lat="46.48192" lon="6.77849"><ele>578.2</ele><time>2024-06-12T16:47:21Z</time></trkpt>
<trkpt lat="46.48188" lon="6.77844"><ele>577.2</ele><time>2024-06-12T16:47:22Z</time></trkpt>
<trkpt lat="46.48183" lon="6.77841"><ele>576.8</ele><time>2024-06-12T16:47:23Z</time></trkpt>
<trkpt lat="46.48179" lon="6.7784"><ele>576.4</ele><time>2024-06-12T16:47:24Z</time></trkpt>
<trkpt lat="46.48175" lon="6.77839"><ele>576.2</ele><time>2024-06-12T16:47:25Z</time></trkpt>
<trkpt lat="46.48167" lon="6.7783"><ele>576</ele><time>2024-06-12T16:47:28Z</time></trkpt>
<trkpt lat="46.48165" lon="6.77812"><ele>576.4</ele><time>2024-06-12T16:47:33Z</time></trkpt>
<trkpt lat="46.4816" lon="6.77784"><ele>577.4</ele><time>2024-06-12T16:47:41Z</time></trkpt>
<trkpt lat="46.48159" lon="6.77757"><ele>577.8</ele><time>2024-06-12T16:47:47Z</time></trkpt>
<trkpt lat="46.48159" lon="6.77748"><ele>578</ele><time>2024-06-12T16:47:49Z</time></trkpt>
<trkpt lat="46.48162" lon="6.77725"><ele>578.8</ele><time>2024-06-12T16:47:55Z</time></trkpt>
<trkpt lat="46.48163" lon="6.77722"><ele>579</ele><time>2024-06-12T16:47:56Z</time></trkpt>
<trkpt lat="46.48169" lon="6.77706"><ele>580</ele><time>2024-06-12T16:48:01Z</time></trkpt>
<trkpt lat="46.48173" lon="6.77696"><ele>580.8</ele><time>2024-06-12T16:48:04Z</time></trkpt>
<trkpt lat="46.48175" lon="6.7769"><ele>581.2</ele><time>2024-06-12T16:48:06Z</time></trkpt>
<trkpt lat="46.48182" lon="6.77674"><ele>582.2</ele><time>2024-06-12T16:48:11Z</time></trkpt>
<trkpt lat="46.48183" lon="6.77671"><ele>582.8</ele><time>2024-06-12T16:48:12Z</time></trkpt>
<trkpt lat="46.48186" lon="6.77662"><ele>583.4</ele><time>2024-06-12T16:48:16Z</time></trkpt>
<trkpt lat="46.48188" lon="6.77654"><ele>584</ele><time>2024-06-12T16:48:19Z</time></trkpt>
<trkpt lat="46.48189" lon="6.77652"><ele>584</ele><time>2024-06-12T16:48:20Z</time></trkpt>
<trkpt lat="46.48192" lon="6.77647"><ele>584</ele><time>2024-06-12T16:48:22Z</time></trkpt>
<trkpt lat="46.48193" lon="6.77645"><ele>584</ele><time>2024-06-12T16:48:23Z</time></trkpt>
<trkpt lat="46.482" lon="6.77638"><ele>584.4</ele><time>2024-06-12T16:48:26Z</time></trkpt>
<trkpt lat="46.4822" lon="6.77622"><ele>585.2</ele><time>2024-06-12T16:48:34Z</time></trkpt>
<trkpt lat="46.48227" lon="6.77619"><ele>585.4</ele><time>2024-06-12T16:48:36Z</time></trkpt>
<trkpt lat="46.48238" lon="6.77613"><ele>585.2</ele><time>2024-06-12T16:48:41Z</time></trkpt>
<trkpt lat="46.48243" lon="6.77602"><ele>584.4</ele><time>2024-06-12T16:48:44Z</time></trkpt>
<trkpt lat="46.48242" lon="6.77596"><ele>584.4</ele><time>2024-06-12T16:48:45Z</time></trkpt>
<trkpt lat="46.48239" lon="6.77589"><ele>584.4</ele><time>2024-06-12T16:48:46Z</time></trkpt>
<trkpt lat="46.48228" lon="6.77567"><ele>583</ele><time>2024-06-12T16:48:49Z</time></trkpt>
<trkpt lat="46.48211" lon="6.77533"><ele>581.2</ele><time>2024-06-12T16:48:53Z</time></trkpt>
<trkpt lat="46.48206" lon="6.77524"><ele>580.2</ele><time>2024-06-12T16:48:54Z</time></trkpt>
<trkpt lat="46.48202" lon="6.77515"><ele>579.2</ele><time>2024-06-12T16:48:55Z</time></trkpt>
<trkpt lat="46.48197" lon="6.77507"><ele>579</ele><time>2024-06-12T16:48:56Z</time></trkpt>
<trkpt lat="46.48171" lon="6.77468"><ele>578.4</ele><time>2024-06-12T16:49:01Z</time></trkpt>
<trkpt lat="46.48145" lon="6.77428"><ele>577.8</ele><time>2024-06-12T16:49:06Z</time></trkpt>
<trkpt lat="46.48141" lon="6.77419"><ele>577.8</ele><time>2024-06-12T16:49:07Z</time></trkpt>
<trkpt lat="46.48124" lon="6.77382"><ele>577.2</ele><time>2024-06-12T16:49:11Z</time></trkpt>
<trkpt lat="46.48111" lon="6.7737"><ele>577</ele><time>2024-06-12T16:49:13Z</time></trkpt>
<trkpt lat="46.48097" lon="6.77365"><ele>576.8</ele><time>2024-06-12T16:49:15Z</time></trkpt>
<trkpt lat="46.4809" lon="6.77365"><ele>576.8</ele><time>2024-06-12T16:49:16Z</time></trkpt>
<trkpt lat="46.48083" lon="6.77366"><ele>576.8</ele><time>2024-06-12T16:49:17Z</time></trkpt>
<trkpt lat="46.48069" lon="6.77375"><ele>576.6</ele><time>2024-06-12T16:49:19Z</time></trkpt>
<trkpt lat="46.48042" lon="6.77391"><ele>575.6</ele><time>2024-06-12T16:49:23Z</time></trkpt>
<trkpt lat="46.48036" lon="6.7739"><ele>575.4</ele><time>2024-06-12T16:49:24Z</time></trkpt>
<trkpt lat="46.48029" lon="6.77387"><ele>575.4</ele><time>2024-06-12T16:49:25Z</time></trkpt>
<trkpt lat="46.48019" lon="6.77374"><ele>575.6</ele><time>2024-06-12T16:49:27Z</time></trkpt>
<trkpt lat="46.48014" lon="6.77357"><ele>575.6</ele><time>2024-06-12T16:49:29Z</time></trkpt>
<trkpt lat="46.48012" lon="6.77348"><ele>575.6</ele><time>2024-06-12T16:49:30Z</time></trkpt>
<trkpt lat="46.48009" lon="6.77329"><ele>575.6</ele><time>2024-06-12T16:49:32Z</time></trkpt>
<trkpt lat="46.48009" lon="6.77309"><ele>575.2</ele><time>2024-06-12T16:49:34Z</time></trkpt>
<trkpt lat="46.48012" lon="6.77287"><ele>574.4</ele><time>2024-06-12T16:49:36Z</time></trkpt>
<trkpt lat="46.48017" lon="6.77255"><ele>573.4</ele><time>2024-06-12T16:49:39Z</time></trkpt>
<trkpt lat="46.48018" lon="6.77244"><ele>572.6</ele><time>2024-06-12T16:49:40Z</time></trkpt>
<trkpt lat="46.48021" lon="6.77222"><ele>570.8</ele><time>2024-06-12T16:49:42Z</time></trkpt>
<trkpt lat="46.48023" lon="6.77212"><ele>569.8</ele><time>2024-06-12T16:49:43Z</time></trkpt>
<trkpt lat="46.48025" lon="6.77202"><ele>567.4</ele><time>2024-06-12T16:49:44Z</time></trkpt>
<trkpt lat="46.48026" lon="6.77191"><ele>567.4</ele><time>2024-06-12T16:49:45Z</time></trkpt>
<trkpt lat="46.4803" lon="6.77137"><ele>566.2</ele><time>2024-06-12T16:49:50Z</time></trkpt>
<trkpt lat="46.48032" lon="6.77115"><ele>564.8</ele><time>2024-06-12T16:49:52Z</time></trkpt>
<trkpt lat="46.48034" lon="6.77094"><ele>564.4</ele><time>2024-06-12T16:49:54Z</time></trkpt>
<trkpt lat="46.48036" lon="6.77084"><ele>563.8</ele><time>2024-06-12T16:49:55Z</time></trkpt>
<trkpt lat="46.48041" lon="6.77062"><ele>563</ele><time>2024-06-12T16:49:57Z</time></trkpt>
<trkpt lat="46.48043" lon="6.77052"><ele>563</ele><time>2024-06-12T16:49:58Z</time></trkpt>
<trkpt lat="46.48049" lon="6.77019"><ele>563</ele><time>2024-06-12T16:50:01Z</time></trkpt>
<trkpt lat="46.4805" lon="6.76997"><ele>563</ele><time>2024-06-12T16:50:03Z</time></trkpt>
<trkpt lat="46.48048" lon="6.76974"><ele>562.6</ele><time>2024-06-12T16:50:05Z</time></trkpt>
<trkpt lat="46.48048" lon="6.7694"><ele>561.6</ele><time>2024-06-12T16:50:08Z</time></trkpt>
<trkpt lat="46.48051" lon="6.76895"><ele>559.6</ele><time>2024-06-12T16:50:12Z</time></trkpt>
<trkpt lat="46.48053" lon="6.76884"><ele>558.6</ele><time>2024-06-12T16:50:13Z</time></trkpt>
<trkpt lat="46.48055" lon="6.76874"><ele>557.6</ele><time>2024-06-12T16:50:14Z</time></trkpt>
<trkpt lat="46.48055" lon="6.76851"><ele>556.4</ele><time>2024-06-12T16:50:16Z</time></trkpt>
<trkpt lat="46.48052" lon="6.76829"><ele>556</ele><time>2024-06-12T16:50:18Z</time></trkpt>
<trkpt lat="46.48046" lon="6.7681"><ele>555</ele><time>2024-06-12T16:50:20Z</time></trkpt>
<trkpt lat="46.48038" lon="6.76791"><ele>554</ele><time>2024-06-12T16:50:22Z</time></trkpt>
<trkpt lat="46.48032" lon="6.76776"><ele>553.8</ele><time>2024-06-12T16:50:24Z</time></trkpt>
<trkpt lat="46.48028" lon="6.76773"><ele>553.8</ele><time>2024-06-12T16:50:25Z</time></trkpt>
<trkpt lat="46.48024" lon="6.76774"><ele>553.8</ele><time>2024-06-12T16:50:26Z</time></trkpt>
<trkpt lat="46.48018" lon="6.76782"><ele>554.8</ele><time>2024-06-12T16:50:28Z</time></trkpt>
<trkpt lat="46.47997" lon="6.7681"><ele>553.8</ele><time>2024-06-12T16:50:33Z</time></trkpt>
<trkpt lat="46.47992" lon="6.76815"><ele>552.4</ele><time>2024-06-12T16:50:34Z</time></trkpt>
<trkpt lat="46.47983" lon="6.76825"><ele>551.6</ele><time>2024-06-12T16:50:37Z</time></trkpt>
<trkpt lat="46.47979" lon="6.76829"><ele>551</ele><time>2024-06-12T16:50:39Z</time></trkpt>
<trkpt lat="46.47976" lon="6.76831"><ele>550.4</ele><time>2024-06-12T16:50:41Z</time></trkpt>
<trkpt lat="46.47974" lon="6.76832"><ele>550.2</ele><time>2024-06-12T16:50:47Z</time></trkpt>
<trkpt lat="46.47975" lon="6.76832"><ele>550.2</ele><time>2024-06-12T16:50:51Z</time></trkpt>
<trkpt lat="46.47975" lon="6.76832"><ele>550</ele><time>2024-06-12T16:50:53Z</time></trkpt>
<trkpt lat="46.47975" lon="6.76832"><ele>549.8</ele><time>2024-06-12T16:50:54Z</time></trkpt>
<trkpt lat="46.47976" lon="6.76829"><ele>549.2</ele><time>2024-06-12T16:50:58Z</time></trkpt>
<trkpt lat="46.47976" lon="6.76829"><ele>549.2</ele><time>2024-06-12T16:50:59Z</time></trkpt>
<trkpt lat="46.47976" lon="6.76828"><ele>549</ele><time>2024-06-12T16:51:04Z</time></trkpt>
<trkpt lat="46.47976" lon="6.76828"><ele>549</ele><time>2024-06-12T16:51:05Z</time></trkpt>
<trkpt lat="46.47975" lon="6.76828"><ele>548.8</ele><time>2024-06-12T16:51:10Z</time></trkpt>
<trkpt lat="46.47974" lon="6.7683"><ele>548.8</ele><time>2024-06-12T16:51:16Z</time></trkpt>
<trkpt lat="46.47973" lon="6.76833"><ele>549.4</ele><time>2024-06-12T16:51:20Z</time></trkpt>
<trkpt lat="46.47973" lon="6.76832"><ele>549.4</ele><time>2024-06-12T16:51:21Z</time></trkpt>
<trkpt lat="46.47974" lon="6.76831"><ele>549.2</ele><time>2024-06-12T16:51:28Z</time></trkpt>
<trkpt lat="46.47975" lon="6.7683"><ele>549</ele><time>2024-06-12T16:51:33Z</time></trkpt>
<trkpt lat="46.47976" lon="6.76829"><ele>549</ele><time>2024-06-12T16:51:34Z</time></trkpt>
<trkpt lat="46.47977" lon="6.7683"><ele>548.4</ele><time>2024-06-12T16:51:39Z</time></trkpt>
<trkpt lat="46.47977" lon="6.7683"><ele>548.2</ele><time>2024-06-12T16:51:43Z</time></trkpt>
<trkpt lat="46.47976" lon="6.76829"><ele>548</ele><time>2024-06-12T16:51:46Z</time></trkpt>
<trkpt lat="46.47976" lon="6.76829"><ele>548</ele><time>2024-06-12T16:51:49Z</time></trkpt>
<trkpt lat="46.47976" lon="6.7683"><ele>547.4</ele><time>2024-06-12T16:51:56Z</time></trkpt>
<trkpt lat="46.47975" lon="6.7683"><ele>547.4</ele><time>2024-06-12T16:52:03Z</time></trkpt>
<trkpt lat="46.47975" lon="6.76829"><ele>547.4</ele><time>2024-06-12T16:52:09Z</time></trkpt>
<trkpt lat="46.47975" lon="6.76829"><ele>547.4</ele><time>2024-06-12T16:52:11Z</time></trkpt>
<trkpt lat="46.47976" lon="6.7683"><ele>547</ele><time>2024-06-12T16:52:18Z</time></trkpt>
<trkpt lat="46.47976" lon="6.7683"><ele>547</ele><time>2024-06-12T16:52:23Z</time></trkpt>
<trkpt lat="46.47976" lon="6.76829"><ele>546.8</ele><time>2024-06-12T16:52:27Z</time></trkpt>
<trkpt lat="46.47977" lon="6.7683"><ele>546.8</ele><time>2024-06-12T16:52:34Z</time></trkpt>
<trkpt lat="46.47976" lon="6.76828"><ele>546.4</ele><time>2024-06-12T16:52:39Z</time></trkpt>
<trkpt lat="46.47976" lon="6.76827"><ele>546.2</ele><time>2024-06-12T16:52:49Z</time></trkpt>
<trkpt lat="46.47975" lon="6.76828"><ele>546.4</ele><time>2024-06-12T16:52:56Z</time></trkpt>
<trkpt lat="46.47975" lon="6.76828"><ele>547</ele><time>2024-06-12T16:53:02Z</time></trkpt>
<trkpt lat="46.47975" lon="6.76828"><ele>546.6</ele><time>2024-06-12T16:53:08Z</time></trkpt>
<trkpt lat="46.47975" lon="6.76828"><ele>546.4</ele><time>2024-06-12T16:53:14Z</time></trkpt>
<trkpt lat="46.47975" lon="6.76828"><ele>546.4</ele><time>2024-06-12T16:53:15Z</time></trkpt>
<trkpt lat="46.47975" lon="6.76828"><ele>546.4</ele><time>2024-06-12T16:53:20Z</time></trkpt>
<trkpt lat="46.47975" lon="6.76828"><ele>546.4</ele><time>2024-06-12T16:53:25Z</time></trkpt>
<trkpt lat="46.47975" lon="6.76828"><ele>547.2</ele><time>2024-06-12T16:53:31Z</time></trkpt>
<trkpt lat="46.47975" lon="6.76828"><ele>547.2</ele><time>2024-06-12T16:53:34Z</time></trkpt>
<trkpt lat="46.47975" lon="6.76828"><ele>547.2</ele><time>2024-06-12T16:53:37Z</time></trkpt>
<trkpt lat="46.47975" lon="6.7683"><ele>546.8</ele><time>2024-06-12T16:53:42Z</time></trkpt>
<trkpt lat="46.47975" lon="6.7683"><ele>546.6</ele><time>2024-06-12T16:53:46Z</time></trkpt>
<trkpt lat="46.47977" lon="6.7683"><ele>546.6</ele><time>2024-06-12T16:53:49Z</time></trkpt>
<trkpt lat="46.47978" lon="6.7683"><ele>546.6</ele><time>2024-06-12T16:53:51Z</time></trkpt>
<trkpt lat="46.47977" lon="6.76829"><ele>546.6</ele><time>2024-06-12T16:53:56Z</time></trkpt>
<trkpt lat="46.47976" lon="6.76829"><ele>546.6</ele><time>2024-06-12T16:54:01Z</time></trkpt>
<trkpt lat="46.47976" lon="6.76829"><ele>546.6</ele><time>2024-06-12T16:54:02Z</time></trkpt>
<trkpt lat="46.47976" lon="6.76829"><ele>546.6</ele><time>2024-06-12T16:54:12Z</time></trkpt>
<trkpt lat="46.47976" lon="6.76829"><ele>546.6</ele><time>2024-06-12T16:54:18Z</time></trkpt>
<trkpt lat="46.47976" lon="6.76829"><ele>546.6</ele><time>2024-06-12T16:54:27Z</time></trkpt>
<trkpt lat="46.47976" lon="6.76829"><ele>546.6</ele><time>2024-06-12T16:54:34Z</time></trkpt>
<trkpt lat="46.47976" lon="6.76829"><ele>546.6</ele><time>2024-06-12T16:54:36Z</time></trkpt>
<trkpt lat="46.47976" lon="6.76829"><ele>546.6</ele><time>2024-06-12T16:54:58Z</time></trkpt>
<trkpt lat="46.47976" lon="6.76829"><ele>546.6</ele><time>2024-06-12T16:55:15Z</time></trkpt>
<trkpt lat="46.47976" lon="6.76829"><ele>546.6</ele><time>2024-06-12T16:55:19Z</time></trkpt>
<trkpt lat="46.47976" lon="6.76829"><ele>546.6</ele><time>2024-06-12T16:55:38Z</time></trkpt>
<trkpt lat="46.47977" lon="6.7683"><ele>546.6</ele><time>2024-06-12T16:55:49Z</time></trkpt>
<trkpt lat="46.47977" lon="6.7683"><ele>546.6</ele><time>2024-06-12T16:56:01Z</time></trkpt>
<trkpt lat="46.47976" lon="6.7683"><ele>546.6</ele><time>2024-06-12T16:56:07Z</time></trkpt>
<trkpt lat="46.47975" lon="6.76828"><ele>546.6</ele><time>2024-06-12T16:56:10Z</time></trkpt>
<trkpt lat="46.47975" lon="6.76828"><ele>546.6</ele><time>2024-06-12T16:56:16Z</time></trkpt>
<trkpt lat="46.47976" lon="6.76826"><ele>546.6</ele><time>2024-06-12T16:56:21Z</time></trkpt>
<trkpt lat="46.47975" lon="6.76827"><ele>546.6</ele><time>2024-06-12T16:56:24Z</time></trkpt>
<trkpt lat="46.47975" lon="6.76827"><ele>546.6</ele><time>2024-06-12T16:56:32Z</time></trkpt>
<trkpt lat="46.47975" lon="6.76828"><ele>546.6</ele><time>2024-06-12T16:56:38Z</time></trkpt>
<trkpt lat="46.47975" lon="6.76828"><ele>546.6</ele><time>2024-06-12T16:56:45Z</time></trkpt>
<trkpt lat="46.47976" lon="6.76827"><ele>546.6</ele><time>2024-06-12T16:56:50Z</time></trkpt>
<trkpt lat="46.47975" lon="6.76827"><ele>546.6</ele><time>2024-06-12T16:56:56Z</time></trkpt>
<trkpt lat="46.47976" lon="6.76828"><ele>546.6</ele><time>2024-06-12T16:56:59Z</time></trkpt>
<trkpt lat="46.47977" lon="6.76827"><ele>546.6</ele><time>2024-06-12T16:57:01Z</time></trkpt>
<trkpt lat="46.47976" lon="6.76827"><ele>546.6</ele><time>2024-06-12T16:57:04Z</time></trkpt>
<trkpt lat="46.47975" lon="6.76828"><ele>546.6</ele><time>2024-06-12T16:57:11Z</time></trkpt>
<trkpt lat="46.47975" lon="6.76831"><ele>546.6</ele><time>2024-06-12T16:57:18Z</time></trkpt>
<trkpt lat="46.47975" lon="6.76833"><ele>546.6</ele><time>2024-06-12T16:57:25Z</time></trkpt>
<trkpt lat="46.47974" lon="6.76833"><ele>546.6</ele><time>2024-06-12T16:57:31Z</time></trkpt>
<trkpt lat="46.47975" lon="6.76833"><ele>546.6</ele><time>2024-06-12T16:57:38Z</time></trkpt>
<trkpt lat="46.47974" lon="6.76832"><ele>546.6</ele><time>2024-06-12T16:57:44Z</time></trkpt>
<trkpt lat="46.47974" lon="6.76832"><ele>546.6</ele><time>2024-06-12T16:57:55Z</time></trkpt>
<trkpt lat="46.47974" lon="6.76833"><ele>546.6</ele><time>2024-06-12T16:58:02Z</time></trkpt>
<trkpt lat="46.47976" lon="6.76834"><ele>546.6</ele><time>2024-06-12T16:58:05Z</time></trkpt>
<trkpt lat="46.47978" lon="6.76835"><ele>546.4</ele><time>2024-06-12T16:58:07Z</time></trkpt>
<trkpt lat="46.47979" lon="6.76835"><ele>546.4</ele><time>2024-06-12T16:58:08Z</time></trkpt>
<trkpt lat="46.47982" lon="6.76835"><ele>546.6</ele><time>2024-06-12T16:58:10Z</time></trkpt>
<trkpt lat="46.47984" lon="6.76833"><ele>546.6</ele><time>2024-06-12T16:58:13Z</time></trkpt>
<trkpt lat="46.47982" lon="6.76832"><ele>547</ele><time>2024-06-12T16:58:17Z</time></trkpt>
<trkpt lat="46.4798" lon="6.7683"><ele>547</ele><time>2024-06-12T16:58:19Z</time></trkpt>
<trkpt lat="46.4798" lon="6.76828"><ele>547.2</ele><time>2024-06-12T16:58:20Z</time></trkpt>
<trkpt lat="46.47982" lon="6.76826"><ele>547.6</ele><time>2024-06-12T16:58:22Z</time></trkpt>
<trkpt lat="46.47984" lon="6.76823"><ele>548</ele><time>2024-06-12T16:58:24Z</time></trkpt>
<trkpt lat="46.47988" lon="6.76817"><ele>548.2</ele><time>2024-06-12T16:58:28Z</time></trkpt>
<trkpt lat="46.47994" lon="6.76812"><ele>548.6</ele><time>2024-06-12T16:58:34Z</time></trkpt>
<trkpt lat="46.47994" lon="6.76811"><ele>548.6</ele><time>2024-06-12T16:58:35Z</time></trkpt>
<trkpt lat="46.47998" lon="6.76807"><ele>549</ele><time>2024-06-12T16:58:39Z</time></trkpt>
<trkpt lat="46.47999" lon="6.76805"><ele>549.2</ele><time>2024-06-12T16:58:41Z</time></trkpt>
<trkpt lat="46.48" lon="6.76803"><ele>549.4</ele><time>2024-06-12T16:58:42Z</time></trkpt>
<trkpt lat="46.48003" lon="6.768"><ele>549.6</ele><time>2024-06-12T16:58:45Z</time></trkpt>
<trkpt lat="46.48004" lon="6.76799"><ele>550</ele><time>2024-06-12T16:58:46Z</time></trkpt>
<trkpt lat="46.48007" lon="6.76796"><ele>550.2</ele><time>2024-06-12T16:58:49Z</time></trkpt>
<trkpt lat="46.48013" lon="6.76787"><ele>550.8</ele><time>2024-06-12T16:58:56Z</time></trkpt>
<trkpt lat="46.48013" lon="6.76786"><ele>551</ele><time>2024-06-12T16:58:57Z</time></trkpt>
<trkpt lat="46.4802" lon="6.76779"><ele>551.8</ele><time>2024-06-12T16:59:03Z</time></trkpt>
<trkpt lat="46.48026" lon="6.76771"><ele>552</ele><time>2024-06-12T16:59:08Z</time></trkpt>
<trkpt lat="46.48028" lon="6.76765"><ele>551.8</ele><time>2024-06-12T16:59:10Z</time></trkpt>
<trkpt lat="46.4803" lon="6.76752"><ele>551.2</ele><time>2024-06-12T16:59:13Z</time></trkpt>
<trkpt lat="46.48035" lon="6.76729"><ele>550.2</ele><time>2024-06-12T16:59:17Z</time></trkpt>
<trkpt lat="46.48037" lon="6.76722"><ele>550.2</ele><time>2024-06-12T16:59:18Z</time></trkpt>
<trkpt lat="46.48039" lon="6.76716"><ele>550</ele><time>2024-06-12T16:59:19Z</time></trkpt>
<trkpt lat="46.48046" lon="6.76695"><ele>548.6</ele><time>2024-06-12T16:59:22Z</time></trkpt>
<trkpt lat="46.4805" lon="6.76679"><ele>548.2</ele><time>2024-06-12T16:59:24Z</time></trkpt>
<trkpt lat="46.48054" lon="6.7666"><ele>547.6</ele><time>2024-06-12T16:59:26Z</time></trkpt>
<trkpt lat="46.48056" lon="6.7665"><ele>546.6</ele><time>2024-06-12T16:59:27Z</time></trkpt>
<trkpt lat="46.48062" lon="6.76631"><ele>545</ele><time>2024-06-12T16:59:29Z</time></trkpt>
<trkpt lat="46.48065" lon="6.76621"><ele>544.4</ele><time>2024-06-12T16:59:30Z</time></trkpt>
<trkpt lat="46.48068" lon="6.76612"><ele>544</ele><time>2024-06-12T16:59:31Z</time></trkpt>
<trkpt lat="46.48073" lon="6.76603"><ele>543.6</ele><time>2024-06-12T16:59:32Z</time></trkpt>
<trkpt lat="46.48087" lon="6.76577"><ele>542</ele><time>2024-06-12T16:59:35Z</time></trkpt>
<trkpt lat="46.48105" lon="6.7654"><ele>540.4</ele><time>2024-06-12T16:59:39Z</time></trkpt>
<trkpt lat="46.48112" lon="6.7652"><ele>539.4</ele><time>2024-06-12T16:59:41Z</time></trkpt>
<trkpt lat="46.48116" lon="6.76509"><ele>539.2</ele><time>2024-06-12T16:59:42Z</time></trkpt>
<trkpt lat="46.48127" lon="6.76477"><ele>538</ele><time>2024-06-12T16:59:45Z</time></trkpt>
<trkpt lat="46.48139" lon="6.76443"><ele>536.6</ele><time>2024-06-12T16:59:48Z</time></trkpt>
<trkpt lat="46.48144" lon="6.76431"><ele>536.2</ele><time>2024-06-12T16:59:49Z</time></trkpt>
<trkpt lat="46.48153" lon="6.76409"><ele>535.6</ele><time>2024-06-12T16:59:51Z</time></trkpt>
<trkpt lat="46.48163" lon="6.76387"><ele>534</ele><time>2024-06-12T16:59:53Z</time></trkpt>
<trkpt lat="46.48174" lon="6.76365"><ele>532.8</ele><time>2024-06-12T16:59:55Z</time></trkpt>
<trkpt lat="46.48184" lon="6.76343"><ele>532</ele><time>2024-06-12T16:59:57Z</time></trkpt>
<trkpt lat="46.48189" lon="6.76332"><ele>531.6</ele><time>2024-06-12T16:59:58Z</time></trkpt>
<trkpt lat="46.482" lon="6.76309"><ele>530.8</ele><time>2024-06-12T17:00:00Z</time></trkpt>
<trkpt lat="46.48205" lon="6.76298"><ele>530.2</ele><time>2024-06-12T17:00:01Z</time></trkpt>
<trkpt lat="46.48216" lon="6.76276"><ele>528.8</ele><time>2024-06-12T17:00:03Z</time></trkpt>
<trkpt lat="46.48232" lon="6.76242"><ele>527.4</ele><time>2024-06-12T17:00:06Z</time></trkpt>
<trkpt lat="46.48238" lon="6.76231"><ele>527</ele><time>2024-06-12T17:00:07Z</time></trkpt>
<trkpt lat="46.48259" lon="6.76199"><ele>526</ele><time>2024-06-12T17:00:10Z</time></trkpt>
<trkpt lat="46.48272" lon="6.7618"><ele>524</ele><time>2024-06-12T17:00:12Z</time></trkpt>
<trkpt lat="46.48279" lon="6.7617"><ele>522.8</ele><time>2024-06-12T17:00:13Z</time></trkpt>
<trkpt lat="46.48311" lon="6.76116"><ele>521.8</ele><time>2024-06-12T17:00:18Z</time></trkpt>
<trkpt lat="46.48317" lon="6.76104"><ele>521.2</ele><time>2024-06-12T17:00:19Z</time></trkpt>
<trkpt lat="46.4833" lon="6.76082"><ele>519.8</ele><time>2024-06-12T17:00:21Z</time></trkpt>
<trkpt lat="46.48344" lon="6.76062"><ele>518</ele><time>2024-06-12T17:00:23Z</time></trkpt>
<trkpt lat="46.48358" lon="6.76045"><ele>516.6</ele><time>2024-06-12T17:00:25Z</time></trkpt>
<trkpt lat="46.48384" lon="6.76007"><ele>515.2</ele><time>2024-06-12T17:00:29Z</time></trkpt>
<trkpt lat="46.48391" lon="6.75997"><ele>515.2</ele><time>2024-06-12T17:00:30Z</time></trkpt>
<trkpt lat="46.48404" lon="6.75975"><ele>514</ele><time>2024-06-12T17:00:32Z</time></trkpt>
<trkpt lat="46.48419" lon="6.75957"><ele>512.8</ele><time>2024-06-12T17:00:34Z</time></trkpt>
<trkpt lat="46.48435" lon="6.75941"><ele>511.4</ele><time>2024-06-12T17:00:36Z</time></trkpt>
<trkpt lat="46.4845" lon="6.75925"><ele>510.4</ele><time>2024-06-12T17:00:38Z</time></trkpt>
<trkpt lat="46.48471" lon="6.759"><ele>509.2</ele><time>2024-06-12T17:00:41Z</time></trkpt>
<trkpt lat="46.48477" lon="6.75891"><ele>508.8</ele><time>2024-06-12T17:00:42Z</time></trkpt>
<trkpt lat="46.4849" lon="6.75872"><ele>508.2</ele><time>2024-06-12T17:00:44Z</time></trkpt>
<trkpt lat="46.48508" lon="6.75843"><ele>506.6</ele><time>2024-06-12T17:00:47Z</time></trkpt>
<trkpt lat="46.48514" lon="6.75833"><ele>505.6</ele><time>2024-06-12T17:00:48Z</time></trkpt>
<trkpt lat="46.48526" lon="6.75814"><ele>504.2</ele><time>2024-06-12T17:00:50Z</time></trkpt>
<trkpt lat="46.48556" lon="6.75764"><ele>503</ele><time>2024-06-12T17:00:55Z</time></trkpt>
<trkpt lat="46.48568" lon="6.75744"><ele>501.6</ele><time>2024-06-12T17:00:57Z</time></trkpt>
<trkpt lat="46.48574" lon="6.75734"><ele>500.4</ele><time>2024-06-12T17:00:58Z</time></trkpt>
<trkpt lat="46.4858" lon="6.75724"><ele>499</ele><time>2024-06-12T17:00:59Z</time></trkpt>
<trkpt lat="46.48591" lon="6.75704"><ele>497.6</ele><time>2024-06-12T17:01:01Z</time></trkpt>
<trkpt lat="46.48608" lon="6.75675"><ele>496.4</ele><time>2024-06-12T17:01:04Z</time></trkpt>
<trkpt lat="46.48619" lon="6.75655"><ele>495.4</ele><time>2024-06-12T17:01:06Z</time></trkpt>
<trkpt lat="46.4863" lon="6.75635"><ele>494.4</ele><time>2024-06-12T17:01:08Z</time></trkpt>
<trkpt lat="46.48635" lon="6.75625"><ele>494</ele><time>2024-06-12T17:01:09Z</time></trkpt>
<trkpt lat="46.4864" lon="6.75615"><ele>493.2</ele><time>2024-06-12T17:01:10Z</time></trkpt>
<trkpt lat="46.4865" lon="6.75595"><ele>492</ele><time>2024-06-12T17:01:12Z</time></trkpt>
<trkpt lat="46.48684" lon="6.75539"><ele>490.6</ele><time>2024-06-12T17:01:18Z</time></trkpt>
<trkpt lat="46.48696" lon="6.75524"><ele>489.2</ele><time>2024-06-12T17:01:20Z</time></trkpt>
<trkpt lat="46.48708" lon="6.75512"><ele>488.6</ele><time>2024-06-12T17:01:22Z</time></trkpt>
<trkpt lat="46.48724" lon="6.75493"><ele>487.8</ele><time>2024-06-12T17:01:25Z</time></trkpt>
<trkpt lat="46.48744" lon="6.75469"><ele>487.8</ele><time>2024-06-12T17:01:29Z</time></trkpt>
<trkpt lat="46.48769" lon="6.75437"><ele>486.8</ele><time>2024-06-12T17:01:35Z</time></trkpt>
<trkpt lat="46.48772" lon="6.75431"><ele>486.4</ele><time>2024-06-12T17:01:36Z</time></trkpt>
<trkpt lat="46.48785" lon="6.75407"><ele>485.6</ele><time>2024-06-12T17:01:40Z</time></trkpt>
<trkpt lat="46.48791" lon="6.75397"><ele>484.4</ele><time>2024-06-12T17:01:42Z</time></trkpt>
<trkpt lat="46.48797" lon="6.75387"><ele>484.2</ele><time>2024-06-12T17:01:44Z</time></trkpt>
<trkpt lat="46.48819" lon="6.75347"><ele>483.6</ele><time>2024-06-12T17:01:51Z</time></trkpt>
<trkpt lat="46.48825" lon="6.75334"><ele>483.2</ele><time>2024-06-12T17:01:53Z</time></trkpt>
<trkpt lat="46.48847" lon="6.75292"><ele>482.6</ele><time>2024-06-12T17:01:59Z</time></trkpt>
<trkpt lat="46.4886" lon="6.75268"><ele>482</ele><time>2024-06-12T17:02:02Z</time></trkpt>
<trkpt lat="46.48874" lon="6.75249"><ele>481.6</ele><time>2024-06-12T17:02:05Z</time></trkpt>
<trkpt lat="46.4888" lon="6.75243"><ele>480.6</ele><time>2024-06-12T17:02:06Z</time></trkpt>
<trkpt lat="46.48885" lon="6.75237"><ele>479.6</ele><time>2024-06-12T17:02:07Z</time></trkpt>
<trkpt lat="46.48913" lon="6.75214"><ele>479</ele><time>2024-06-12T17:02:12Z</time></trkpt>
<trkpt lat="46.48918" lon="6.75209"><ele>479</ele><time>2024-06-12T17:02:13Z</time></trkpt>
<trkpt lat="46.48928" lon="6.75197"><ele>479</ele><time>2024-06-12T17:02:15Z</time></trkpt>
<trkpt lat="46.48938" lon="6.75182"><ele>478.8</ele><time>2024-06-12T17:02:17Z</time></trkpt>
<trkpt lat="46.48943" lon="6.75161"><ele>478.4</ele><time>2024-06-12T17:02:19Z</time></trkpt>
<trkpt lat="46.48943" lon="6.75151"><ele>478.2</ele><time>2024-06-12T17:02:20Z</time></trkpt>
<trkpt lat="46.48943" lon="6.75141"><ele>477.4</ele><time>2024-06-12T17:02:21Z</time></trkpt>
<trkpt lat="46.48943" lon="6.75119"><ele>476.4</ele><time>2024-06-12T17:02:23Z</time></trkpt>
<trkpt lat="46.48945" lon="6.75099"><ele>475.6</ele><time>2024-06-12T17:02:25Z</time></trkpt>
<trkpt lat="46.48947" lon="6.7509"><ele>475.4</ele><time>2024-06-12T17:02:26Z</time></trkpt>
<trkpt lat="46.48953" lon="6.75074"><ele>474.8</ele><time>2024-06-12T17:02:28Z</time></trkpt>
<trkpt lat="46.48955" lon="6.75066"><ele>474.6</ele><time>2024-06-12T17:02:29Z</time></trkpt>
<trkpt lat="46.48962" lon="6.75049"><ele>475</ele><time>2024-06-12T17:02:33Z</time></trkpt>
<trkpt lat="46.48961" lon="6.75048"><ele>475</ele><time>2024-06-12T17:02:34Z</time></trkpt>
<trkpt lat="46.48959" lon="6.75047"><ele>475.4</ele><time>2024-06-12T17:02:36Z</time></trkpt>
<trkpt lat="46.48948" lon="6.75054"><ele>475.2</ele><time>2024-06-12T17:02:39Z</time></trkpt>
<trkpt lat="46.48942" lon="6.75057"><ele>474.2</ele><time>2024-06-12T17:02:40Z</time></trkpt>
<trkpt lat="46.48937" lon="6.75059"><ele>473.2</ele><time>2024-06-12T17:02:41Z</time></trkpt>
<trkpt lat="46.48931" lon="6.75061"><ele>471.6</ele><time>2024-06-12T17:02:42Z</time></trkpt>
<trkpt lat="46.48925" lon="6.75063"><ele>470.6</ele><time>2024-06-12T17:02:43Z</time></trkpt>
<trkpt lat="46.48918" lon="6.75066"><ele>469.2</ele><time>2024-06-12T17:02:44Z</time></trkpt>
<trkpt lat="46.48912" lon="6.75069"><ele>468.2</ele><time>2024-06-12T17:02:45Z</time></trkpt>
<trkpt lat="46.48906" lon="6.75074"><ele>467.2</ele><time>2024-06-12T17:02:46Z</time></trkpt>
<trkpt lat="46.48901" lon="6.75079"><ele>465.6</ele><time>2024-06-12T17:02:47Z</time></trkpt>
<trkpt lat="46.48896" lon="6.75085"><ele>464.6</ele><time>2024-06-12T17:02:48Z</time></trkpt>
<trkpt lat="46.48893" lon="6.75092"><ele>463.8</ele><time>2024-06-12T17:02:49Z</time></trkpt>
<trkpt lat="46.4889" lon="6.75101"><ele>462.8</ele><time>2024-06-12T17:02:50Z</time></trkpt>
<trkpt lat="46.48887" lon="6.75111"><ele>462</ele><time>2024-06-12T17:02:51Z</time></trkpt>
<trkpt lat="46.48881" lon="6.75134"><ele>460.2</ele><time>2024-06-12T17:02:53Z</time></trkpt>
<trkpt lat="46.48877" lon="6.75145"><ele>458.8</ele><time>2024-06-12T17:02:54Z</time></trkpt>
<trkpt lat="46.48872" lon="6.75156"><ele>457</ele><time>2024-06-12T17:02:55Z</time></trkpt>
<trkpt lat="46.48859" lon="6.75172"><ele>454</ele><time>2024-06-12T17:02:57Z</time></trkpt>
<trkpt lat="46.48852" lon="6.75177"><ele>453.6</ele><time>2024-06-12T17:02:58Z</time></trkpt>
<trkpt lat="46.48844" lon="6.7518"><ele>452.6</ele><time>2024-06-12T17:02:59Z</time></trkpt>
<trkpt lat="46.48829" lon="6.75185"><ele>451</ele><time>2024-06-12T17:03:01Z</time></trkpt>
<trkpt lat="46.48822" lon="6.75189"><ele>450</ele><time>2024-06-12T17:03:02Z</time></trkpt>
<trkpt lat="46.48816" lon="6.75193"><ele>449.2</ele><time>2024-06-12T17:03:03Z</time></trkpt>
<trkpt lat="46.48805" lon="6.75203"><ele>448</ele><time>2024-06-12T17:03:06Z</time></trkpt>
<trkpt lat="46.48795" lon="6.75209"><ele>447.8</ele><time>2024-06-12T17:03:10Z</time></trkpt>
<trkpt lat="46.48794" lon="6.75208"><ele>447.4</ele><time>2024-06-12T17:03:13Z</time></trkpt>
<trkpt lat="46.48794" lon="6.75207"><ele>447.2</ele><time>2024-06-12T17:03:14Z</time></trkpt>
<trkpt lat="46.48796" lon="6.75204"><ele>447.2</ele><time>2024-06-12T17:03:18Z</time></trkpt>
<trkpt lat="46.48795" lon="6.75203"><ele>447.2</ele><time>2024-06-12T17:03:24Z</time></trkpt>
<trkpt lat="46.48795" lon="6.75204"><ele>447</ele><time>2024-06-12T17:03:28Z</time></trkpt>
<trkpt lat="46.48796" lon="6.75205"><ele>447</ele><time>2024-06-12T17:03:31Z</time></trkpt>
<trkpt lat="46.48796" lon="6.75205"><ele>447.2</ele><time>2024-06-12T17:03:36Z</time></trkpt>
<trkpt lat="46.48796" lon="6.75205"><ele>447.2</ele><time>2024-06-12T17:03:38Z</time></trkpt>
<trkpt lat="46.48796" lon="6.75205"><ele>447.2</ele><time>2024-06-12T17:03:39Z</time></trkpt>
<trkpt lat="46.48796" lon="6.75204"><ele>447.2</ele><time>2024-06-12T17:03:45Z</time></trkpt>
<trkpt lat="46.48795" lon="6.75204"><ele>447</ele><time>2024-06-12T17:03:50Z</time></trkpt>
<trkpt lat="46.48795" lon="6.75204"><ele>447</ele><time>2024-06-12T17:03:55Z</time></trkpt>
<trkpt lat="46.48797" lon="6.75199"><ele>447</ele><time>2024-06-12T17:03:59Z</time></trkpt>
<trkpt lat="46.48802" lon="6.75181"><ele>446.8</ele><time>2024-06-12T17:04:05Z</time></trkpt>
<trkpt lat="46.48803" lon="6.75178"><ele>445.8</ele><time>2024-06-12T17:04:09Z</time></trkpt>
<trkpt lat="46.48803" lon="6.75179"><ele>445.6</ele><time>2024-06-12T17:04:14Z</time></trkpt>
<trkpt lat="46.48802" lon="6.75177"><ele>445.4</ele><time>2024-06-12T17:04:24Z</time></trkpt>
<trkpt lat="46.48802" lon="6.75177"><ele>445.4</ele><time>2024-06-12T17:04:26Z</time></trkpt>
<trkpt lat="46.48801" lon="6.75175"><ele>445.6</ele><time>2024-06-12T17:04:32Z</time></trkpt>
<trkpt lat="46.48802" lon="6.75176"><ele>445.4</ele><time>2024-06-12T17:04:38Z</time></trkpt>
<trkpt lat="46.48801" lon="6.75176"><ele>445.4</ele><time>2024-06-12T17:04:44Z</time></trkpt>
<trkpt lat="46.48803" lon="6.75172"><ele>445.2</ele><time>2024-06-12T17:04:49Z</time></trkpt>
<trkpt lat="46.48808" lon="6.75165"><ele>444.8</ele><time>2024-06-12T17:04:51Z</time></trkpt>
<trkpt lat="46.48817" lon="6.75155"><ele>443.4</ele><time>2024-06-12T17:04:53Z</time></trkpt>
<trkpt lat="46.48825" lon="6.75142"><ele>442.6</ele><time>2024-06-12T17:04:55Z</time></trkpt>
<trkpt lat="46.4883" lon="6.75129"><ele>442.6</ele><time>2024-06-12T17:04:57Z</time></trkpt>
<trkpt lat="46.48832" lon="6.75124"><ele>442.8</ele><time>2024-06-12T17:04:58Z</time></trkpt>
<trkpt lat="46.48834" lon="6.75112"><ele>444.6</ele><time>2024-06-12T17:05:01Z</time></trkpt>
<trkpt lat="46.48834" lon="6.7511"><ele>445</ele><time>2024-06-12T17:05:02Z</time></trkpt>
<trkpt lat="46.48833" lon="6.75098"><ele>445.6</ele><time>2024-06-12T17:05:07Z</time></trkpt>
<trkpt lat="46.48833" lon="6.75096"><ele>445.8</ele><time>2024-06-12T17:05:08Z</time></trkpt>
<trkpt lat="46.48838" lon="6.75083"><ele>446.2</ele><time>2024-06-12T17:05:14Z</time></trkpt>
<trkpt lat="46.48841" lon="6.75069"><ele>446.6</ele><time>2024-06-12T17:05:19Z</time></trkpt>
<trkpt lat="46.48843" lon="6.75064"><ele>447.4</ele><time>2024-06-12T17:05:21Z</time></trkpt>
<trkpt lat="46.48848" lon="6.75051"><ele>447.4</ele><time>2024-06-12T17:05:26Z</time></trkpt>
<trkpt lat="46.48848" lon="6.75044"><ele>448</ele><time>2024-06-12T17:05:29Z</time></trkpt>
<trkpt lat="46.48849" lon="6.7504"><ele>448.2</ele><time>2024-06-12T17:05:32Z</time></trkpt>
<trkpt lat="46.48849" lon="6.7504"><ele>448.4</ele><time>2024-06-12T17:05:34Z</time></trkpt>
<trkpt lat="46.48849" lon="6.7504"><ele>448.4</ele><time>2024-06-12T17:05:36Z</time></trkpt>
<trkpt lat="46.48849" lon="6.75041"><ele>448.4</ele><time>2024-06-12T17:05:39Z</time></trkpt>
<trkpt lat="46.48852" lon="6.7504"><ele>448.4</ele><time>2024-06-12T17:05:42Z</time></trkpt>
<trkpt lat="46.48861" lon="6.75029"><ele>448</ele><time>2024-06-12T17:05:46Z</time></trkpt>
<trkpt lat="46.48875" lon="6.75009"><ele>447.8</ele><time>2024-06-12T17:05:51Z</time></trkpt>
<trkpt lat="46.48883" lon="6.75001"><ele>447.4</ele><time>2024-06-12T17:05:53Z</time></trkpt>
<trkpt lat="46.48888" lon="6.74998"><ele>446.8</ele><time>2024-06-12T17:05:54Z</time></trkpt>
<trkpt lat="46.4891" lon="6.74986"><ele>446.2</ele><time>2024-06-12T17:05:58Z</time></trkpt>
<trkpt lat="46.48923" lon="6.74972"><ele>445.8</ele><time>2024-06-12T17:06:01Z</time></trkpt>
<trkpt lat="46.4893" lon="6.7496"><ele>445.6</ele><time>2024-06-12T17:06:03Z</time></trkpt>
<trkpt lat="46.48937" lon="6.74943"><ele>445.8</ele><time>2024-06-12T17:06:06Z</time></trkpt>
<trkpt lat="46.4894" lon="6.7493"><ele>445.8</ele><time>2024-06-12T17:06:08Z</time></trkpt>
<trkpt lat="46.48941" lon="6.74923"><ele>445.8</ele><time>2024-06-12T17:06:09Z</time></trkpt>
<trkpt lat="46.48948" lon="6.7488"><ele>444.8</ele><time>2024-06-12T17:06:14Z</time></trkpt>
<trkpt lat="46.48949" lon="6.7487"><ele>443.6</ele><time>2024-06-12T17:06:15Z</time></trkpt>
<trkpt lat="46.48951" lon="6.7486"><ele>442.6</ele><time>2024-06-12T17:06:16Z</time></trkpt>
<trkpt lat="46.48952" lon="6.7485"><ele>441.2</ele><time>2024-06-12T17:06:17Z</time></trkpt>
<trkpt lat="46.48958" lon="6.74822"><ele>440.2</ele><time>2024-06-12T17:06:20Z</time></trkpt>
<trkpt lat="46.48969" lon="6.74792"><ele>438.4</ele><time>2024-06-12T17:06:23Z</time></trkpt>
<trkpt lat="46.48973" lon="6.74781"><ele>437.6</ele><time>2024-06-12T17:06:24Z</time></trkpt>
<trkpt lat="46.48978" lon="6.74769"><ele>436.6</ele><time>2024-06-12T17:06:25Z</time></trkpt>
<trkpt lat="46.48987" lon="6.74745"><ele>434.4</ele><time>2024-06-12T17:06:27Z</time></trkpt>
<trkpt lat="46.49" lon="6.74711"><ele>433.4</ele><time>2024-06-12T17:06:30Z</time></trkpt>
<trkpt lat="46.49009" lon="6.74691"><ele>435.4</ele><time>2024-06-12T17:06:33Z</time></trkpt>
<trkpt lat="46.49013" lon="6.74686"><ele>436.4</ele><time>2024-06-12T17:06:34Z</time></trkpt>
<trkpt lat="46.49018" lon="6.74678"><ele>437.6</ele><time>2024-06-12T17:06:36Z</time></trkpt>
<trkpt lat="46.49022" lon="6.74669"><ele>438</ele><time>2024-06-12T17:06:38Z</time></trkpt>
<trkpt lat="46.49032" lon="6.74652"><ele>437.8</ele><time>2024-06-12T17:06:41Z</time></trkpt>
<trkpt lat="46.49036" lon="6.74646"><ele>437.2</ele><time>2024-06-12T17:06:42Z</time></trkpt>
<trkpt lat="46.4904" lon="6.74638"><ele>436.6</ele><time>2024-06-12T17:06:43Z</time></trkpt>
<trkpt lat="46.49045" lon="6.74631"><ele>435.8</ele><time>2024-06-12T17:06:44Z</time></trkpt>
<trkpt lat="46.49049" lon="6.74623"><ele>435</ele><time>2024-06-12T17:06:45Z</time></trkpt>
<trkpt lat="46.49054" lon="6.74615"><ele>435</ele><time>2024-06-12T17:06:46Z</time></trkpt>
<trkpt lat="46.49058" lon="6.74608"><ele>435</ele><time>2024-06-12T17:06:47Z</time></trkpt>
<trkpt lat="46.49064" lon="6.74597"><ele>435.6</ele><time>2024-06-12T17:06:49Z</time></trkpt>
<trkpt lat="46.49066" lon="6.74593"><ele>436.2</ele><time>2024-06-12T17:06:50Z</time></trkpt>
<trkpt lat="46.49067" lon="6.7459"><ele>437.4</ele><time>2024-06-12T17:06:51Z</time></trkpt>
<trkpt lat="46.49069" lon="6.74586"><ele>438</ele><time>2024-06-12T17:06:53Z</time></trkpt>
<trkpt lat="46.4907" lon="6.74584"><ele>438</ele><time>2024-06-12T17:06:54Z</time></trkpt>
<trkpt lat="46.49072" lon="6.74578"><ele>438.2</ele><time>2024-06-12T17:06:56Z</time></trkpt>
<trkpt lat="46.49074" lon="6.7457"><ele>438.4</ele><time>2024-06-12T17:06:59Z</time></trkpt>
<trkpt lat="46.49074" lon="6.74568"><ele>438.4</ele><time>2024-06-12T17:07:00Z</time></trkpt>
<trkpt lat="46.49075" lon="6.74562"><ele>438.4</ele><time>2024-06-12T17:07:03Z</time></trkpt>
<trkpt lat="46.49076" lon="6.74549"><ele>438</ele><time>2024-06-12T17:07:09Z</time></trkpt>
<trkpt lat="46.49079" lon="6.74526"><ele>437.4</ele><time>2024-06-12T17:07:15Z</time></trkpt>
<trkpt lat="46.49088" lon="6.74495"><ele>436.8</ele><time>2024-06-12T17:07:22Z</time></trkpt>
<trkpt lat="46.49092" lon="6.74487"><ele>437.6</ele><time>2024-06-12T17:07:26Z</time></trkpt>
<trkpt lat="46.49098" lon="6.7448"><ele>438.6</ele><time>2024-06-12T17:07:33Z</time></trkpt>
<trkpt lat="46.49101" lon="6.74474"><ele>439.4</ele><time>2024-06-12T17:07:37Z</time></trkpt>
<trkpt lat="46.49101" lon="6.74473"><ele>439.8</ele><time>2024-06-12T17:07:38Z</time></trkpt>
<trkpt lat="46.49103" lon="6.74471"><ele>440.4</ele><time>2024-06-12T17:07:40Z</time></trkpt>
<trkpt lat="46.49102" lon="6.74468"><ele>440.8</ele><time>2024-06-12T17:07:42Z</time></trkpt>
<trkpt lat="46.49099" lon="6.74464"><ele>441</ele><time>2024-06-12T17:07:44Z</time></trkpt>
<trkpt lat="46.49096" lon="6.7446"><ele>441</ele><time>2024-06-12T17:07:46Z</time></trkpt>
<trkpt lat="46.49088" lon="6.74445"><ele>440</ele><time>2024-06-12T17:07:51Z</time></trkpt>
<trkpt lat="46.4908" lon="6.7443"><ele>439.4</ele><time>2024-06-12T17:07:55Z</time></trkpt>
<trkpt lat="46.49077" lon="6.74423"><ele>438.8</ele><time>2024-06-12T17:07:57Z</time></trkpt>
<trkpt lat="46.49075" lon="6.7442"><ele>438.4</ele><time>2024-06-12T17:07:58Z</time></trkpt>
<trkpt lat="46.49074" lon="6.74417"><ele>438</ele><time>2024-06-12T17:07:59Z</time></trkpt>
<trkpt lat="46.49073" lon="6.74413"><ele>437.2</ele><time>2024-06-12T17:08:01Z</time></trkpt>
<trkpt lat="46.49074" lon="6.74413"><ele>436.8</ele><time>2024-06-12T17:08:03Z</time></trkpt>
<trkpt lat="46.49075" lon="6.74412"><ele>436.6</ele><time>2024-06-12T17:08:08Z</time></trkpt>
<trkpt lat="46.49076" lon="6.74408"><ele>436</ele><time>2024-06-12T17:08:13Z</time></trkpt>
<trkpt lat="46.49076" lon="6.74405"><ele>435.6</ele><time>2024-06-12T17:08:16Z</time></trkpt>
<trkpt lat="46.49076" lon="6.74404"><ele>435.4</ele><time>2024-06-12T17:08:17Z</time></trkpt>
<trkpt lat="46.49076" lon="6.74404"><ele>435</ele><time>2024-06-12T17:08:19Z</time></trkpt>
<trkpt lat="46.49074" lon="6.74403"><ele>434.4</ele><time>2024-06-12T17:08:23Z</time></trkpt>
<trkpt lat="46.49073" lon="6.74402"><ele>433.8</ele><time>2024-06-12T17:08:25Z</time></trkpt>
<trkpt lat="46.49071" lon="6.74401"><ele>432.4</ele><time>2024-06-12T17:08:31Z</time></trkpt>
<trkpt lat="46.4907" lon="6.74401"><ele>431.8</ele><time>2024-06-12T17:08:33Z</time></trkpt>
<trkpt lat="46.49068" lon="6.744"><ele>431.2</ele><time>2024-06-12T17:08:36Z</time></trkpt>
<trkpt lat="46.49068" lon="6.74398"><ele>430.6</ele><time>2024-06-12T17:08:38Z</time></trkpt>
<trkpt lat="46.49068" lon="6.74398"><ele>430.2</ele><time>2024-06-12T17:08:39Z</time></trkpt>
<trkpt lat="46.49069" lon="6.74396"><ele>430.2</ele><time>2024-06-12T17:08:41Z</time></trkpt>
<trkpt lat="46.4907" lon="6.74391"><ele>429.6</ele><time>2024-06-12T17:08:45Z</time></trkpt>
<trkpt lat="46.4907" lon="6.74389"><ele>429</ele><time>2024-06-12T17:08:47Z</time></trkpt>
<trkpt lat="46.4907" lon="6.74383"><ele>427.8</ele><time>2024-06-12T17:08:52Z</time></trkpt>
<trkpt lat="46.4907" lon="6.74382"><ele>427.6</ele><time>2024-06-12T17:08:53Z</time></trkpt>
<trkpt lat="46.4907" lon="6.7438"><ele>426.8</ele><time>2024-06-12T17:08:55Z</time></trkpt>
<trkpt lat="46.4907" lon="6.74377"><ele>426</ele><time>2024-06-12T17:09:00Z</time></trkpt>
<trkpt lat="46.4907" lon="6.74372"><ele>426</ele><time>2024-06-12T17:09:03Z</time></trkpt>
<trkpt lat="46.4907" lon="6.74368"><ele>425.8</ele><time>2024-06-12T17:09:04Z</time></trkpt>
<trkpt lat="46.4907" lon="6.74365"><ele>425.6</ele><time>2024-06-12T17:09:05Z</time></trkpt>
<trkpt lat="46.49069" lon="6.7436"><ele>425.2</ele><time>2024-06-12T17:09:07Z</time></trkpt>
<trkpt lat="46.49068" lon="6.74357"><ele>425</ele><time>2024-06-12T17:09:08Z</time></trkpt>
<trkpt lat="46.49068" lon="6.74354"><ele>424.6</ele><time>2024-06-12T17:09:09Z</time></trkpt>
<trkpt lat="46.49067" lon="6.74351"><ele>424.4</ele><time>2024-06-12T17:09:10Z</time></trkpt>
<trkpt lat="46.49066" lon="6.74344"><ele>423.2</ele><time>2024-06-12T17:09:12Z</time></trkpt>
<trkpt lat="46.49064" lon="6.74333"><ele>422</ele><time>2024-06-12T17:09:15Z</time></trkpt>
<trkpt lat="46.4906" lon="6.74323"><ele>421</ele><time>2024-06-12T17:09:18Z</time></trkpt>
<trkpt lat="46.49059" lon="6.74321"><ele>420.8</ele><time>2024-06-12T17:09:19Z</time></trkpt>
<trkpt lat="46.49058" lon="6.74318"><ele>420.2</ele><time>2024-06-12T17:09:21Z</time></trkpt>
<trkpt lat="46.49057" lon="6.74312"><ele>420</ele><time>2024-06-12T17:09:23Z</time></trkpt>
<trkpt lat="46.49057" lon="6.74304"><ele>420.2</ele><time>2024-06-12T17:09:28Z</time></trkpt>
<trkpt lat="46.49059" lon="6.74291"><ele>420.2</ele><time>2024-06-12T17:09:32Z</time></trkpt>
<trkpt lat="46.4906" lon="6.74269"><ele>419.2</ele><time>2024-06-12T17:09:35Z</time></trkpt>
<trkpt lat="46.49061" lon="6.74259"><ele>418.8</ele><time>2024-06-12T17:09:36Z</time></trkpt>
<trkpt lat="46.49061" lon="6.7425"><ele>418.2</ele><time>2024-06-12T17:09:37Z</time></trkpt>
<trkpt lat="46.49061" lon="6.74206"><ele>418</ele><time>2024-06-12T17:09:42Z</time></trkpt>
<trkpt lat="46.49062" lon="6.7419"><ele>419.2</ele><time>2024-06-12T17:09:45Z</time></trkpt>
<trkpt lat="46.49062" lon="6.74187"><ele>420</ele><time>2024-06-12T17:09:46Z</time></trkpt>
<trkpt lat="46.49062" lon="6.74185"><ele>420.6</ele><time>2024-06-12T17:09:47Z</time></trkpt>
<trkpt lat="46.49063" lon="6.74177"><ele>421.6</ele><time>2024-06-12T17:09:51Z</time></trkpt>
<trkpt lat="46.49064" lon="6.74167"><ele>422.8</ele><time>2024-06-12T17:09:56Z</time></trkpt>
<trkpt lat="46.49065" lon="6.74165"><ele>423</ele><time>2024-06-12T17:09:58Z</time></trkpt>
<trkpt lat="46.49065" lon="6.74157"><ele>423.8</ele><time>2024-06-12T17:10:02Z</time></trkpt>
<trkpt lat="46.49065" lon="6.74155"><ele>424</ele><time>2024-06-12T17:10:03Z</time></trkpt>
<trkpt lat="46.49067" lon="6.74133"><ele>424.4</ele><time>2024-06-12T17:10:12Z</time></trkpt>
<trkpt lat="46.49068" lon="6.74131"><ele>424.4</ele><time>2024-06-12T17:10:13Z</time></trkpt>
<trkpt lat="46.49068" lon="6.74128"><ele>424.4</ele><time>2024-06-12T17:10:14Z</time></trkpt>
<trkpt lat="46.49069" lon="6.74126"><ele>424.4</ele><time>2024-06-12T17:10:15Z</time></trkpt>
<trkpt lat="46.49069" lon="6.74123"><ele>424.4</ele><time>2024-06-12T17:10:16Z</time></trkpt>
<trkpt lat="46.49071" lon="6.74107"><ele>424</ele><time>2024-06-12T17:10:20Z</time></trkpt>
<trkpt lat="46.49077" lon="6.74077"><ele>422.2</ele><time>2024-06-12T17:10:25Z</time></trkpt>
<trkpt lat="46.49083" lon="6.74054"><ele>421</ele><time>2024-06-12T17:10:28Z</time></trkpt>
<trkpt lat="46.49086" lon="6.74037"><ele>419.8</ele><time>2024-06-12T17:10:30Z</time></trkpt>
<trkpt lat="46.49089" lon="6.74021"><ele>418.8</ele><time>2024-06-12T17:10:32Z</time></trkpt>
<trkpt lat="46.49093" lon="6.74001"><ele>418.6</ele><time>2024-06-12T17:10:35Z</time></trkpt>
<trkpt lat="46.49094" lon="6.73989"><ele>418.4</ele><time>2024-06-12T17:10:37Z</time></trkpt>
<trkpt lat="46.49094" lon="6.73976"><ele>417.6</ele><time>2024-06-12T17:10:40Z</time></trkpt>
<trkpt lat="46.49095" lon="6.7397"><ele>417.2</ele><time>2024-06-12T17:10:42Z</time></trkpt>
<trkpt lat="46.49096" lon="6.73959"><ele>416.4</ele><time>2024-06-12T17:10:45Z</time></trkpt>
<trkpt lat="46.49099" lon="6.73949"><ele>415.2</ele><time>2024-06-12T17:10:47Z</time></trkpt>
<trkpt lat="46.491" lon="6.73943"><ele>414.4</ele><time>2024-06-12T17:10:48Z</time></trkpt>
<trkpt lat="46.49102" lon="6.73938"><ele>413.8</ele><time>2024-06-12T17:10:49Z</time></trkpt>
<trkpt lat="46.49105" lon="6.73928"><ele>412.8</ele><time>2024-06-12T17:10:51Z</time></trkpt>
<trkpt lat="46.49106" lon="6.7392"><ele>411.4</ele><time>2024-06-12T17:10:53Z</time></trkpt>
<trkpt lat="46.49107" lon="6.73917"><ele>410.8</ele><time>2024-06-12T17:10:54Z</time></trkpt>
<trkpt lat="46.49109" lon="6.739"><ele>410.2</ele><time>2024-06-12T17:10:58Z</time></trkpt>
<trkpt lat="46.49112" lon="6.73888"><ele>409.6</ele><time>2024-06-12T17:11:00Z</time></trkpt>
<trkpt lat="46.49113" lon="6.73882"><ele>408.4</ele><time>2024-06-12T17:11:01Z</time></trkpt>
<trkpt lat="46.49116" lon="6.73869"><ele>408.4</ele><time>2024-06-12T17:11:03Z</time></trkpt>
<trkpt lat="46.49125" lon="6.73809"><ele>407.6</ele><time>2024-06-12T17:11:12Z</time></trkpt>
<trkpt lat="46.49126" lon="6.73803"><ele>407.4</ele><time>2024-06-12T17:11:13Z</time></trkpt>
<trkpt lat="46.49131" lon="6.73779"><ele>407</ele><time>2024-06-12T17:11:17Z</time></trkpt>
<trkpt lat="46.49132" lon="6.73766"><ele>406.8</ele><time>2024-06-12T17:11:19Z</time></trkpt>
<trkpt lat="46.49133" lon="6.7376"><ele>406.6</ele><time>2024-06-12T17:11:20Z</time></trkpt>
<trkpt lat="46.49133" lon="6.73754"><ele>406.6</ele><time>2024-06-12T17:11:21Z</time></trkpt>
<trkpt lat="46.49134" lon="6.73748"><ele>406.2</ele><time>2024-06-12T17:11:22Z</time></trkpt>
<trkpt lat="46.49134" lon="6.73724"><ele>406.4</ele><time>2024-06-12T17:11:26Z</time></trkpt>
<trkpt lat="46.49133" lon="6.7371"><ele>406.4</ele><time>2024-06-12T17:11:28Z</time></trkpt>
<trkpt lat="46.49132" lon="6.73696"><ele>406.6</ele><time>2024-06-12T17:11:30Z</time></trkpt>
<trkpt lat="46.49131" lon="6.73652"><ele>407.2</ele><time>2024-06-12T17:11:37Z</time></trkpt>
<trkpt lat="46.49131" lon="6.73647"><ele>407.2</ele><time>2024-06-12T17:11:38Z</time></trkpt>
<trkpt lat="46.49131" lon="6.73641"><ele>407</ele><time>2024-06-12T17:11:39Z</time></trkpt>
<trkpt lat="46.49131" lon="6.73633"><ele>406.8</ele><time>2024-06-12T17:11:40Z</time></trkpt>
<trkpt lat="46.49132" lon="6.73617"><ele>406.4</ele><time>2024-06-12T17:11:42Z</time></trkpt>
<trkpt lat="46.49132" lon="6.73585"><ele>404.2</ele><time>2024-06-12T17:11:45Z</time></trkpt>
<trkpt lat="46.49131" lon="6.73574"><ele>403.2</ele><time>2024-06-12T17:11:46Z</time></trkpt>
<trkpt lat="46.49128" lon="6.73563"><ele>402.4</ele><time>2024-06-12T17:11:47Z</time></trkpt>
<trkpt lat="46.49124" lon="6.73552"><ele>402</ele><time>2024-06-12T17:11:48Z</time></trkpt>
<trkpt lat="46.49115" lon="6.7353"><ele>400.4</ele><time>2024-06-12T17:11:50Z</time></trkpt>
<trkpt lat="46.49111" lon="6.73518"><ele>400.2</ele><time>2024-06-12T17:11:51Z</time></trkpt>
<trkpt lat="46.49104" lon="6.73471"><ele>399.4</ele><time>2024-06-12T17:11:55Z</time></trkpt>
<trkpt lat="46.49102" lon="6.7346"><ele>399.2</ele><time>2024-06-12T17:11:56Z</time></trkpt>
<trkpt lat="46.49094" lon="6.73421"><ele>398.6</ele><time>2024-06-12T17:12:00Z</time></trkpt>
<trkpt lat="46.49079" lon="6.7337"><ele>399</ele><time>2024-06-12T17:12:06Z</time></trkpt>
<trkpt lat="46.4907" lon="6.73344"><ele>399</ele><time>2024-06-12T17:12:09Z</time></trkpt>
<trkpt lat="46.49062" lon="6.73308"><ele>398.6</ele><time>2024-06-12T17:12:13Z</time></trkpt>
<trkpt lat="46.49057" lon="6.73284"><ele>398.8</ele><time>2024-06-12T17:12:16Z</time></trkpt>
<trkpt lat="46.49055" lon="6.73276"><ele>398.8</ele><time>2024-06-12T17:12:17Z</time></trkpt>
<trkpt lat="46.49053" lon="6.73268"><ele>398.8</ele><time>2024-06-12T17:12:18Z</time></trkpt>
<trkpt lat="46.49052" lon="6.7326"><ele>399</ele><time>2024-06-12T17:12:19Z</time></trkpt>
<trkpt lat="46.49042" lon="6.73221"><ele>400.4</ele><time>2024-06-12T17:12:25Z</time></trkpt>
<trkpt lat="46.4904" lon="6.73215"><ele>400.6</ele><time>2024-06-12T17:12:26Z</time></trkpt>
<trkpt lat="46.49036" lon="6.73197"><ele>401.4</ele><time>2024-06-12T17:12:30Z</time></trkpt>
<trkpt lat="46.49033" lon="6.73183"><ele>401.8</ele><time>2024-06-12T17:12:33Z</time></trkpt>
<trkpt lat="46.49029" lon="6.73167"><ele>402.6</ele><time>2024-06-12T17:12:36Z</time></trkpt>
<trkpt lat="46.49025" lon="6.73154"><ele>403.2</ele><time>2024-06-12T17:12:39Z</time></trkpt>
<trkpt lat="46.49022" lon="6.73146"><ele>403.6</ele><time>2024-06-12T17:12:41Z</time></trkpt>
<trkpt lat="46.49012" lon="6.73123"><ele>404.2</ele><time>2024-06-12T17:12:46Z</time></trkpt>
<trkpt lat="46.4901" lon="6.73117"><ele>404.4</ele><time>2024-06-12T17:12:47Z</time></trkpt>
<trkpt lat="46.48997" lon="6.73079"><ele>403.6</ele><time>2024-06-12T17:12:53Z</time></trkpt>
<trkpt lat="46.4899" lon="6.73062"><ele>402.4</ele><time>2024-06-12T17:12:55Z</time></trkpt>
<trkpt lat="46.48982" lon="6.73044"><ele>401.2</ele><time>2024-06-12T17:12:57Z</time></trkpt>
<trkpt lat="46.48979" lon="6.73036"><ele>401.2</ele><time>2024-06-12T17:12:58Z</time></trkpt>
<trkpt lat="46.48952" lon="6.72962"><ele>401.2</ele><time>2024-06-12T17:13:07Z</time></trkpt>
<trkpt lat="46.48949" lon="6.72954"><ele>401.2</ele><time>2024-06-12T17:13:08Z</time></trkpt>
<trkpt lat="46.48923" lon="6.72887"><ele>400.6</ele><time>2024-06-12T17:13:16Z</time></trkpt>
<trkpt lat="46.48921" lon="6.72877"><ele>400.2</ele><time>2024-06-12T17:13:17Z</time></trkpt>
<trkpt lat="46.48913" lon="6.72847"><ele>399.2</ele><time>2024-06-12T17:13:20Z</time></trkpt>
<trkpt lat="46.48908" lon="6.72825"><ele>398</ele><time>2024-06-12T17:13:22Z</time></trkpt>
<trkpt lat="46.48905" lon="6.72815"><ele>397.6</ele><time>2024-06-12T17:13:23Z</time></trkpt>
<trkpt lat="46.48901" lon="6.72794"><ele>397</ele><time>2024-06-12T17:13:26Z</time></trkpt>
<trkpt lat="46.48902" lon="6.72788"><ele>397</ele><time>2024-06-12T17:13:27Z</time></trkpt>
<trkpt lat="46.48908" lon="6.7277"><ele>397.6</ele><time>2024-06-12T17:13:31Z</time></trkpt>
<trkpt lat="46.48908" lon="6.72748"><ele>398</ele><time>2024-06-12T17:13:37Z</time></trkpt>
<trkpt lat="46.48906" lon="6.72744"><ele>398.2</ele><time>2024-06-12T17:13:38Z</time></trkpt>
<trkpt lat="46.48905" lon="6.72722"><ele>398.8</ele><time>2024-06-12T17:13:43Z</time></trkpt>
<trkpt lat="46.48907" lon="6.72705"><ele>399</ele><time>2024-06-12T17:13:47Z</time></trkpt>
<trkpt lat="46.48912" lon="6.72697"><ele>399.4</ele><time>2024-06-12T17:13:49Z</time></trkpt>
<trkpt lat="46.48915" lon="6.72679"><ele>400.4</ele><time>2024-06-12T17:13:53Z</time></trkpt>
<trkpt lat="46.48911" lon="6.72658"><ele>401</ele><time>2024-06-12T17:13:57Z</time></trkpt>
<trkpt lat="46.48911" lon="6.72652"><ele>401</ele><time>2024-06-12T17:13:58Z</time></trkpt>
<trkpt lat="46.48912" lon="6.72634"><ele>401.4</ele><time>2024-06-12T17:14:02Z</time></trkpt>
<trkpt lat="46.48914" lon="6.72621"><ele>401.8</ele><time>2024-06-12T17:14:05Z</time></trkpt>
<trkpt lat="46.48915" lon="6.72599"><ele>402.4</ele><time>2024-06-12T17:14:10Z</time></trkpt>
<trkpt lat="46.48914" lon="6.72589"><ele>402.8</ele><time>2024-06-12T17:14:13Z</time></trkpt>
<trkpt lat="46.48912" lon="6.72576"><ele>403.4</ele><time>2024-06-12T17:14:17Z</time></trkpt>
<trkpt lat="46.4891" lon="6.72562"><ele>403.8</ele><time>2024-06-12T17:14:21Z</time></trkpt>
<trkpt lat="46.48908" lon="6.72548"><ele>404.4</ele><time>2024-06-12T17:14:26Z</time></trkpt>
<trkpt lat="46.48908" lon="6.72545"><ele>404.6</ele><time>2024-06-12T17:14:27Z</time></trkpt>
<trkpt lat="46.48909" lon="6.72525"><ele>405.6</ele><time>2024-06-12T17:14:34Z</time></trkpt>
<trkpt lat="46.48909" lon="6.72518"><ele>405.8</ele><time>2024-06-12T17:14:36Z</time></trkpt>
<trkpt lat="46.48911" lon="6.72502"><ele>406.6</ele><time>2024-06-12T17:14:42Z</time></trkpt>
<trkpt lat="46.48913" lon="6.72497"><ele>407.2</ele><time>2024-06-12T17:14:44Z</time></trkpt>
<trkpt lat="46.48917" lon="6.72485"><ele>407.8</ele><time>2024-06-12T17:14:49Z</time></trkpt>
<trkpt lat="46.48922" lon="6.72473"><ele>408.4</ele><time>2024-06-12T17:14:54Z</time></trkpt>
<trkpt lat="46.48923" lon="6.72468"><ele>408.8</ele><time>2024-06-12T17:14:56Z</time></trkpt>
<trkpt lat="46.48929" lon="6.72454"><ele>409.8</ele><time>2024-06-12T17:15:02Z</time></trkpt>
<trkpt lat="46.4893" lon="6.72449"><ele>410.2</ele><time>2024-06-12T17:15:04Z</time></trkpt>
<trkpt lat="46.48933" lon="6.72445"><ele>410.8</ele><time>2024-06-12T17:15:06Z</time></trkpt>
<trkpt lat="46.48939" lon="6.72427"><ele>411.8</ele><time>2024-06-12T17:15:14Z</time></trkpt>
<trkpt lat="46.48939" lon="6.72424"><ele>412</ele><time>2024-06-12T17:15:15Z</time></trkpt>
<trkpt lat="46.4894" lon="6.72422"><ele>412.2</ele><time>2024-06-12T17:15:16Z</time></trkpt>
<trkpt lat="46.48942" lon="6.72414"><ele>413</ele><time>2024-06-12T17:15:19Z</time></trkpt>
<trkpt lat="46.48944" lon="6.72401"><ele>413.6</ele><time>2024-06-12T17:15:24Z</time></trkpt>
<trkpt lat="46.48944" lon="6.72396"><ele>414.2</ele><time>2024-06-12T17:15:26Z</time></trkpt>
<trkpt lat="46.48943" lon="6.72384"><ele>415.2</ele><time>2024-06-12T17:15:31Z</time></trkpt>
<trkpt lat="46.48943" lon="6.72379"><ele>415.4</ele><time>2024-06-12T17:15:33Z</time></trkpt>
<trkpt lat="46.48943" lon="6.72374"><ele>416.2</ele><time>2024-06-12T17:15:35Z</time></trkpt>
<trkpt lat="46.4894" lon="6.72355"><ele>417.2</ele><time>2024-06-12T17:15:42Z</time></trkpt>
<trkpt lat="46.4894" lon="6.72352"><ele>417.2</ele><time>2024-06-12T17:15:43Z</time></trkpt>
<trkpt lat="46.48937" lon="6.72338"><ele>418.4</ele><time>2024-06-12T17:15:49Z</time></trkpt>
<trkpt lat="46.48935" lon="6.72327"><ele>419</ele><time>2024-06-12T17:15:53Z</time></trkpt>
<trkpt lat="46.48935" lon="6.7232"><ele>419.4</ele><time>2024-06-12T17:15:56Z</time></trkpt>
<trkpt lat="46.48932" lon="6.723"><ele>420.6</ele><time>2024-06-12T17:16:03Z</time></trkpt>
<trkpt lat="46.48931" lon="6.72298"><ele>421</ele><time>2024-06-12T17:16:04Z</time></trkpt>
<trkpt lat="46.4893" lon="6.72288"><ele>421.8</ele><time>2024-06-12T17:16:08Z</time></trkpt>
<trkpt lat="46.4893" lon="6.7228"><ele>422</ele><time>2024-06-12T17:16:11Z</time></trkpt>
<trkpt lat="46.48929" lon="6.72271"><ele>422.6</ele><time>2024-06-12T17:16:14Z</time></trkpt>
<trkpt lat="46.48929" lon="6.72269"><ele>422.8</ele><time>2024-06-12T17:16:15Z</time></trkpt>
<trkpt lat="46.48926" lon="6.72252"><ele>423.6</ele><time>2024-06-12T17:16:22Z</time></trkpt>
<trkpt lat="46.48921" lon="6.7225"><ele>423.8</ele><time>2024-06-12T17:16:25Z</time></trkpt>
<trkpt lat="46.48916" lon="6.72253"><ele>423.8</ele><time>2024-06-12T17:16:28Z</time></trkpt>
<trkpt lat="46.48914" lon="6.72272"><ele>423</ele><time>2024-06-12T17:16:32Z</time></trkpt>
<trkpt lat="46.48915" lon="6.72294"><ele>423</ele><time>2024-06-12T17:16:37Z</time></trkpt>
<trkpt lat="46.48916" lon="6.72302"><ele>423</ele><time>2024-06-12T17:16:39Z</time></trkpt>
<trkpt lat="46.48915" lon="6.72314"><ele>423.2</ele><time>2024-06-12T17:16:43Z</time></trkpt>
<trkpt lat="46.48916" lon="6.72319"><ele>423.2</ele><time>2024-06-12T17:16:45Z</time></trkpt>
<trkpt lat="46.48918" lon="6.72318"><ele>423</ele><time>2024-06-12T17:16:48Z</time></trkpt>
<trkpt lat="46.48919" lon="6.72317"><ele>422.8</ele><time>2024-06-12T17:16:49Z</time></trkpt>
<trkpt lat="46.48918" lon="6.72317"><ele>423</ele><time>2024-06-12T17:16:52Z</time></trkpt>
<trkpt lat="46.48918" lon="6.72317"><ele>422.8</ele><time>2024-06-12T17:16:56Z</time></trkpt>
<trkpt lat="46.48919" lon="6.72317"><ele>422.8</ele><time>2024-06-12T17:16:57Z</time></trkpt>
</trkseg></trk></gpx>